[[{"header":{"parameterUnit":"m.s-1","parameterCategory":1,"la1":30.6,"la2":29.2853,"lo1":-89.7004,"lo2":-87.6739,"dy":0.0162,"dx":0.0183,"nx":112,"ny":82,"refTime":"2023-03-31T06:00:00:Z","depth":0,"parameterNumber":2,"parameterNumberName":"U-component_of_WINDS"},"data":[0.0,0.0,0.0,0.0,0.0,0.0,0.0,0.0,0.0,0.0,0.0,0.0,0.0,0.0,0.0,0.0,0.0,0.0,0.0,0.0,0.0,0.0,0.0,0.0,0.0,0.0,0.0,0.0,0.0,0.0,0.0,0.0,0.0,0.0,0.0,0.0,0.0,0.0,0.0,0.0,0.0,0.0,0.0,0.0,0.0,0.0,0.0,0.0,0.0,0.0,0.0,0.0,0.0,0.0,0.0,0.0,0.0,0.0,0.0,0.0,0.0,0.0,0.0,0.0,0.0,0.0,0.0,0.0,0.0,0.0,0.0,0.0,0.0,0.0,0.0,0.0,0.0,0.0,0.0,0.0,0.0,0.0,0.0,0.0,0.0,0.0,0.0,0.0,0.0,0.0,-4.2066,-4.2947,-4.4048,-4.4415,-4.3718,-4.3251,-4.0289,-3.3945,0.0,0.0,0.0,0.0,0.0,0.0,0.0,0.0,0.0,0.0,0.0,0.0,0.0,0.0,0.0,0.0,0.0,0.0,0.0,0.0,0.0,0.0,0.0,0.0,0.0,0.0,0.0,0.0,0.0,0.0,0.0,0.0,0.0,0.0,0.0,0.0,0.0,0.0,0.0,0.0,0.0,0.0,0.0,0.0,0.0,0.0,0.0,0.0,0.0,0.0,0.0,0.0,0.0,0.0,0.0,0.0,0.0,0.0,0.0,0.0,0.0,0.0,0.0,0.0,0.0,0.0,0.0,0.0,0.0,0.0,0.0,0.0,0.0,0.0,0.0,0.0,0.0,0.0,0.0,0.0,0.0,0.0,0.0,0.0,0.0,0.0,0.0,0.0,0.0,0.0,0.0,0.0,0.0,0.0,0.0,0.0,0.0,0.0,0.0,0.0,0.0,0.0,0.0,0.0,-4.1075,-4.5865,-4.5351,-4.4654,-4.4525,-4.3849,-4.0643,-3.417,0.0,0.0,0.0,0.0,0.0,0.0,0.0,0.0,0.0,0.0,0.0,0.0,0.0,0.0,0.0,0.0,0.0,0.0,0.0,0.0,0.0,0.0,0.0,0.0,0.0,0.0,0.0,0.0,0.0,0.0,0.0,0.0,0.0,0.0,0.0,0.0,0.0,0.0,0.0,0.0,0.0,0.0,0.0,0.0,0.0,0.0,0.0,0.0,0.0,0.0,0.0,0.0,0.0,0.0,0.0,0.0,0.0,0.0,0.0,0.0,0.0,0.0,0.0,0.0,0.0,0.0,0.0,0.0,0.0,0.0,0.0,0.0,0.0,0.0,0.0,0.0,0.0,0.0,0.0,0.0,0.0,0.0,0.0,0.0,0.0,0.0,0.0,0.0,0.0,0.0,0.0,0.0,0.0,0.0,0.0,0.0,0.0,0.0,0.0,0.0,0.0,0.0,0.0,-3.9276,-4.28,-4.6672,-4.6452,-4.5645,-4.4764,-4.4145,-4.0917,-3.4081,-3.3034,0.0,0.0,0.0,0.0,0.0,0.0,0.0,0.0,0.0,0.0,0.0,0.0,0.0,0.0,0.0,0.0,0.0,0.0,0.0,0.0,0.0,0.0,0.0,0.0,0.0,0.0,0.0,0.0,0.0,0.0,0.0,0.0,0.0,0.0,0.0,0.0,0.0,0.0,0.0,0.0,0.0,0.0,0.0,0.0,0.0,0.0,0.0,0.0,0.0,0.0,0.0,0.0,0.0,0.0,0.0,0.0,0.0,0.0,0.0,0.0,0.0,0.0,0.0,0.0,0.0,0.0,0.0,0.0,0.0,0.0,0.0,0.0,0.0,0.0,0.0,0.0,0.0,0.0,0.0,0.0,0.0,0.0,0.0,0.0,0.0,0.0,0.0,0.0,0.0,0.0,0.0,0.0,0.0,0.0,0.0,0.0,0.0,0.0,0.0,0.0,0.0,0.0,-4.2176,-4.5333,-4.7186,-4.7223,-4.6599,-4.5351,-4.387,-4.0363,-3.4193,-3.2439,0.0,0.0,0.0,0.0,0.0,0.0,0.0,0.0,0.0,0.0,0.0,0.0,0.0,0.0,0.0,0.0,0.0,0.0,0.0,0.0,0.0,0.0,0.0,0.0,0.0,0.0,0.0,0.0,0.0,0.0,0.0,0.0,0.0,0.0,0.0,0.0,0.0,0.0,0.0,0.0,0.0,0.0,0.0,0.0,0.0,0.0,0.0,0.0,0.0,0.0,0.0,0.0,0.0,0.0,0.0,0.0,0.0,0.0,0.0,0.0,0.0,0.0,0.0,0.0,0.0,0.0,0.0,0.0,0.0,0.0,0.0,0.0,0.0,0.0,0.0,0.0,0.0,0.0,0.0,0.0,0.0,0.0,0.0,0.0,0.0,0.0,0.0,0.0,0.0,0.0,0.0,0.0,0.0,0.0,0.0,0.0,0.0,0.0,0.0,0.0,0.0,0.0,-4.4121,-4.8049,-4.8196,-4.7553,-4.7039,-4.6929,-4.2556,-3.832,-3.4848,-3.0607,0.0,0.0,0.0,0.0,0.0,0.0,0.0,0.0,0.0,0.0,0.0,0.0,0.0,0.0,0.0,0.0,0.0,0.0,0.0,0.0,0.0,0.0,0.0,0.0,0.0,0.0,0.0,0.0,0.0,0.0,0.0,0.0,0.0,0.0,0.0,0.0,0.0,0.0,0.0,0.0,0.0,0.0,0.0,0.0,0.0,0.0,0.0,0.0,0.0,0.0,0.0,0.0,0.0,0.0,0.0,0.0,0.0,0.0,0.0,0.0,0.0,0.0,0.0,0.0,0.0,0.0,0.0,0.0,0.0,0.0,0.0,0.0,0.0,0.0,0.0,0.0,0.0,0.0,0.0,0.0,0.0,0.0,0.0,0.0,0.0,0.0,0.0,0.0,0.0,0.0,0.0,0.0,0.0,0.0,0.0,0.0,0.0,0.0,0.0,0.0,0.0,0.0,-4.258,-4.6067,0.0,-4.8049,-4.7626,-4.7149,-4.5315,-4.1565,-3.5294,0.0,0.0,0.0,0.0,0.0,0.0,0.0,0.0,0.0,0.0,0.0,0.0,0.0,0.0,0.0,0.0,0.0,0.0,0.0,0.0,0.0,0.0,0.0,0.0,0.0,0.0,0.0,0.0,0.0,0.0,0.0,0.0,0.0,0.0,0.0,0.0,0.0,0.0,0.0,0.0,0.0,0.0,0.0,0.0,0.0,0.0,0.0,0.0,0.0,0.0,0.0,0.0,0.0,0.0,0.0,0.0,0.0,0.0,0.0,0.0,0.0,0.0,0.0,0.0,0.0,0.0,0.0,0.0,0.0,0.0,0.0,0.0,0.0,0.0,0.0,0.0,0.0,0.0,0.0,0.0,0.0,0.0,0.0,0.0,0.0,0.0,0.0,0.0,0.0,0.0,0.0,0.0,0.0,0.0,0.0,0.0,0.0,0.0,0.0,0.0,0.0,0.0,-3.8395,-4.2396,-4.5883,0.0,-4.8306,-4.8067,-4.7516,-4.6082,-4.2467,-3.5957,0.0,0.0,0.0,0.0,0.0,0.0,0.0,0.0,0.0,0.0,0.0,0.0,0.0,0.0,0.0,0.0,0.0,0.0,0.0,0.0,0.0,0.0,0.0,0.0,0.0,0.0,0.0,0.0,0.0,0.0,0.0,0.0,0.0,0.0,0.0,0.0,0.0,0.0,0.0,0.0,0.0,0.0,0.0,0.0,0.0,0.0,0.0,0.0,0.0,0.0,0.0,0.0,0.0,0.0,0.0,0.0,0.0,0.0,0.0,0.0,0.0,0.0,0.0,0.0,0.0,0.0,0.0,0.0,0.0,0.0,0.0,0.0,0.0,0.0,0.0,0.0,0.0,0.0,0.0,0.0,0.0,0.0,0.0,0.0,0.0,0.0,0.0,0.0,0.0,0.0,0.0,0.0,0.0,0.0,0.0,0.0,0.0,0.0,0.0,0.0,0.0,0.0,-3.8689,-4.4342,-4.8306,-4.8306,-4.8306,-4.8306,-4.8306,-4.4005,-3.9982,0.0,0.0,0.0,0.0,0.0,0.0,0.0,0.0,0.0,0.0,0.0,0.0,0.0,0.0,0.0,0.0,0.0,0.0,0.0,0.0,0.0,0.0,0.0,0.0,0.0,0.0,0.0,0.0,0.0,0.0,0.0,0.0,0.0,0.0,0.0,0.0,0.0,0.0,0.0,0.0,0.0,0.0,0.0,0.0,0.0,0.0,0.0,0.0,0.0,0.0,0.0,0.0,0.0,0.0,0.0,0.0,0.0,0.0,0.0,0.0,0.0,0.0,0.0,0.0,0.0,0.0,0.0,0.0,0.0,0.0,0.0,0.0,0.0,0.0,0.0,0.0,0.0,0.0,0.0,0.0,0.0,0.0,0.0,0.0,0.0,0.0,0.0,0.0,0.0,0.0,0.0,0.0,0.0,0.0,0.0,0.0,0.0,0.0,0.0,0.0,0.0,0.0,0.0,-3.8689,-4.4342,-4.8306,-4.8306,-4.8306,-4.8306,-4.8306,-4.6997,-4.3652,-3.7661,0.0,0.0,0.0,0.0,0.0,0.0,0.0,0.0,0.0,0.0,0.0,0.0,0.0,0.0,0.0,0.0,0.0,0.0,0.0,0.0,0.0,0.0,0.0,0.0,0.0,0.0,0.0,0.0,0.0,0.0,0.0,0.0,0.0,0.0,0.0,0.0,0.0,0.0,0.0,0.0,0.0,0.0,0.0,0.0,0.0,0.0,0.0,0.0,0.0,0.0,0.0,0.0,0.0,0.0,0.0,0.0,0.0,0.0,0.0,0.0,0.0,0.0,0.0,0.0,0.0,0.0,0.0,0.0,0.0,0.0,0.0,0.0,0.0,0.0,0.0,0.0,0.0,0.0,0.0,0.0,0.0,0.0,0.0,0.0,0.0,0.0,0.0,0.0,0.0,0.0,0.0,0.0,0.0,0.0,0.0,0.0,0.0,0.0,0.0,0.0,0.0,0.0,-3.8689,-4.4342,-4.8306,-4.8306,-4.8306,-4.8306,-4.8306,-4.8114,-4.5661,-4.0085,0.0,0.0,0.0,0.0,0.0,0.0,0.0,0.0,0.0,0.0,0.0,0.0,0.0,0.0,0.0,0.0,0.0,0.0,0.0,0.0,0.0,0.0,0.0,0.0,0.0,0.0,0.0,0.0,0.0,0.0,0.0,0.0,0.0,0.0,0.0,0.0,0.0,0.0,0.0,0.0,0.0,0.0,0.0,0.0,0.0,0.0,0.0,0.0,0.0,0.0,0.0,0.0,0.0,0.0,0.0,0.0,0.0,0.0,0.0,0.0,0.0,0.0,0.0,0.0,0.0,0.0,0.0,0.0,0.0,0.0,0.0,0.0,0.0,0.0,0.0,0.0,0.0,0.0,0.0,0.0,0.0,0.0,0.0,0.0,0.0,0.0,0.0,0.0,0.0,0.0,0.0,0.0,0.0,0.0,0.0,0.0,0.0,0.0,0.0,0.0,0.0,0.0,-3.8689,-4.4378,-4.8416,-4.8416,-4.8416,-4.8416,-4.8416,-4.7951,-4.6372,-4.3342,0.0,0.0,0.0,0.0,0.0,0.0,0.0,0.0,0.0,0.0,0.0,0.0,0.0,0.0,0.0,0.0,0.0,0.0,0.0,0.0,0.0,0.0,0.0,0.0,0.0,0.0,0.0,0.0,0.0,0.0,0.0,0.0,0.0,0.0,0.0,0.0,0.0,0.0,0.0,0.0,0.0,0.0,0.0,0.0,0.0,0.0,0.0,0.0,0.0,0.0,0.0,0.0,0.0,0.0,0.0,0.0,0.0,0.0,0.0,0.0,-4.2066,0.0,0.0,0.0,0.0,0.0,0.0,0.0,0.0,0.0,0.0,0.0,0.0,0.0,0.0,0.0,0.0,0.0,0.0,0.0,0.0,0.0,0.0,0.0,0.0,0.0,0.0,0.0,0.0,0.0,0.0,0.0,0.0,0.0,0.0,0.0,0.0,0.0,0.0,0.0,0.0,0.0,-3.8615,-4.4929,-4.9317,-4.9317,-4.9317,-4.9317,-4.9317,-4.8595,-4.6798,-4.3611,-4.1844,0.0,0.0,0.0,0.0,0.0,0.0,0.0,0.0,0.0,0.0,0.0,0.0,0.0,0.0,0.0,0.0,0.0,0.0,0.0,0.0,0.0,0.0,0.0,0.0,0.0,0.0,0.0,0.0,0.0,0.0,0.0,0.0,0.0,0.0,0.0,0.0,0.0,0.0,0.0,0.0,0.0,0.0,0.0,0.0,0.0,0.0,0.0,0.0,0.0,0.0,0.0,0.0,0.0,0.0,0.0,0.0,0.0,0.0,0.0,0.0,-4.1882,0.0,0.0,0.0,0.0,0.0,0.0,0.0,0.0,0.0,0.0,0.0,0.0,0.0,0.0,0.0,0.0,0.0,0.0,0.0,0.0,0.0,0.0,0.0,0.0,0.0,0.0,0.0,0.0,0.0,0.0,0.0,0.0,0.0,0.0,0.0,0.0,0.0,0.0,0.0,0.0,-4.1176,-4.645,-4.998,-4.998,-4.998,-4.998,-4.998,-4.9212,-4.8004,-4.6358,-4.3877,0.0,0.0,0.0,0.0,0.0,0.0,0.0,0.0,0.0,0.0,0.0,0.0,0.0,0.0,0.0,0.0,0.0,0.0,0.0,0.0,0.0,0.0,0.0,0.0,0.0,0.0,0.0,0.0,0.0,0.0,0.0,0.0,0.0,0.0,0.0,0.0,0.0,0.0,0.0,0.0,0.0,0.0,0.0,0.0,0.0,0.0,0.0,0.0,0.0,0.0,0.0,0.0,0.0,-4.5186,-4.5186,-4.5186,-4.5186,-4.5186,-4.5149,-4.4599,-4.5847,-4.7902,-4.258,0.0,0.0,0.0,0.0,0.0,0.0,0.0,0.0,0.0,0.0,0.0,0.0,0.0,0.0,0.0,0.0,0.0,0.0,0.0,0.0,0.0,0.0,0.0,0.0,-4.458,-4.3828,-4.1152,0.0,0.0,0.0,0.0,0.0,0.0,0.0,0.0,0.0,0.0,0.0,-4.4254,-4.8178,-5.0596,-5.0596,-5.0596,-5.0596,-5.0596,-4.9888,-4.9414,-4.9414,-4.5816,-4.368,0.0,0.0,0.0,0.0,0.0,0.0,0.0,0.0,0.0,0.0,0.0,0.0,0.0,0.0,0.0,0.0,0.0,0.0,0.0,0.0,0.0,0.0,0.0,0.0,0.0,0.0,0.0,0.0,0.0,0.0,0.0,0.0,-3.8704,-4.1919,0.0,0.0,0.0,0.0,0.0,0.0,0.0,0.0,0.0,0.0,0.0,0.0,0.0,-4.4305,-4.7645,-4.7682,-4.9114,-5.1919,-5.1919,-5.1919,-5.1919,-5.1919,-5.1919,-5.1756,-4.893,0.0,-4.8233,-4.7388,0.0,0.0,0.0,0.0,0.0,0.0,0.0,0.0,0.0,0.0,0.0,0.0,0.0,0.0,0.0,0.0,0.0,0.0,0.0,0.0,0.0,0.0,-4.8399,-4.8729,-4.8802,-4.8654,0.0,-4.3559,-3.9228,-3.811,-3.8423,0.0,0.0,0.0,0.0,0.0,0.0,0.0,-4.5311,-4.8976,-5.1456,-5.1456,-5.1456,-5.1456,-5.1456,-5.0727,-5.0232,-5.0232,-4.8663,-4.7715,-4.7715,-4.4324,0.0,0.0,0.0,0.0,0.0,0.0,0.0,0.0,0.0,0.0,0.0,0.0,0.0,0.0,0.0,0.0,0.0,0.0,0.0,0.0,0.0,0.0,0.0,0.0,0.0,0.0,0.0,0.0,0.0,-3.8102,-4.1405,-4.4618,-4.3387,-4.1882,0.0,0.0,0.0,0.0,0.0,0.0,0.0,0.0,0.0,-4.6067,-4.6214,-4.7755,-5.1022,-5.1059,-5.1773,-5.3203,-5.3665,-5.3885,-5.3885,-5.4326,-5.4546,-5.4436,-5.2564,-5.172,-5.1536,-4.926,-4.8306,-4.8012,0.0,0.0,0.0,0.0,-4.1405,-4.1589,-4.302,-4.559,-4.8012,-4.625,0.0,0.0,0.0,0.0,0.0,0.0,0.0,-4.1956,0.0,0.0,-4.777,-4.9182,-4.9781,-4.9992,-4.9888,-4.7968,-4.5527,0.0,-4.2758,-4.1737,-3.7682,0.0,0.0,0.0,0.0,-4.5923,-4.8525,-5.0737,-5.2095,-5.2095,-5.2095,-5.2095,-5.2095,-5.1369,-5.0897,-5.0897,-4.9959,-4.9303,-4.9062,-4.7234,-4.5014,0.0,0.0,0.0,0.0,0.0,0.0,0.0,0.0,0.0,0.0,0.0,0.0,0.0,0.0,0.0,0.0,0.0,0.0,0.0,0.0,0.0,0.0,0.0,0.0,0.0,0.0,0.0,0.0,-3.9276,-4.2873,-4.6085,-4.5112,-4.3901,0.0,0.0,0.0,0.0,0.0,0.0,-4.3167,-4.3204,-4.5076,-4.9114,-4.926,-5.0508,-5.3167,-5.3203,-5.3203,-5.3203,-5.4032,-5.4399,-5.4436,-5.5207,-5.5596,-5.5596,-5.495,-5.4693,-5.4436,-5.0986,-4.9554,-4.9481,-4.8636,-4.6838,-4.4709,-4.4709,-4.4709,-4.4856,-4.57,-4.7535,-4.9554,-4.9554,-4.9554,-4.9241,-4.7571,0.0,0.0,0.0,0.0,-4.2678,-4.4473,-4.5919,-4.7378,-4.9224,-5.0185,-5.0684,-5.054,-5.1115,-5.0737,0.0,-4.6928,-4.5799,-4.1758,0.0,0.0,0.0,0.0,-4.8291,-5.1288,-5.2164,-5.248,-5.248,-5.248,-5.248,-5.248,-5.1937,-5.1611,-5.1611,-5.0873,-5.0268,-4.9957,-4.9575,-4.7998,-4.5101,0.0,0.0,0.0,0.0,0.0,0.0,0.0,0.0,0.0,0.0,0.0,0.0,0.0,0.0,0.0,0.0,0.0,0.0,0.0,0.0,0.0,0.0,0.0,0.0,0.0,0.0,0.0,0.0,0.0,-4.4452,-4.7425,0.0,0.0,0.0,0.0,-4.1095,-4.1022,-4.2453,-4.5553,-4.57,-4.7572,-5.1683,-5.1793,-5.227,-5.3167,-5.3203,-5.3203,-5.3203,-5.4032,-5.4399,-5.4436,-5.5207,-5.5596,-5.5596,-5.5537,-5.5559,-5.5412,-5.3665,-5.2947,-5.2616,-4.9517,-4.8196,-4.8049,-4.8049,-4.8049,-4.8489,-5.1646,-5.28,-5.2947,-5.2947,-5.2947,-5.2213,-4.8226,-4.687,0.0,0.0,-4.3014,-4.5384,-4.5529,-4.7826,-5.0216,-5.0326,-5.0946,-5.1486,-5.1377,-5.1972,-5.2009,0.0,-5.0591,-4.9886,-4.5964,0.0,-4.9807,-4.6916,-4.972,-5.2226,-5.2408,-5.248,-5.248,-5.248,-5.248,-5.248,-5.248,-5.2444,-5.2444,-5.2444,-5.1683,-5.1212,-5.119,-5.0452,-4.9686,-4.8936,-4.5026,0.0,0.0,0.0,0.0,0.0,0.0,0.0,0.0,0.0,0.0,0.0,0.0,0.0,0.0,0.0,0.0,0.0,0.0,0.0,0.0,0.0,0.0,0.0,0.0,0.0,0.0,0.0,0.0,-4.5076,-4.6067,0.0,-4.5223,-4.5149,-4.4452,-4.2763,-4.5076,-4.7278,-4.8967,-4.9554,-5.0729,-5.2711,-5.2784,-5.2931,-5.3203,-5.3203,-5.3203,-5.3203,-5.4032,-5.4399,-5.4436,-5.5207,-5.5596,-5.5596,-5.5596,-5.5596,-5.5537,-5.4987,-5.473,-5.462,-5.3445,-5.3004,-5.3004,-5.3004,-5.3004,-5.3151,-5.4326,-5.473,-5.4656,-5.4142,-5.3628,-5.2837,-5.0835,-5.0228,-4.9768,-4.7673,-4.8311,-4.946,-4.8867,-4.984,-5.1035,-5.1035,-5.1645,-5.2159,-5.2114,-5.2331,-5.2368,-5.1787,-5.1933,-5.1679,-5.0286,-5.1193,-5.1715,-5.0569,-5.1597,-5.248,-5.248,-5.248,-5.248,-5.248,-5.248,-5.248,-5.248,-5.248,-5.248,-5.248,-5.2226,-5.2082,-5.2082,-5.1285,-5.0783,-5.0564,-4.8209,-4.5199,0.0,0.0,0.0,0.0,0.0,0.0,0.0,0.0,0.0,0.0,0.0,0.0,0.0,0.0,0.0,0.0,0.0,0.0,0.0,0.0,0.0,0.0,0.0,0.0,0.0,0.0,-4.269,-4.4819,-4.5847,-4.6361,-4.6361,-4.6617,-4.6544,-4.5993,-4.8453,-5.0251,-5.0765,-5.1316,-5.1977,-5.2784,-5.2821,-5.2931,-5.3203,-5.3203,-5.3203,-5.3203,-5.4032,-5.4399,-5.4436,-5.5207,-5.5596,-5.5596,-5.5596,-5.5596,-5.5596,-5.5596,-5.5596,-5.5596,-5.5596,-5.5596,-5.5596,-5.5596,-5.5596,-5.5596,-5.5596,-5.5427,-5.5097,-5.4583,-5.3827,-5.3014,-5.2459,-5.205,-5.1679,-5.1025,-5.1237,-5.1508,-5.0875,-5.1223,-5.176,-5.176,-5.2127,-5.248,-5.248,-5.248,-5.248,-5.248,-5.248,-5.2226,-5.143,-5.1285,-5.0923,-4.9836,-4.9908,-4.9981,-4.9691,-5.0597,-5.1285,-5.1285,-5.2009,-5.248,-5.248,-5.1502,-5.1321,-5.2408,-5.1466,-5.1357,-5.2444,-5.0669,-4.9589,-4.9375,-4.7147,-4.4549,-4.1586,0.0,0.0,0.0,0.0,0.0,0.0,0.0,0.0,0.0,0.0,0.0,0.0,0.0,0.0,0.0,0.0,0.0,0.0,0.0,0.0,0.0,0.0,0.0,-3.8615,-4.1589,-4.3625,-4.3698,-4.7223,-4.9647,-4.9647,-5.0325,-5.0802,-5.0802,-5.0839,-5.0839,-5.0839,-5.0875,-5.1242,-5.2013,-5.205,-5.2417,-5.3203,-5.3261,-5.324,-5.3277,-5.4069,-5.4436,-5.4473,-5.5244,-5.5596,-5.5596,-5.5633,-5.5647,-5.5647,-5.5669,-5.5647,-5.5647,-5.5611,-5.5596,-5.5596,-5.5596,-5.5596,-5.5596,-5.5574,-5.5097,-5.4436,-5.4399,-5.3763,-5.2959,-5.2791,-5.217,-5.1478,-5.133,-5.1344,-5.1344,-5.1344,-5.19,-5.248,-5.248,-5.248,-5.248,-5.248,-5.248,-5.248,-5.248,-5.248,-5.1756,-4.9416,-4.9018,-4.7953,-4.4838,-4.5019,0.0,-4.444,-4.7083,-4.8981,-4.8873,-5.1031,-5.2444,-5.2371,-4.9582,-4.9184,-5.2299,-4.9582,-4.9257,-5.2371,-4.8749,-4.6398,-4.5802,-4.1929,-4.1216,-4.3745,0.0,0.0,0.0,0.0,0.0,0.0,0.0,0.0,0.0,0.0,0.0,0.0,0.0,0.0,0.0,0.0,0.0,0.0,0.0,0.0,0.0,0.0,-4.2359,-4.2176,-4.3938,-4.592,-4.7701,-4.9407,-5.0472,-5.0472,-5.0655,-5.0802,-5.0802,-5.1353,-5.1683,-5.1683,-5.2234,-5.2637,-5.2858,-5.2858,-5.3261,-5.4069,-5.4069,-5.4363,-5.495,-5.5133,-5.5244,-5.528,-5.55,-5.5596,-5.5633,-5.6235,-5.6455,-5.6528,-5.7079,-5.7336,-5.7226,-5.6051,-5.5596,-5.5596,-5.5596,-5.5596,-5.5574,-5.5485,-5.5294,-5.5001,-5.4326,-5.3529,-5.274,-5.2113,-5.1763,-5.1537,-5.1405,-5.1782,-5.2232,-5.2177,-5.2335,-5.248,-5.248,-5.248,-5.248,-5.248,-5.248,-5.248,-5.248,-5.248,-5.2299,-5.1611,-5.1502,-5.1212,-5.0307,-5.0379,0.0,-5.0234,-5.0959,-5.0633,-4.8257,-5.0705,-5.1574,-4.922,-5.0343,-5.1574,-5.2444,-5.1683,-5.1574,-5.2444,-5.143,-5.0564,-4.9971,-4.7002,-4.5251,0.0,0.0,0.0,0.0,0.0,0.0,0.0,0.0,0.0,0.0,0.0,0.0,0.0,0.0,0.0,0.0,0.0,0.0,0.0,0.0,0.0,0.0,-4.28,-4.5516,-4.6434,-4.7352,-4.8489,-4.9921,-5.0802,-5.1316,-5.1316,-5.161,-5.183,-5.183,-5.2234,-5.2491,-5.2491,-5.3261,-5.3702,-5.3702,-5.4032,-5.4436,-5.4913,-5.4913,-5.495,-5.5097,-5.5097,-5.4913,-5.462,-5.495,-5.5097,-5.5133,-5.5941,-5.6308,-5.6345,-5.6785,-5.6946,0.0,0.0,0.0,0.0,0.0,-5.6088,-5.6051,-5.5617,-5.5265,-5.4877,-5.4334,-5.3551,-5.2733,-5.2258,-5.2047,-5.1958,-5.1869,-5.2196,-5.2536,-5.2503,-5.248,-5.248,-5.248,-5.248,-5.248,-5.248,-5.248,-5.2589,-5.2951,-5.2987,0.0,-5.3458,-5.2118,-5.0524,-4.9184,-4.9257,-4.9365,-4.9003,-5.0162,-5.0271,-4.8402,-5.0778,-5.1756,-4.9872,-5.0198,0.0,0.0,0.0,-5.0343,-5.0017,-4.9981,0.0,0.0,0.0,-4.5414,-4.5893,-4.4349,0.0,0.0,-4.0181,-3.8408,0.0,0.0,0.0,0.0,0.0,0.0,0.0,0.0,0.0,0.0,0.0,0.0,0.0,0.0,0.0,0.0,-4.4378,-4.7609,-5.0545,-5.1022,-5.1059,-5.0949,-5.1646,-5.2123,-5.2123,-5.2858,-5.3314,-5.3314,-5.3445,-5.3482,-5.3482,0.0,0.0,0.0,0.0,-5.5354,-5.5486,-5.5486,-5.5133,-5.4546,-5.4546,-5.4179,-5.3482,-5.4216,-5.4546,-5.4583,-5.528,-5.5574,-5.5574,-5.5574,-5.5485,-5.5542,-5.7084,-5.7657,-5.7584,-5.6887,-5.663,-5.652,-5.5786,0.0,0.0,-5.4459,-5.3814,-5.3053,-5.3053,-5.2895,-5.277,-5.277,-5.277,-5.277,-5.277,-5.277,-5.277,-5.277,-5.277,-5.277,-5.277,-5.277,-5.2987,-5.3711,-5.3856,-5.4074,-5.4798,-5.1914,-4.8605,-4.5743,-4.5924,-4.6106,-4.5273,-4.7699,-4.9271,-4.88,0.0,0.0,-5.1973,-4.9691,-4.9474,-5.2299,-4.9836,-4.7916,-4.7228,-4.7192,-4.5852,-4.2972,-4.2899,-4.436,-4.7344,-4.7344,-4.8529,-5.0629,-4.3951,-4.1952,0.0,0.0,0.0,0.0,0.0,0.0,0.0,0.0,0.0,0.0,0.0,0.0,0.0,0.0,0.0,-4.3884,-4.7829,-5.1022,-5.1683,-5.2344,-5.2491,-5.183,-5.2491,-5.2968,-5.2968,-5.3702,-5.4179,-5.4179,-5.4766,-5.5133,-5.5133,-5.4656,-5.4399,-5.4399,-5.3922,-5.3995,-5.462,-5.462,-5.4876,-5.5354,0.0,0.0,-5.5133,-5.528,-5.5354,-5.5354,-5.5537,-5.553,-5.544,-5.544,-5.5373,-5.5295,-5.561,-5.572,-5.572,-5.5574,-5.5501,-5.5477,-5.5202,-5.501,-5.4878,-5.482,-5.464,-5.4507,-5.4507,-5.446,0.0,-5.4436,-5.4436,-5.4436,-5.4436,-5.4436,-5.4436,-5.4436,-5.4436,-5.4436,-5.4436,-5.4436,-5.4472,-5.4653,-5.4689,-5.4725,-5.487,-5.4255,-5.353,-5.2915,-5.2951,-5.277,-5.1937,-5.2408,-5.1538,-4.8257,-5.0669,-5.143,-4.8858,-5.0452,-5.1828,-5.2444,-5.19,-5.1502,-5.1357,-5.1321,-5.1031,-5.0416,-5.0416,-5.0492,-5.0648,-5.0648,-5.092,-5.1388,-4.9472,-4.9038,0.0,0.0,0.0,0.0,0.0,0.0,0.0,0.0,0.0,0.0,0.0,-3.9423,0.0,0.0,-4.5553,-4.6361,-4.9591,-5.227,-5.3078,-5.3555,-5.3665,-5.3261,-5.3555,-5.3959,-5.4363,-5.4766,-5.484,-5.4436,-5.4766,-5.4803,-5.4436,-5.4399,-5.4399,-5.4399,-5.4399,-5.4583,-5.4987,-5.4987,-5.4987,-5.4987,-5.4987,-5.4803,-5.4399,-5.4803,-5.4987,-5.5023,-5.5449,-5.5552,-5.5485,-5.535,-5.5259,-5.5189,-5.5109,-5.5351,-5.5759,-5.5358,-5.5468,-5.5736,-5.5252,-5.5119,-5.5096,-5.5085,-5.5014,-5.4967,-5.4967,-5.4919,-5.4907,-5.4907,-5.4907,-5.4907,-5.4907,-5.4907,-5.4907,-5.4907,-5.4907,-5.4907,-5.4907,-5.4907,-5.5015,-5.5377,-5.545,-5.5595,-5.5993,-5.6066,-5.5776,-5.5015,-5.4907,-5.4762,-5.4363,-5.4291,-5.353,-5.1538,-5.2733,-5.3059,-5.1466,-5.2408,-5.2915,-5.2516,-5.248,-5.248,-5.248,-5.248,-5.248,-5.248,-5.248,-5.2364,-5.2066,-5.2066,-5.2066,-5.203,-5.1725,-5.175,0.0,0.0,0.0,0.0,0.0,0.0,0.0,0.0,-4.0047,-4.0708,-4.1442,-4.2213,-4.2856,-4.5223,-4.7572,-4.904,-5.1059,-5.2968,-5.4436,-5.462,-5.4693,-5.484,-5.473,-5.484,-5.5317,-5.55,-5.5244,-5.4473,-5.4546,-5.4363,-5.3702,-5.4142,-5.4399,-5.4399,-5.4876,-5.5133,-5.5133,-5.528,-5.5097,-5.462,-5.4803,-5.462,-5.4142,-5.4803,-5.5097,-5.5133,-5.5772,-5.5955,-5.5786,-5.5524,-5.5249,-5.4934,-5.4773,-5.5183,-5.5845,-5.5325,-5.5556,-5.603,-5.5361,-5.5143,-5.5179,-5.5325,-5.5291,-5.5232,-5.5377,-5.5378,-5.5341,-5.5341,-5.5341,-5.5341,-5.5341,-5.5341,-5.5341,-5.5341,-5.5341,-5.5341,-5.5341,-5.5341,-5.5522,-5.6102,-5.621,-5.6428,-5.708,-5.7188,-5.679,-5.5522,-5.5341,-5.5305,-5.5124,-5.5124,-5.5051,-5.4943,-5.4907,-5.4907,-5.4907,-5.4327,-5.3603,-5.277,-5.2733,-5.2661,-5.2516,-5.248,-5.248,-5.248,-5.248,-5.2434,-5.234,-5.234,-5.234,-5.234,-5.234,-5.234,-3.4688,-3.4064,-3.4357,-3.4357,-3.6266,-3.9019,0.0,0.0,-4.4856,-4.7774,-4.9003,-4.9627,-4.9701,-5.0582,-5.161,-5.2527,-5.3482,-5.4436,-5.5317,-5.5464,-5.5721,-5.6455,-5.5904,-5.5207,-5.4583,-5.517,-5.5244,-5.4473,-5.506,-5.5449,-5.5317,-5.473,-5.4399,-5.4399,-5.3812,-5.3482,-5.3482,-5.4179,-5.484,-5.5464,-5.6198,-5.6859,-5.7483,-5.7556,-5.7593,-5.7593,-5.7551,-5.7138,-5.6479,-5.634,-5.5395,-5.4118,-5.4054,-5.4044,-5.4153,-5.4725,-5.4991,-5.5039,-5.4955,-5.4931,-5.5064,-5.5716,-5.5897,-5.6018,-5.6742,-5.696,-5.6935,-5.6935,-5.6935,-5.6935,-5.6935,-5.6935,-5.6935,-5.6935,-5.6935,-5.6935,-5.6935,-5.6935,-5.6971,-5.7043,-5.708,-5.708,-5.7188,-5.7188,-5.7152,-5.6971,-5.6935,-5.6681,-5.5957,-5.5884,-5.5631,-5.4979,-5.4907,-5.4907,-5.4907,-5.4834,-5.4436,-5.3639,-5.3566,-5.3241,-5.2516,-5.248,-5.248,-5.248,-5.248,-5.2233,-5.1712,-5.1712,-5.1712,-5.1712,-5.1712,-5.1712,-3.9313,-3.8065,-3.7551,0.0,-4.2213,-4.3057,-4.6305,-4.7682,-4.8636,-5.0031,-5.0949,-5.1646,-5.2123,-5.2858,-5.3665,0.0,-5.4876,-5.539,-5.6198,-5.5904,-5.5904,-5.6712,-5.6088,-5.5647,-5.5794,-5.5684,-5.5244,-5.4473,-5.4693,-5.4693,-5.4216,-5.3885,-5.4142,-5.506,-5.4766,-5.506,-5.5978,-5.6345,-5.6638,-5.7005,-5.7336,-5.7666,-5.7997,-5.7997,-5.7997,-5.7997,-5.795,-5.7697,-5.7274,-5.7251,-5.6731,-5.6006,-5.5958,-5.5849,-5.5632,-5.4605,-5.4508,-5.4907,-5.4907,-5.4907,-5.4943,-5.5269,-5.5377,-5.5414,-5.5776,-5.5848,-5.5848,-5.5848,-5.5848,-5.5848,-5.5848,-5.5848,-5.5848,-5.5848,-5.5848,-5.5848,-5.5848,-5.5848,-5.5848,-5.5848,-5.5848,-5.5848,-5.5848,-5.5848,-5.5848,-5.5848,-5.6645,-5.708,-5.6717,-5.6681,-5.6573,-5.6283,-5.6247,-5.6066,-5.5595,-5.5522,-5.5196,-5.4436,-5.4399,-5.4037,-5.3241,-5.3204,-5.2987,-5.2516,-5.248,-5.2387,-5.2138,-5.2138,-5.2138,-5.2138,-5.2138,-5.1933,-4.1552,-4.0818,0.0,-4.6214,-4.7021,-4.7021,-4.937,-5.0545,-5.1132,-5.1132,-5.194,-5.2821,-5.3445,-5.4179,-5.4987,-5.5794,-5.5941,-5.6198,-5.7042,-5.6455,-5.6161,-5.6748,-5.5904,-5.55,-5.6088,-5.5611,-5.495,-5.4142,-5.4069,-5.3995,-5.3885,-5.3849,-5.4583,-5.6198,-5.6235,-5.6822,-5.7997,-5.8217,-5.8437,-5.8657,-5.8877,-5.9098,-5.9318,-5.9318,-5.9294,-5.9271,-5.9271,-5.9066,-5.8726,-5.875,-5.8373,-5.7776,-5.7751,-5.7556,-5.7057,-5.5329,-5.4907,-5.516,-5.4979,-5.4762,-5.4617,-5.4834,-5.4762,-5.4617,-5.4834,-5.4907,-5.4907,-5.4907,-5.4907,-5.4907,-5.4907,-5.4907,-5.4907,-5.4907,-5.4907,-5.4907,-5.4907,-5.4907,-5.4907,-5.4907,-5.4907,-5.4907,-5.4907,-5.4907,-5.4907,-5.4907,-5.5848,-5.6573,-5.6573,-5.6573,-5.6573,-5.6573,-5.6573,-5.6391,-5.6029,-5.5993,-5.5776,-5.5233,-5.5196,-5.487,-5.4074,-5.4037,-5.3639,-5.2842,-5.2842,-5.2733,-5.248,-5.248,-5.248,-5.248,-5.248,-5.2293,0.0,0.0,-4.0855,-4.4929,-4.8306,-5.0655,-5.0729,-5.1389,-5.194,-5.194,-5.3225,-5.4326,-5.4363,-5.5023,-5.5831,-5.6638,-5.6748,-5.7042,-5.785,-5.7262,-5.6785,-5.6822,-5.539,-5.4436,0.0,-5.4436,-5.4106,-5.3298,-5.3261,-5.3922,-5.5427,-5.5537,-5.6235,-5.7886,-5.7923,-5.796,-5.7997,-5.8767,-5.9551,-6.0346,-6.1117,-6.1887,-6.2633,-6.2633,-6.2583,-6.2457,-6.2457,-6.1942,-6.1084,-6.1084,-6.0172,-5.8762,-5.8601,-5.809,-5.7375,-5.7166,-5.6609,-5.5848,-5.516,-5.4399,-5.3856,-5.4653,-5.4363,-5.3892,-5.4653,-5.4907,-5.4907,-5.4907,-5.4907,-5.4907,-5.4907,-5.4907,-5.4907,-5.4907,-5.4907,-5.4907,-5.4907,-5.4907,-5.4907,-5.4907,-5.4907,-5.4907,-5.4907,-5.4907,-5.4907,-5.4907,-5.4943,-5.4979,-5.4979,-5.4979,-5.4979,-5.4979,-5.4979,-5.5269,-5.5921,-5.5993,-5.5993,-5.5957,-5.5957,-5.5631,-5.4907,-5.487,-5.4508,-5.3675,-5.3675,-5.3277,-5.248,-5.248,-5.248,-5.248,-5.248,-5.248,0.0,0.0,-4.4709,-4.8269,-5.0362,-5.161,-5.161,-5.2637,-5.3592,-5.3592,-5.2307,-5.1353,-5.1903,-4.9994,-4.9517,-5.3041,-5.3628,-5.4473,-5.6859,-5.6528,-5.5794,-5.528,-5.4252,0.0,0.0,0.0,0.0,-5.3995,-5.4473,-5.5244,-5.6345,-5.6895,-5.7923,-5.9538,-5.9612,-6.0126,-6.119,-6.1423,-6.1716,-6.1998,-6.2291,-6.2548,-6.278,-6.278,-6.278,-6.273,-6.273,-6.2508,-6.2124,-6.2124,-6.1693,-6.1038,-6.1012,-6.0762,-6.0392,-5.9796,-5.9434,-5.8927,-5.708,-5.6247,-5.5993,-5.5703,-5.545,-5.5196,-5.4979,-5.4907,-5.4907,-5.4907,-5.4907,-5.4907,-5.4907,-5.4907,-5.4907,-5.4907,-5.4907,-5.4907,-5.4907,-5.4907,-5.4907,-5.4907,-5.4907,-5.4725,-5.4218,-5.411,-5.3929,-5.3385,-5.4218,-5.4907,-5.4907,-5.4907,-5.4907,-5.4907,-5.4907,-5.5015,-5.5269,-5.5269,-5.5269,-5.5269,-5.574,-5.5667,-5.4943,-5.5377,-5.5269,-5.4508,-5.3965,-5.3566,-5.3277,-5.277,-5.248,-5.248,-5.248,-5.248,0.0,-4.5938,-4.7205,-5.0765,-5.205,-5.2491,-5.2784,-5.3665,-5.4069,-5.2894,-5.0986,-4.928,-4.8343,-4.6287,-4.6214,-5.0802,-5.1793,-5.3115,-5.6345,-5.6088,-5.539,-5.4876,-5.4106,-5.3916,0.0,0.0,0.0,-5.5141,-5.5699,-5.6638,-5.8033,-5.8584,-5.9612,-6.1227,-6.1263,-6.1777,-6.278,-6.278,-6.278,-6.278,-6.278,-6.278,-6.278,-6.278,-6.2755,-6.273,-6.273,-6.2654,-6.2526,-6.2526,-6.2423,-6.2265,-6.2265,-6.2222,-6.2068,-6.1507,-6.1325,-6.0972,-5.8808,-5.7876,-5.755,-5.7043,-5.6645,-5.6319,-5.5884,-5.5522,-5.5305,-5.5305,-5.5088,-5.4907,-5.4907,-5.4907,-5.4907,-5.4907,-5.4907,-5.4907,-5.4907,-5.4907,-5.4907,-5.4907,-5.4907,-5.4762,-5.4218,-5.4146,-5.3965,-5.3422,-5.4255,-5.4689,-5.411,-5.4037,-5.4037,-5.4037,-5.4037,-5.4146,-5.4436,-5.4472,-5.4581,-5.487,-5.5341,-5.5377,-5.4943,-5.5377,-5.5377,-5.4907,-5.4399,-5.4146,-5.4146,-5.3313,-5.2915,-5.2915,-5.2625,-5.248,-4.5205,-4.7406,-4.8397,-5.2286,-5.3277,-5.3518,-5.4289,-5.4326,-5.3335,-5.0215,-4.9224,-4.7755,0.0,0.0,-4.5736,-4.9811,-5.1353,-5.3115,-5.6308,-5.6124,-5.5633,0.0,0.0,0.0,0.0,0.0,0.0,-5.6859,0.0,-5.7997,-6.0346,-6.0493,-6.1227,-6.2743,-6.278,-6.278,-6.2768,-6.267,-6.2695,-6.2695,-6.2695,-6.2695,-6.2695,-6.2695,-6.262,-6.2493,-6.2493,-6.2417,-6.2261,-6.2298,-6.2334,-6.2334,-6.237,-6.2407,-6.2344,-6.2248,-6.2185,-6.194,-6.032,-5.9216,-5.8565,-5.8528,-5.8021,-5.7369,-5.7333,-5.679,-5.6174,-5.6174,-5.5667,-5.5124,-5.5088,-5.5088,-5.5088,-5.5051,-5.5015,-5.5015,-5.5015,-5.5015,-5.5015,-5.5015,-5.4979,-5.4979,-5.4979,-5.4943,-5.4907,-5.4907,-5.4907,-5.4327,-5.277,-5.2552,-5.2552,-5.248,-5.248,-5.2806,-5.3566,-5.3639,-5.3965,-5.4725,-5.4834,-5.4834,-5.4834,-5.487,-5.4907,-5.4907,-5.487,-5.487,-5.4907,-5.411,-5.3711,-5.3748,-5.2951,-5.2552,-4.9517,-5.1646,-5.2784,-5.3849,-5.4546,-5.5023,-5.5244,-5.3445,-5.1463,-5.0655,-4.5663,-4.1148,0.0,0.0,0.0,-4.559,-4.9481,0.0,-5.5537,-5.6235,0.0,-5.484,0.0,-5.6447,-5.7184,-5.8037,0.0,0.0,-5.976,-6.0015,-6.1227,-6.1851,-6.2401,-6.278,-6.278,-6.2511,-6.1924,-6.13,-6.1006,-6.1006,-6.1006,-6.1006,-6.1006,-6.1006,-6.0933,-6.081,-6.081,-6.0736,-6.0646,-6.1163,-6.1365,-6.1402,-6.1887,-6.2087,-6.2087,-6.206,-6.206,-6.1996,-6.1534,-6.1254,-6.0964,-6.0375,-6.005,-5.976,-5.918,-5.8854,-5.8673,-5.8673,-5.8565,-5.8275,-5.7659,-5.7514,-5.7369,-5.6754,-5.6609,-5.6609,-5.6609,-5.6609,-5.6609,-5.6609,-5.6138,-5.5703,-5.5703,-5.5269,-5.4907,-5.4907,-5.4907,-5.4544,-5.353,-5.3385,-5.3168,-5.2552,-5.248,-5.2589,-5.277,-5.2806,-5.2878,-5.3096,-5.3675,-5.4001,-5.4001,-5.4581,-5.4907,-5.4907,-5.4327,-5.4291,-5.4907,-5.411,-5.4001,-5.4581,-5.3784,-5.3385,-5.205,-5.3959,-5.4913,-5.4913,-5.5244,-5.5207,-5.3812,-5.183,-4.937,-4.614,-4.1295,0.0,-3.8102,0.0,0.0,0.0,0.0,0.0,-5.5155,-5.5978,-5.6198,0.0,-5.6785,0.0,-5.8857,-5.9748,-6.0615,0.0,-6.1141,-6.1263,-6.2071,-6.2548,-6.2658,-6.2291,-6.2291,-6.1887,-6.108,-6.0639,-6.0419,-6.0419,-6.0419,-6.0419,-6.0419,-6.031,-6.0262,-6.0188,0.0,-6.0065,-6.0026,-6.0424,-6.058,-6.0617,-6.0986,-6.1141,-6.1151,-6.1461,-6.1543,-6.1615,-6.1897,-6.1978,-6.1906,-6.1471,-6.1326,-6.1245,-6.0783,-6.0412,-6.0122,-6.0122,-5.9868,-5.9506,-5.9035,-5.8927,-5.8818,-5.8347,-5.7985,-5.7732,-5.7732,-5.7442,-5.7188,-5.7188,-5.6826,-5.6536,-5.6536,-5.6174,-5.5921,-5.5921,-5.5921,-5.5631,-5.4798,-5.4436,-5.4037,-5.3603,-5.3241,-5.3023,-5.3023,-5.2697,-5.248,-5.248,-5.2915,-5.3168,-5.3168,-5.3603,-5.4001,-5.4363,-5.3929,-5.411,-5.4907,-5.411,-5.411,-5.487,-5.4074,-5.3892,-5.3592,-5.5133,-5.5757,-5.5757,-5.5831,-5.5023,-5.1573,-4.9848,-4.6966,-3.9974,0.0,-3.5862,-3.7125,-3.6868,-3.9328,-4.8031,0.0,-5.1263,-5.5082,-5.5757,-5.6418,-5.7813,-5.8157,-5.8891,-6.0395,-6.1251,-6.1691,-6.1716,-6.1716,-6.2046,-6.2743,-6.267,-6.2291,-6.1484,-6.1337,-6.0933,-6.0272,-6.0126,-6.0126,-6.0236,-6.0236,-6.0309,-6.0419,-6.0237,-6.0188,-6.0164,-6.004,-5.9965,-5.9939,-6.0049,-6.0049,-5.9939,-6.0049,-6.0049,-6.0012,-6.0612,-6.0814,-6.0897,-6.1598,-6.1833,-6.1833,-6.1978,-6.1978,-6.1978,-6.1978,-6.1507,-6.0964,-6.0964,-6.0484,-5.9905,-5.9796,-5.976,-5.9724,-5.9651,-5.9072,-5.8565,-5.8565,-5.7913,-5.7369,-5.7369,-5.7261,-5.7188,-5.7188,-5.7188,-5.7188,-5.7188,-5.7188,-5.6935,-5.6247,-5.5522,-5.5015,-5.4907,-5.4291,-5.3856,-5.3856,-5.3132,-5.2661,-5.2661,-5.2552,-5.248,-5.248,-5.248,-5.2842,-5.353,-5.353,-5.3929,-5.4762,-5.4037,-5.411,-5.487,-5.4074,-5.4146,-5.5207,-5.5978,-5.6602,-5.6602,-5.7079,-5.6381,-5.183,-4.8086,0.0,0.0,-3.4247,-3.2339,-3.5862,-3.6942,-3.9769,-4.7315,0.0,0.0,0.0,0.0,-5.7666,0.0,0.0,0.0,0.0,0.0,0.0,0.0,0.0,-6.2533,-6.278,-6.2181,-6.1447,-6.0639,-5.9979,-5.9551,-5.9404,-5.8767,-5.8767,-5.9404,-5.9404,-5.9735,-6.0419,-6.0237,-6.0139,-6.0015,-5.9863,0.0,-5.973,-6.0392,-6.0247,-5.9766,-6.0419,-6.0274,-5.9693,-5.9812,-5.9822,-5.9931,-6.0738,-6.1,-6.1136,-6.1761,-6.1978,-6.1978,-6.1978,-6.1906,-6.1761,-6.1761,-6.1688,-6.1435,-6.0747,-6.0593,-6.0448,-5.976,-5.9506,-5.9398,-5.9398,-5.8746,-5.8202,-5.8202,-5.7659,-5.7188,-5.7188,-5.7188,-5.7188,-5.7188,-5.7188,-5.7152,-5.7007,-5.6283,-5.5595,-5.4979,-5.4798,-5.4689,-5.4689,-5.3965,-5.3494,-5.3494,-5.2878,-5.248,-5.248,-5.248,-5.2552,-5.2697,-5.2697,-5.3096,-5.3929,-5.3784,-5.411,-5.487,-5.4074,-5.4146,-5.4179,-5.5537,-5.7409,-5.7409,-5.7703,-5.6271,-4.9738,0.0,0.0,0.0,-3.1788,-3.0931,-3.5459,-3.6229,0.0,-4.4745,0.0,0.0,0.0,0.0,0.0,0.0,0.0,0.0,0.0,0.0,0.0,0.0,0.0,-6.2107,-6.2181,-6.1006,-6.0162,-5.9771,-5.9024,-5.8804,-5.9184,-5.8841,-5.8977,-5.9712,-5.9712,-5.9908,-6.02,-6.004,-5.9976,-5.9863,-5.9771,-5.9667,-5.9651,-6.0013,-5.9977,-5.9651,-6.0013,-5.9941,-5.9651,-6.0086,-5.9977,-5.9724,-6.052,-6.0557,-6.0267,-6.0629,-6.1326,-6.1978,-6.1978,-6.1978,-6.1978,-6.1978,-6.1978,-6.1906,-6.1507,-6.1399,-6.1326,-6.0955,-6.0557,-6.0122,-5.9687,-5.9289,-5.9035,-5.9035,-5.8383,-5.7804,-5.7804,-5.7478,-5.7188,-5.7188,-5.7188,-5.7188,-5.7188,-5.6862,-5.65,-5.6138,-5.5703,-5.5486,-5.5486,-5.4762,-5.4327,-5.4327,-5.3566,-5.3132,-5.3132,-5.2733,-5.248,-5.248,-5.248,-5.2697,-5.3096,-5.3096,-5.3494,-5.4291,-5.3892,-5.4146,-5.3775,-5.5574,-5.7997,-5.7997,-5.7997,-5.5794,-4.7315,-4.4415,0.0,0.0,-2.9879,-3.0454,-3.5165,-3.4894,-3.5958,0.0,-4.4819,0.0,0.0,0.0,0.0,0.0,0.0,0.0,0.0,0.0,0.0,0.0,0.0,0.0,-6.108,-5.9905,-5.9184,-5.9161,-5.8561,-5.8634,-5.937,-5.9577,-6.0005,-6.0651,-6.0834,-6.0966,-6.1022,-6.0919,-6.0867,-6.0867,-6.0735,-6.0682,-6.0682,-6.0448,-6.0267,-6.0122,-5.9941,-5.976,-5.9687,-6.0339,-6.0158,-5.9724,-6.052,-6.0412,-5.9868,-5.9868,-6.0738,-6.1725,-6.1725,-6.1833,-6.1978,-6.1978,-6.1978,-6.1978,-6.1978,-6.1978,-6.1978,-6.1978,-6.1507,-6.0883,-6.0267,-5.9977,-5.9868,-5.9868,-5.9216,-5.8673,-5.8673,-5.7985,-5.7442,-5.7442,-5.7297,-5.7188,-5.7188,-5.7188,-5.7188,-5.7188,-5.6609,-5.6247,-5.6247,-5.5558,-5.516,-5.516,-5.4399,-5.3965,-5.3965,-5.3168,-5.277,-5.277,-5.2589,-5.248,-5.248,-5.248,-5.2806,-5.3422,-5.3422,-5.3856,-5.6748,-5.7703,-5.7997,-5.7997,-5.7997,-5.55,-4.5883,0.0,0.0,-3.1188,-2.9097,-3.0271,-3.438,-3.2656,-3.2999,-4.0141,0.0,-4.1956,0.0,0.0,0.0,0.0,0.0,0.0,0.0,0.0,0.0,0.0,0.0,0.0,-5.9404,-5.9258,-5.9137,-5.9018,-5.9064,-5.9358,-5.9942,-6.0797,-6.1503,-6.2214,-6.2944,-6.3673,-6.4366,-6.4339,-6.4339,-6.4339,-6.4203,-6.4148,0.0,-6.322,-6.244,-6.1688,-6.0991,-6.0267,-5.9615,-5.9687,-5.9651,-5.9724,-6.052,-6.0774,-6.0701,-6.0701,-6.0783,-6.0892,-6.0892,-6.1399,-6.1978,-6.1978,-6.1978,-6.1978,-6.1978,-6.1978,-6.1978,-6.1978,-6.1942,-6.1869,-6.1797,-6.1181,-6.0701,-6.0701,-6.005,-5.9506,-5.9506,-5.8818,-5.8275,-5.8275,-5.7659,-5.7188,-5.7188,-5.7188,-5.7188,-5.7188,-5.7116,-5.708,-5.708,-5.6355,-5.5884,-5.5884,-5.5196,-5.4798,-5.4798,-5.4037,-5.3603,-5.3603,-5.2878,-5.248,-5.248,-5.248,-5.2552,-5.2625,-5.2625,-5.3023,-5.2234,-5.5023,-5.7997,-5.7997,-5.7997,-5.5574,-4.6324,0.0,-4.0891,-3.1641,-2.9354,-2.95,-3.1078,-3.0344,-3.0601,-3.399,0.0,0.0,-4.5773,0.0,0.0,0.0,0.0,0.0,0.0,0.0,0.0,0.0,0.0,0.0,-5.9089,-5.9089,-5.9309,-5.981,-6.0298,-6.1066,-6.2281,-6.2662,-6.3184,-6.3855,-6.4157,-6.4512,-6.4803,-6.4803,-6.4803,-6.4803,-6.4713,-6.4694,0.0,-6.4201,-6.3791,-6.3382,-6.2549,-6.2041,-6.1716,-6.1245,-6.0738,-6.0375,-6.0701,-6.0484,-6.0086,-6.0086,-6.0412,-6.081,-6.081,-6.1027,-6.1362,-6.1833,-6.1978,-6.1978,-6.1978,-6.1978,-6.1978,-6.1978,-6.1978,-6.1978,-6.1978,-6.1725,-6.1507,-6.1507,-6.0883,-6.0339,-6.0339,-5.9651,-5.8963,-5.8456,-5.813,-5.7732,-5.7261,-5.7188,-5.7188,-5.7188,-5.7188,-5.7188,-5.7188,-5.6899,-5.6717,-5.6717,-5.5993,-5.5558,-5.5558,-5.4834,-5.4182,-5.3711,-5.3385,-5.2987,-5.248,-5.248,-5.248,-5.248,-5.248,-5.2661,-4.9224,-5.2747,-5.6492,-5.7703,-5.6932,-5.3849,0.0,0.0,-3.9166,-3.1458,-2.939,-2.8987,-2.8987,-2.8987,-2.9207,-2.9757,0.0,-3.6303,-4.1479,0.0,0.0,0.0,0.0,0.0,0.0,0.0,0.0,0.0,0.0,0.0,-5.9347,-5.9822,-6.0359,-6.0994,-6.1775,-6.2812,-6.4061,-6.437,-6.4719,-6.5168,-6.5387,-6.5496,-6.5524,-6.5551,-6.5578,-6.5578,-6.5578,-6.5524,0.0,-6.5112,-6.4891,-6.4706,-6.388,-6.3418,-6.3128,-6.2549,-6.186,-6.1145,-6.1145,-6.0774,-6.0267,-6.005,-6.0339,-6.081,-6.081,-6.0991,-6.1218,-6.1543,-6.1797,-6.1978,-6.1978,-6.1978,-6.1978,-6.1978,-6.1978,-6.1978,-6.1978,-6.1978,-6.1978,-6.1978,-6.1543,-6.1145,-6.1145,-6.0484,-5.976,-5.9216,-5.8709,-5.8202,-5.7623,-5.7333,-5.7188,-5.7188,-5.7188,-5.7188,-5.7188,-5.7188,-5.7188,-5.7188,-5.6681,-5.6355,-5.6355,-5.5631,-5.4979,-5.4399,-5.4182,-5.3675,-5.2842,-5.2842,-5.2733,-5.248,-5.248,-5.248,-4.9774,-5.2013,-5.3004,-5.7005,-5.4399,-4.9591,0.0,0.0,-3.4981,-3.0014,-2.9023,-2.8987,-2.8987,-2.8987,-2.8987,-2.9023,-2.9721,0.0,-3.5789,0.0,0.0,0.0,0.0,0.0,0.0,0.0,0.0,0.0,0.0,0.0,-6.0152,-6.1689,-6.249,-6.2397,-6.346,-6.4291,-6.4794,-6.5706,-6.6108,-6.597,-6.6773,-6.7174,-6.7174,-6.7378,-6.747,-6.747,-6.747,-6.747,0.0,-6.6251,-6.5783,-6.5711,-6.4742,-6.3889,-6.32,-6.3164,-6.2693,-6.1978,-6.1978,-6.1978,-6.1833,-6.1064,-6.0783,-6.081,-6.081,-6.139,-6.1797,-6.1,-6.139,-6.1978,-6.1978,-6.1978,-6.1978,-6.1978,-6.1978,-6.1978,-6.1978,-6.1978,-6.1978,-6.1978,-6.1978,-6.1978,-6.1978,-6.1326,-6.0774,-6.0774,-5.9434,-5.8383,-5.8383,-5.7695,-5.7188,-5.7188,-5.7188,-5.7188,-5.7188,-5.7188,-5.7188,-5.7188,-5.7188,-5.7188,-5.7188,-5.6428,-5.5957,-5.5957,-5.5269,-5.4508,-5.3675,-5.3675,-5.3277,-5.248,-5.248,-5.248,-4.2066,-4.4525,-4.6489,-4.7755,-4.6948,-4.4525,-3.968,0.0,-3.4908,-3.0014,-2.8987,-2.8987,-2.8987,-2.8987,-2.8987,-2.8987,-2.9207,0.0,0.0,0.0,0.0,0.0,0.0,0.0,0.0,0.0,0.0,0.0,0.0,0.0,-6.1609,-6.2844,-6.3763,-6.4365,-6.5171,-6.595,-6.6647,-6.693,-6.7076,-6.7012,-6.7268,-6.747,-6.7515,-6.7606,-6.7633,-6.7633,-6.7633,-6.7579,-6.747,-6.6983,-6.6705,-6.6518,-6.5576,-6.5048,-6.4722,-6.3599,-6.3019,-6.273,-6.2186,-6.1978,-6.1942,-6.1688,-6.1616,-6.1507,-6.0991,-6.0991,-6.1245,-6.1543,-6.1797,-6.1978,-6.1978,-6.1978,-6.1978,-6.1978,-6.1978,-6.1978,-6.1978,-6.1978,-6.1978,-6.1978,-6.1978,-6.1978,-6.1978,-6.1761,-6.1435,-6.0883,-6.0375,-5.9651,-5.8528,-5.8166,-5.7804,-5.7261,-5.7188,-5.7188,-5.7188,-5.7188,-5.7188,-5.7188,-5.7188,-5.7188,-5.7188,-5.6971,-5.6536,-5.5993,-5.5776,-5.5269,-5.4508,-5.4508,-5.411,-5.3313,-5.277,-5.248,0.0,-3.9717,-4.1605,-4.3111,-4.2139,0.0,0.0,0.0,-3.2669,-2.9647,-2.8987,-2.8987,-2.8987,-2.8987,-2.8987,-2.8987,-2.9244,-3.0797,0.0,0.0,0.0,0.0,0.0,0.0,0.0,0.0,0.0,0.0,0.0,0.0,-6.2876,-6.4203,-6.5296,-6.6182,-6.6616,-6.7066,-6.7552,-6.7579,-6.7579,-6.7579,-6.7579,-6.7606,-6.7687,-6.7687,-6.7687,-6.7687,-6.7687,-6.766,0.0,-6.7294,-6.7154,-6.7004,-6.633,-6.5881,-6.5446,-6.4106,-6.3454,-6.3056,-6.2295,-6.1978,-6.1978,-6.1978,-6.1978,-6.1906,-6.1399,-6.1064,-6.0991,-6.1761,-6.1978,-6.1978,-6.1978,-6.1978,-6.1978,-6.1978,-6.1978,-6.1978,-6.1978,-6.1978,-6.1978,-6.1978,-6.1978,-6.1978,-6.1978,-6.1978,-6.1833,-6.1326,-6.0991,-6.0448,-5.9434,-5.8782,-5.8202,-5.7695,-5.7369,-5.7188,-5.7188,-5.7188,-5.7188,-5.7188,-5.7188,-5.7188,-5.7188,-5.7188,-5.6971,-5.6464,-5.6428,-5.6066,-5.5305,-5.5051,-5.4653,-5.4146,-5.3313,-5.2951,0.0,-3.6905,0.0,0.0,0.0,0.0,0.0,0.0,0.0,-2.8987,-2.8987,-2.8987,-2.8987,-2.8987,-2.8987,-2.8987,-2.9684,0.0,0.0,0.0,0.0,0.0,0.0,0.0,0.0,0.0,0.0,0.0,0.0,0.0,-6.3946,-6.5579,-6.688,-6.765,-6.7687,-6.7687,-6.7687,-6.7687,-6.7687,-6.7687,-6.7687,-6.7687,-6.7687,-6.7687,-6.7687,0.0,-6.7687,-6.766,-6.7633,-6.7322,-6.7182,-6.7154,-6.6903,-6.6351,-6.5591,-6.4758,-6.3961,-6.3164,-6.2367,-6.205,-6.1978,-6.1978,-6.1978,-6.1978,-6.1978,-6.1471,-6.1064,-6.1761,-6.1978,-6.1978,-6.1978,-6.1978,-6.1978,-6.1978,-6.1978,-6.1978,-6.1978,-6.1978,-6.1978,-6.1978,-6.1978,-6.1978,-6.1978,-6.1978,-6.1978,-6.1978,-6.139,-6.0856,-6.081,-5.9506,-5.8528,-5.842,-5.7732,-5.7261,-5.7188,-5.7188,-5.7188,-5.7188,-5.7188,-5.7188,-5.7188,-5.7188,-5.7188,-5.7188,-5.7188,-5.6826,-5.6066,-5.5341,-5.4979,-5.4979,-5.4098,-5.3736,-3.0638,0.0,-3.1225,-3.2179,-3.1555,-3.0711,0.0,0.0,0.0,0.0,0.0,0.0,0.0,-2.8987,-2.8987,-2.8987,-2.9684,-3.0467,0.0,0.0,0.0,0.0,0.0,0.0,0.0,0.0,0.0,0.0,0.0,-6.3298,-6.4752,-6.5883,-6.688,-6.765,-6.7687,-6.7687,-6.7687,-6.7687,-6.7687,-6.7687,-6.7687,-6.7687,-6.7687,-6.7579,-6.7524,-6.7524,-6.7378,-6.7322,-6.7294,-6.7126,-6.704,-6.7011,-6.6845,-6.6677,-6.6424,-6.5627,-6.4794,-6.3997,-6.32,-6.2512,-6.1978,-6.1978,-6.1978,-6.1978,-6.1978,-6.1869,-6.1761,-6.1942,-6.1978,-6.1978,-6.1978,-6.1978,-6.1978,-6.1978,-6.1978,-6.1978,-6.1978,-6.1978,-6.1978,-6.1978,-6.1978,-6.1978,-6.1978,-6.1978,-6.1978,-6.1978,-6.1833,-6.1471,-6.0883,-6.0484,-5.976,-5.8528,-5.8239,-5.7876,-5.7261,-5.7188,-5.7188,-5.7188,-5.7188,-5.7188,-5.7188,-5.7188,-5.7188,-5.7188,-5.7188,-5.7116,-5.6899,-5.6138,-5.574,-5.5703,-5.445,-5.3862,-2.8987,-2.8987,-2.8987,-2.8987,-2.8987,-2.8987,-2.8987,0.0,0.0,0.0,0.0,0.0,0.0,0.0,0.0,0.0,-3.2339,0.0,0.0,0.0,0.0,0.0,0.0,0.0,0.0,0.0,0.0,0.0,0.0,-6.4087,-6.4981,-6.6179,-6.7021,-6.746,-6.7552,-6.7633,-6.7687,-6.7687,-6.7687,-6.7687,-6.7633,-6.7606,-6.7606,-6.7442,-6.7359,-6.7359,-6.7238,-6.721,-6.721,-6.704,-6.7019,-6.699,-6.6845,-6.6786,-6.6714,-6.5881,-6.5084,-6.4287,-6.3454,-6.2657,-6.1978,-6.1978,-6.1978,-6.1978,-6.1978,-6.1978,-6.1978,-6.1978,-6.1978,-6.1978,-6.1978,-6.1978,-6.1978,-6.1978,-6.1978,-6.1978,-6.1978,-6.1978,-6.1978,-6.1978,-6.1978,-6.1978,-6.1978,-6.1978,-6.1978,-6.1978,-6.1978,-6.1833,-6.1426,-6.1,-6.0484,-5.9615,-5.8854,-5.8239,-5.7804,-5.7406,-5.7188,-5.7188,-5.7188,-5.7188,-5.7188,-5.7188,-5.7188,-5.7188,-5.7188,-5.7188,-5.7188,-5.6464,-5.6155,-5.6119,-5.4687,-5.4024,-2.9133,-2.917,-2.9133,-2.9023,-2.9097,-2.9133,-2.9023,0.0,0.0,0.0,0.0,0.0,0.0,-3.1127,0.0,0.0,0.0,0.0,0.0,0.0,0.0,0.0,0.0,0.0,0.0,0.0,0.0,0.0,0.0,-6.4885,-6.4981,-6.6418,-6.721,-6.721,-6.7387,-6.7524,-6.7633,-6.766,-6.766,-6.766,-6.7524,-6.7442,-6.7442,-6.7238,-6.7182,-6.7182,0.0,0.0,-6.7126,-6.7048,-6.699,-6.6961,-6.6845,-6.6786,-6.6714,-6.6025,-6.5265,-6.4432,-6.349,-6.2657,-6.1978,-6.1978,-6.1978,-6.1978,-6.1978,-6.1978,-6.1978,-6.1978,-6.1978,-6.1978,-6.1978,-6.1978,-6.1978,-6.1978,-6.1978,-6.1978,-6.1978,-6.1978,-6.1978,-6.1978,-6.1978,-6.1978,-6.1978,-6.1978,-6.1978,-6.1978,-6.1978,-6.1978,-6.1978,-6.1399,-6.0955,-6.0783,-5.9579,-5.8673,-5.842,-5.7768,-5.7333,-5.7188,-5.7188,-5.7188,-5.7188,-5.7188,-5.7188,-5.7188,-5.7188,-5.7188,-5.7188,-5.6582,-5.6311,-5.6284,-5.4873,-5.4209,-2.9831,-3.0026,-2.9843,-2.917,-2.95,-2.9831,-2.917,0.0,0.0,0.0,0.0,0.0,0.0,-3.5349,0.0,0.0,0.0,0.0,0.0,0.0,0.0,0.0,0.0,0.0,0.0,0.0,0.0,0.0,0.0,-6.4992,-6.4981,-6.6418,-6.721,-6.721,-6.7387,-6.7442,-6.7294,-6.7442,-6.7524,-6.7524,-6.7359,-6.7238,-6.7238,-6.7097,-6.7011,-6.7011,0.0,-6.6845,-6.6845,-6.6815,-6.6815,-6.6815,-6.6822,-6.6786,-6.6786,-6.6677,-6.6098,-6.5192,-6.3708,-6.2657,-6.1978,-6.1978,-6.1978,-6.1978,-6.1978,-6.1978,-6.1978,-6.1978,-6.1978,-6.1978,-6.1978,-6.1978,-6.1978,-6.1978,-6.1978,-6.1978,-6.1978,-6.1978,-6.1978,-6.1978,-6.1978,-6.1978,-6.1978,-6.1978,-6.1978,-6.1978,-6.1978,-6.1978,-6.1978,-6.1869,-6.1543,-6.0883,-6.0593,-5.9905,-5.8528,-5.8275,-5.7913,-5.7224,-5.7188,-5.7188,-5.7188,-5.7188,-5.7188,-5.7188,-5.7188,-5.7188,-5.7188,-5.6582,-5.6311,-5.6284,-5.4959,-5.4375,-2.9464,-3.021,-3.1201,-3.2596,-3.1898,-3.076,0.0,0.0,0.0,0.0,0.0,0.0,0.0,0.0,0.0,0.0,0.0,0.0,0.0,0.0,0.0,0.0,0.0,0.0,0.0,0.0,0.0,0.0,0.0,0.0,-6.4776,-6.6167,-6.699,-6.699,-6.7162,-6.719,-6.7097,-6.719,-6.7275,-6.7359,-6.7154,-6.7097,-6.7069,-6.6961,-6.6903,-6.6874,0.0,-6.6786,-6.6786,-6.6786,-6.6786,-6.6786,-6.6786,-6.6786,-6.675,-6.6315,-6.5627,-6.4758,-6.3599,-6.2657,-6.1978,-6.1978,-6.1978,-6.1978,-6.1978,-6.1978,-6.1978,-6.1978,-6.1978,-6.1978,-6.1978,-6.1978,-6.1978,-6.1978,-6.1978,-6.1978,-6.1978,-6.1978,-6.1978,-6.1978,-6.1978,-6.1978,-6.1978,-6.1978,-6.1978,-6.1978,-6.1978,-6.1978,-6.1978,-6.1978,-6.1833,-6.1471,-6.1037,-6.052,-5.976,-5.9289,-5.8528,-5.7261,-5.7188,-5.7188,-5.7188,-5.7188,-5.7188,-5.7188,-5.7188,-5.7188,-5.7188,-5.6248,-5.5773,-5.5808,-5.452,-5.3913,-2.9244,-3.0173,-3.1764,-3.4468,0.0,0.0,0.0,0.0,0.0,0.0,0.0,0.0,0.0,0.0,0.0,0.0,0.0,0.0,0.0,0.0,0.0,0.0,0.0,0.0,0.0,0.0,0.0,0.0,0.0,0.0,-6.462,-6.6004,-6.6786,-6.6786,-6.6932,-6.699,-6.6961,-6.699,-6.704,-6.7154,-6.7048,-6.6961,-6.6961,-6.6845,-6.6786,-6.6786,-6.6786,-6.6786,-6.6786,-6.6786,-6.6786,-6.6786,-6.6786,-6.6786,-6.675,-6.6098,-6.5374,-6.4577,-6.3744,-6.2947,-6.2259,-6.205,-6.1978,-6.1978,-6.1978,-6.1978,-6.1978,-6.1978,-6.1978,-6.1978,-6.1978,-6.1978,-6.1978,-6.1978,-6.1978,-6.1978,-6.1978,-6.1978,-6.1978,-6.1978,-6.1978,-6.1978,-6.1978,-6.1978,-6.1978,-6.1978,-6.1978,-6.1978,-6.1978,-6.1978,-6.1978,-6.1978,-6.1435,-6.1,-6.0846,-6.0086,-5.8999,-5.755,-5.7297,-5.7188,-5.7188,-5.7188,-5.7188,-5.7188,-5.7188,-5.7188,-5.7188,-5.6075,-5.5513,-5.5373,-5.4237,-5.3651,-2.9916,-3.021,-3.0503,-3.1494,-3.4981,0.0,-4.1972,-4.2633,0.0,-4.2633,0.0,0.0,0.0,0.0,0.0,0.0,0.0,0.0,0.0,0.0,0.0,0.0,0.0,0.0,0.0,0.0,0.0,0.0,0.0,0.0,-6.4592,-6.6004,-6.6786,-6.6786,-6.6932,-6.6932,-6.6815,-6.6932,-6.6983,-6.6983,-6.6874,-6.6786,-6.6786,-6.6786,-6.6786,-6.6786,-6.6786,-6.6786,-6.6786,-6.6786,-6.6786,-6.6786,-6.6786,-6.6786,-6.6786,-6.675,-6.6207,-6.541,-6.4577,-6.378,-6.2983,-6.2259,-6.1978,-6.1978,-6.1978,-6.1978,-6.1978,-6.1978,-6.1978,-6.1978,-6.1978,-6.1978,-6.1978,-6.1978,-6.1978,-6.1978,-6.1978,-6.1978,-6.1978,-6.1978,-6.1978,-6.1978,-6.1978,-6.1978,-6.1978,-6.1978,-6.1978,-6.1978,-6.1978,-6.1978,-6.1978,-6.1978,-6.1942,-6.1616,-6.0856,-6.0086,-5.9253,-5.8383,-5.7623,-5.7188,-5.7188,-5.7188,-5.7188,-5.7188,-5.7188,-5.7188,-5.7188,-5.6555,-5.5915,-5.5402,-5.4672,-5.4044,-2.9354,-3.2045,-3.5399,-3.8227,-4.1075,0.0,0.0,-4.2837,-4.5002,-4.5002,-4.5002,0.0,0.0,0.0,0.0,0.0,0.0,0.0,0.0,0.0,0.0,0.0,0.0,0.0,0.0,0.0,0.0,0.0,0.0,0.0,-6.448,-6.5946,-6.6786,-6.6786,-6.6932,-6.699,-6.6932,-6.699,-6.704,-6.7126,-6.7019,-6.6874,-6.6786,-6.6874,-6.6874,-6.6786,-6.6786,-6.6786,-6.6786,-6.6786,-6.6786,-6.6786,-6.6786,-6.6786,-6.6786,-6.6786,-6.6279,-6.5555,-6.5229,-6.4287,-6.3128,-6.2838,-6.2404,-6.1978,-6.1978,-6.1978,-6.1978,-6.1978,-6.1978,-6.1978,-6.1978,-6.1978,-6.1978,-6.1978,-6.1978,-6.1978,-6.1978,-6.1978,-6.1978,-6.1978,-6.1978,-6.1978,-6.1978,-6.1978,-6.1978,-6.1978,-6.1978,-6.1978,-6.1978,-6.1978,-6.1978,-6.1978,-6.1978,-6.1869,-6.1543,-6.081,-6.0231,-5.9905,-5.8673,-5.7732,-5.7224,-5.7188,-5.7188,-5.7188,-5.7188,-5.7188,-5.7188,-5.6582,-5.6174,-5.595,-5.5308,-5.4672,-2.939,-3.333,-3.8153,-4.0907,0.0,0.0,-4.3277,-4.4488,-4.6654,-4.7939,-4.9003,0.0,0.0,0.0,0.0,0.0,0.0,0.0,0.0,0.0,0.0,0.0,0.0,0.0,0.0,0.0,0.0,0.0,0.0,-6.4509,-6.4396,-6.5917,-6.6786,-6.6786,-6.6932,-6.7019,-6.7019,-6.704,-6.7097,-6.721,-6.7097,-6.6983,-6.6874,-6.6961,-6.6932,-6.6786,-6.6786,-6.6786,-6.6786,-6.6786,-6.6786,-6.6786,-6.6786,-6.6786,-6.6786,-6.6786,-6.646,-6.5953,-6.57,-6.4867,-6.3852,-6.3345,-6.2838,-6.2331,-6.2087,-6.1978,-6.1978,-6.1978,-6.1978,-6.1978,-6.1978,-6.1978,-6.1978,-6.1978,-6.1978,-6.1978,-6.1978,-6.1978,-6.1978,-6.1978,-6.1978,-6.1978,-6.1978,-6.1978,-6.1978,-6.1978,-6.1978,-6.1978,-6.1978,-6.1978,-6.1978,-6.1978,-6.1978,-6.1978,-6.1978,-6.1471,-6.11,-6.0846,-5.976,-5.8673,-5.7623,-5.7587,-5.7442,-5.7188,-5.7188,-5.7188,-5.7188,-5.6803,-5.6474,-5.6284,-5.5894,-5.5219,-3.0246,-3.3844,-3.7639,0.0,0.0,0.0,-5.0839,-4.8911,-4.8287,-5.2286,0.0,-5.6748,-5.2747,0.0,0.0,0.0,0.0,0.0,0.0,0.0,0.0,0.0,0.0,0.0,0.0,0.0,0.0,0.0,0.0,-6.4396,-6.4396,-6.5917,-6.6786,-6.6786,-6.6932,-6.6983,-6.6983,-6.7126,-6.721,-6.721,-6.721,-6.7126,-6.7019,-6.7019,-6.6932,-6.6786,-6.6786,-6.6786,-6.6786,-6.6786,-6.6786,-6.6786,-6.6786,-6.6786,-6.6786,-6.6786,-6.6786,-6.6677,-6.5881,-6.5591,-6.5337,-6.3744,-6.32,-6.3056,-6.2259,-6.2014,-6.1978,-6.1978,-6.1978,-6.1978,-6.1978,-6.1978,-6.1978,-6.1978,-6.1978,-6.1978,-6.1978,-6.1978,-6.1978,-6.1978,-6.1978,-6.1978,-6.1978,-6.1978,-6.1978,-6.1978,-6.1978,-6.1978,-6.1978,-6.1978,-6.1978,-6.1978,-6.1978,-6.1978,-6.1978,-6.1978,-6.1652,-6.0856,-6.081,-6.0086,-5.8492,-5.842,-5.8021,-5.7224,-5.7188,-5.7188,-5.7188,-5.7188,-5.6907,-5.6311,-5.6311,-5.5629,-3.4504,-4.0524,0.0,-4.6874,0.0,0.0,0.0,-5.1499,0.0,0.0,-5.3775,-5.6932,-5.3482,0.0,0.0,0.0,0.0,0.0,0.0,0.0,0.0,0.0,0.0,0.0,0.0,0.0,0.0,0.0,0.0,-6.4396,-6.4396,-6.5917,-6.6845,-6.6932,-6.7069,-6.721,-6.7331,-6.7387,-6.7414,-6.7414,-6.7414,-6.7275,-6.7019,-6.7019,-6.6932,-6.6786,-6.6786,-6.6786,-6.6786,-6.6786,-6.6786,-6.6786,-6.6786,-6.6786,-6.6786,-6.6786,-6.6786,-6.6786,-6.6533,-6.6062,-6.5518,-6.5048,-6.4106,-6.3164,-6.2911,-6.244,-6.1978,-6.1978,-6.1978,-6.1978,-6.1978,-6.1978,-6.1978,-6.1978,-6.1978,-6.1978,-6.1978,-6.1978,-6.1978,-6.1978,-6.1978,-6.1978,-6.1978,-6.1978,-6.1978,-6.1978,-6.1978,-6.1978,-6.1978,-6.1978,-6.1978,-6.1978,-6.1978,-6.1978,-6.1978,-6.1978,-6.1906,-6.1652,-6.1616,-6.0919,-5.9325,-5.9253,-5.8854,-5.8058,-5.8058,-5.7768,-5.7188,-5.7188,-5.6907,-5.6311,-5.6311,-5.5629,-3.7184,-4.4121,0.0,-5.1279,-5.2821,-5.4069,-5.2968,0.0,0.0,0.0,0.0,-5.7409,-5.5464,0.0,0.0,0.0,0.0,0.0,0.0,0.0,0.0,0.0,0.0,0.0,0.0,0.0,0.0,0.0,-6.3546,-6.4396,-6.4396,-6.5917,-6.6815,-6.6932,-6.7097,-6.7238,-6.7303,-6.7414,-6.7442,-6.7387,-6.7331,-6.719,-6.6983,-6.704,-6.699,-6.6786,-6.6786,-6.6786,-6.6786,-6.6786,-6.6786,-6.6786,-6.6786,-6.6786,-6.6786,-6.6786,-6.6786,-6.6786,-6.6786,-6.6496,-6.6025,-6.57,-6.4939,-6.4033,-6.3382,-6.2875,-6.2404,-6.2087,-6.1978,-6.1978,-6.1978,-6.1978,-6.1978,-6.1978,-6.1978,-6.1978,-6.1978,-6.1978,-6.1978,-6.1978,-6.1978,-6.1978,-6.1978,-6.1978,-6.1978,-6.1978,-6.1978,-6.1978,-6.1978,-6.1978,-6.1978,-6.1978,-6.1978,-6.1978,-6.1978,-6.1978,-6.1978,-6.1978,-6.1978,-6.1543,-6.0593,-5.9989,-5.9303,-5.8511,-5.8231,-5.7699,-5.6904,-5.6904,-5.6597,-5.595,-5.5915,-5.5361,-3.8872,0.0,0.0,-5.2454,-5.528,0.0,-5.3371,-5.3115,-5.3424,-5.2763,0.0,-5.7923,0.0,0.0,0.0,0.0,0.0,0.0,0.0,0.0,0.0,0.0,0.0,0.0,0.0,0.0,0.0,0.0,-6.349,-6.4396,-6.4396,-6.5917,-6.6822,-6.6815,-6.704,-6.7126,-6.7011,-6.7331,-6.7387,-6.7182,-6.7069,-6.7019,-6.699,-6.7097,-6.7011,-6.6786,-6.6786,-6.6786,-6.6786,-6.6786,-6.6786,-6.6786,-6.6786,-6.6786,-6.6786,-6.6786,-6.6786,-6.6786,-6.6786,-6.6786,-6.6677,-6.5953,-6.5663,-6.5337,-6.3852,-6.3309,-6.3056,-6.2331,-6.205,-6.1978,-6.1978,-6.1978,-6.1978,-6.1978,-6.1978,-6.1978,-6.1978,-6.1978,-6.1978,-6.1978,-6.1978,-6.1978,-6.1978,-6.1978,-6.1978,-6.1978,-6.1978,-6.1978,-6.1978,-6.1978,-6.1978,-6.1978,-6.1978,-6.1978,-6.1978,-6.1978,-6.1978,-6.1923,-6.1923,-6.1895,-6.184,-6.0662,-5.9588,-5.8745,-5.8124,-5.7403,-5.6601,-5.6531,-5.6145,-5.5419,-5.5278,-5.4883,-4.1735,-4.7572,0.0,0.0,-5.7373,-5.7776,-5.6895,-5.6822,-5.5354,-4.9571,0.0,0.0,0.0,0.0,0.0,0.0,0.0,0.0,0.0,0.0,0.0,0.0,0.0,0.0,0.0,0.0,0.0,0.0,-6.349,-6.4396,-6.4396,-6.5917,-6.6845,-6.6961,-6.6983,-6.7069,-6.7154,-6.7238,-6.7182,-6.704,-6.7126,-6.704,-6.6845,-6.6874,-6.6845,-6.6786,-6.6786,-6.6786,-6.6786,-6.6786,-6.6786,-6.6786,-6.6786,-6.6786,-6.6786,-6.6786,-6.6786,-6.6786,-6.6786,-6.6786,-6.6786,-6.6605,-6.6098,-6.5518,-6.5192,-6.4178,-6.3164,-6.2983,-6.2476,-6.1978,-6.1978,-6.1978,-6.1978,-6.1978,-6.1978,-6.1978,-6.1978,-6.1978,-6.1978,-6.1978,-6.1978,-6.1978,-6.1978,-6.1978,-6.1978,-6.1978,-6.1978,-6.1978,-6.1978,-6.1978,-6.1978,-6.1978,-6.1978,-6.1978,-6.1978,-6.1978,-6.1776,-6.1221,-6.1192,-6.0986,-6.0437,-6.1142,-6.0904,-5.9565,-5.9384,-5.8668,-5.7377,-5.6776,-5.6147,-5.5479,-5.4887,-5.4267,-4.2873,0.0,0.0,-5.7005,0.0,-5.7997,-5.7997,-5.7997,0.0,0.0,0.0,0.0,0.0,0.0,0.0,0.0,0.0,0.0,0.0,0.0,0.0,0.0,0.0,0.0,0.0,0.0,0.0,0.0,-6.349,-6.4396,-6.4396,-6.5917,-6.6815,-6.6903,-6.699,-6.6983,-6.7019,-6.7069,-6.7011,-6.6903,-6.699,-6.6932,-6.6786,-6.6786,-6.6786,-6.6786,-6.6786,-6.6786,-6.6786,-6.6786,-6.6786,-6.6786,-6.6786,-6.6786,-6.6786,-6.6786,-6.6786,-6.6786,-6.6786,-6.6786,-6.6786,-6.6786,-6.6533,-6.6098,-6.5736,-6.5011,-6.4178,-6.3418,-6.2911,-6.2476,-6.2087,-6.1978,-6.1978,-6.1978,-6.1978,-6.1978,-6.1978,-6.1978,-6.1978,-6.1978,-6.1978,-6.1978,-6.1978,-6.1978,-6.1978,-6.1978,-6.1978,-6.1978,-6.1978,-6.1978,-6.1978,-6.1978,-6.1978,-6.1978,-6.1978,-6.1978,-6.172,-6.1045,-6.1016,-6.0681,-6.003,-6.0686,-6.0503,-5.9401,-5.9082,-5.8309,-5.7219,-5.684,-5.6296,-5.5586,-5.4834,-5.4327,-4.1846,0.0,-5.1977,-5.6785,-5.7997,0.0,-5.7997,0.0,0.0,0.0,0.0,0.0,0.0,0.0,0.0,0.0,0.0,0.0,0.0,0.0,0.0,0.0,0.0,0.0,0.0,0.0,0.0,0.0,-6.349,-6.4396,-6.4396,-6.5917,-6.6786,-6.6786,-6.6903,-6.6903,-6.6786,-6.6903,-6.6903,-6.6786,-6.6786,-6.6786,-6.6786,-6.6786,-6.6786,-6.6786,-6.6786,-6.6786,-6.6786,-6.6786,-6.6786,-6.6786,-6.6786,-6.6786,-6.6786,-6.6786,-6.6786,-6.6786,-6.6786,-6.6786,-6.6786,-6.6786,-6.6786,-6.6677,-6.6025,-6.57,-6.5301,-6.3997,-6.349,-6.32,-6.244,-6.2223,-6.2159,-6.2014,-6.1978,-6.1978,-6.1978,-6.1978,-6.1978,-6.1978,-6.1978,-6.1978,-6.1978,-6.1978,-6.1978,-6.1978,-6.1978,-6.1978,-6.1978,-6.1978,-6.1978,-6.1978,-6.1978,-6.1978,-6.1978,-6.1978,-6.172,-6.1045,-6.0897,-6.0529,-5.9838,-5.9709,-5.9347,-5.8737,-5.8315,-5.7722,-5.7002,-5.6867,-5.6494,-5.5886,-5.5141,-5.4769,0.0,0.0,-5.1977,0.0,-5.7997,-5.7997,0.0,0.0,0.0,0.0,0.0,0.0,0.0,0.0,0.0,0.0,0.0,0.0,0.0,0.0,0.0,0.0,0.0,0.0,0.0,0.0,0.0,0.0,-6.349,-6.4396,-6.4396,-6.5917,-6.6786,-6.6786,-6.6815,-6.6815,-6.6786,-6.6815,-6.6815,-6.6786,-6.6786,-6.6786,-6.6786,-6.6786,-6.6786,-6.6786,-6.6786,-6.6786,-6.6786,-6.6786,-6.6786,-6.6786,-6.6786,-6.6786,-6.6786,-6.6786,-6.6786,-6.6786,-6.6786,-6.6786,-6.6786,-6.6786,-6.6786,-6.6786,-6.6677,-6.6134,-6.5555,-6.5337,-6.4758,-6.4033,-6.3237,-6.3019,-6.2875,-6.2159,-6.1978,-6.1978,-6.1978,-6.1978,-6.1978,-6.1978,-6.1978,-6.1978,-6.1978,-6.1978,-6.1978,-6.1978,-6.1978,-6.1978,-6.1978,-6.1978,-6.1978,-6.1978,-6.1978,-6.1978,-6.1978,-6.1978,-6.172,-6.1045,-6.0437,-5.9806,-5.9113,-5.8493,-5.8137,-5.8063,-5.8528,-5.8425,-5.7746,-5.7103,-5.6765,-5.663,-5.5919,-5.5581,-3.573,-4.3754,-5.1426,0.0,-5.6308,0.0,0.0,0.0,0.0,0.0,0.0,0.0,0.0,0.0,0.0,0.0,0.0,0.0,0.0,0.0,0.0,0.0,0.0,0.0,0.0,0.0,0.0,0.0,-6.349,-6.4396,-6.4396,-6.5917,-6.6786,-6.6786,-6.6786,-6.6786,-6.6786,-6.6786,-6.6786,-6.6786,-6.6786,-6.6786,-6.6786,-6.6786,-6.6786,-6.6786,-6.6786,-6.6786,-6.6786,-6.6786,-6.6786,-6.6786,-6.6786,-6.6786,-6.6786,-6.6786,-6.6786,-6.6786,-6.6786,-6.6786,-6.6786,-6.6786,-6.6786,-6.6786,-6.6786,-6.6569,-6.617,-6.5736,-6.5337,-6.4867,-6.407,-6.3526,-6.3092,-6.2766,-6.2331,-6.1978,-6.1978,-6.1978,-6.1978,-6.1978,-6.1978,-6.1978,-6.1978,-6.1978,-6.1978,-6.1978,-6.1978,-6.1978,-6.1978,-6.1978,-6.1978,-6.1978,-6.1978,-6.1978,-6.1978,-6.1978,-6.172,-6.1045,-6.0711,-6.0027,-5.8977,-5.8599,-5.8281,-5.7918,-5.8209,-5.8209,-5.7881,-5.7577,-5.7408,-5.7408,-5.6664,-5.6325,0.0,0.0,-4.7865,-5.0912,0.0,0.0,0.0,0.0,0.0,0.0,0.0,0.0,0.0,0.0,0.0,0.0,0.0,0.0,0.0,0.0,0.0,0.0,0.0,0.0,0.0,0.0,0.0,0.0,-6.3518,-6.4396,-6.4396,-6.5917,-6.6786,-6.6786,-6.6786,-6.6786,-6.6786,-6.6786,-6.6786,-6.6786,-6.6786,-6.6786,-6.6786,-6.6786,-6.6786,-6.6786,-6.6786,-6.6786,-6.6786,-6.6786,-6.6786,-6.6786,-6.6786,-6.6786,-6.6786,-6.6786,-6.6786,-6.6786,-6.6786,-6.6786,-6.6786,-6.6786,-6.6786,-6.6786,-6.6786,-6.6786,-6.6677,-6.6062,-6.5917,-6.5736,-6.4903,-6.4251,-6.3744,-6.3526,-6.2875,-6.2259,-6.2014,-6.1978,-6.1978,-6.1978,-6.1978,-6.1978,-6.1978,-6.1978,-6.1978,-6.1978,-6.1978,-6.1978,-6.1978,-6.1978,-6.1978,-6.1978,-6.1978,-6.1978,-6.1978,-6.1978,-6.1812,-6.1315,-6.1104,-6.0468,-5.9212,-5.9011,-5.8564,-5.7918,-5.7881,-5.7881,-5.7881,-5.7881,-5.7881,-5.7881,-5.734,-5.707,0.0,-3.6707,0.0,0.0,0.0,0.0,0.0,0.0,0.0,0.0,0.0,0.0,0.0,0.0,0.0,0.0,0.0,0.0,0.0,0.0,0.0,0.0,0.0,0.0,0.0,0.0,0.0,0.0,-6.3574,-6.4396,-6.4396,-6.5917,-6.6786,-6.6786,-6.6786,-6.6786,-6.6786,-6.6786,-6.6786,-6.6786,-6.6786,-6.6786,-6.6786,-6.6786,-6.6786,-6.6786,-6.6786,-6.6786,-6.6786,-6.6786,-6.6786,-6.6786,-6.6786,-6.6786,-6.6786,-6.6786,-6.6786,-6.6786,-6.6786,-6.6786,-6.6786,-6.6786,-6.6786,-6.6786,-6.6786,-6.6786,-6.6786,-6.675,-6.675,-6.6569,-6.5736,-6.5518,-6.5265,-6.4504,-6.3708,-6.2911,-6.2186,-6.1978,-6.1978,-6.1978,-6.1978,-6.1978,-6.1978,-6.1978,-6.1978,-6.1978,-6.1978,-6.1978,-6.1978,-6.1978,-6.1978,-6.1978,-6.1978,-6.1978,-6.1978,-6.1978,-6.1978,-6.195,-6.1343,-6.0681,-5.9966,-5.9246,-5.8564,-5.7918,-5.7881,-5.7881,-5.7881,-5.7881,-5.7881,-5.7881,-5.7848,-5.7814,0.0,0.0,0.0,0.0,0.0,0.0,0.0,0.0,0.0,0.0,0.0,0.0,0.0,0.0,0.0,0.0,0.0,0.0,0.0,0.0,0.0,0.0,0.0,0.0,0.0,0.0,0.0,0.0,-6.3574,-6.4396,-6.4396,-6.5917,-6.6786,-6.6786,-6.6786,-6.6786,-6.6786,-6.6786,-6.6786,-6.6786,-6.6786,-6.6786,-6.6786,-6.6786,-6.6786,-6.6786,-6.6786,-6.6786,-6.6786,-6.6786,-6.6786,-6.6786,-6.6786,-6.6786,-6.6786,-6.6786,-6.6786,-6.6786,-6.6786,-6.6786,-6.6786,-6.6786,-6.6786,-6.6786,-6.6786,-6.6786,-6.6786,-6.6786,-6.6786,-6.675,-6.646,-6.5989,-6.541,-6.4577,-6.4178,-6.3889,-6.3599,-6.273,-6.1978,-6.1978,-6.1978,-6.1978,-6.1978,-6.1978,-6.1978,-6.1978,-6.1978,-6.1978,-6.1978,-6.1978,-6.1978,-6.1978,-6.1978,-6.1978,-6.1978,-6.1978,-6.1978,-6.1978,-6.1748,-6.1133,-6.003,-5.9741,-5.9045,-5.7918,-5.7881,-5.7881,-5.7881,-5.7881,-5.7881,-5.7881,-5.7881,-5.7881,-2.9647,0.0,0.0,0.0,0.0,0.0,0.0,0.0,0.0,0.0,0.0,0.0,0.0,0.0,0.0,0.0,0.0,0.0,0.0,0.0,0.0,0.0,0.0,0.0,0.0,0.0,0.0,0.0,-6.3602,0.0,-6.4396,-6.5917,-6.6786,-6.6786,-6.6786,-6.6786,-6.6786,-6.6786,-6.6786,-6.6786,-6.6786,-6.6786,-6.6786,-6.6786,-6.6786,-6.6786,-6.6786,-6.6786,-6.6786,-6.6786,-6.6786,-6.6786,-6.6786,-6.6786,-6.6786,-6.6786,-6.6786,-6.6786,-6.6786,-6.6786,-6.6786,-6.6786,-6.6786,-6.6786,-6.6786,-6.6786,-6.6786,-6.6786,-6.6786,-6.6786,-6.6786,-6.6388,-6.5808,-6.4975,-6.4794,-6.4722,-6.4468,-6.3563,-6.273,-6.2476,-6.2404,-6.2331,-6.205,-6.1978,-6.1978,-6.1978,-6.1978,-6.1978,-6.1978,-6.1978,-6.1978,-6.1978,-6.1978,-6.1923,-6.1692,-6.1664,-6.1579,-6.1343,-6.1315,-6.0837,-5.9676,-5.9644,-5.9079,-5.7918,-5.7881,-5.7881,-5.7881,-5.7881,-5.7881,-5.7881,-5.7881,-5.7881,0.0,0.0,0.0,0.0,0.0,0.0,0.0,0.0,0.0,0.0,0.0,0.0,0.0,0.0,0.0,0.0,0.0,0.0,0.0,0.0,0.0,0.0,0.0,0.0,0.0,0.0,0.0,0.0,-6.362,-6.4359,-6.4396,-6.5917,-6.6786,-6.6786,-6.6786,-6.6786,-6.6786,-6.6786,-6.6786,-6.6786,-6.6786,-6.6786,-6.6786,-6.6786,-6.6786,-6.6786,-6.6786,-6.6786,-6.6786,-6.6786,-6.6786,-6.6786,-6.6786,-6.6786,-6.6786,-6.6786,-6.6786,-6.6786,-6.6786,-6.6786,-6.6786,-6.6786,-6.6786,-6.6786,-6.6786,-6.6786,-6.6786,-6.6786,-6.6786,-6.6786,-6.6786,-6.6786,-6.6605,-6.5808,-6.5627,-6.541,-6.4649,-6.4468,-6.4215,-6.3382,-6.3265,-6.2983,-6.2159,-6.2014,-6.2014,-6.1978,-6.1978,-6.1978,-6.1978,-6.1978,-6.1978,-6.1978,-6.1978,-6.172,-6.1075,-6.1016,-6.0711,-6.0062,-5.9998,-5.9676,-5.8909,-5.8909,-5.8564,-5.7918,-5.7881,-5.7881,-5.7881,-5.7881,-5.7881,-5.7881,-5.7881,-5.7881,-2.8987,0.0,0.0,0.0,0.0,0.0,0.0,0.0,0.0,0.0,0.0,0.0,0.0,0.0,0.0,0.0,0.0,0.0,0.0,0.0,0.0,0.0,0.0,0.0,0.0,0.0,0.0,0.0,-6.3194,-6.3892,-6.4359,-6.5917,-6.6786,-6.6786,-6.6786,-6.6786,-6.6786,-6.6786,-6.6786,-6.6786,-6.6786,-6.6786,-6.6786,-6.6786,-6.6786,-6.6786,-6.6786,-6.6786,-6.6786,-6.6786,-6.6786,-6.6786,-6.6786,-6.6786,-6.6786,-6.6786,-6.6786,-6.6786,-6.6786,-6.6786,-6.6786,-6.6786,-6.6786,-6.6786,-6.6786,-6.6786,-6.6786,-6.6786,-6.6786,-6.6786,-6.6786,-6.6786,-6.675,-6.6533,-6.646,-6.6424,-6.617,-6.6134,-6.5736,-6.4323,-6.407,-6.3816,-6.3019,-6.2875,-6.2657,-6.2087,-6.1978,-6.1978,-6.1978,-6.1978,-6.1978,-6.1978,-6.1978,-6.1923,-6.172,-6.1286,-6.0927,-6.0747,-6.0251,-5.9676,-5.8909,-5.8909,-5.8564,-5.7918,-5.7881,-5.7881,-5.7881,-5.7881,-5.7881,-5.7881,-5.7881,-5.7881,-2.8987,-2.8987,0.0,0.0,0.0,0.0,-3.4835,-3.7221,-4.0744,0.0,0.0,0.0,0.0,0.0,0.0,0.0,0.0,0.0,0.0,0.0,0.0,0.0,0.0,0.0,0.0,-6.2679,-6.2552,-6.2397,-6.3029,-6.3811,-6.483,-6.6098,-6.6786,-6.6786,-6.6786,-6.6786,-6.6786,-6.6786,-6.6786,-6.6786,-6.6786,-6.6786,-6.6786,-6.6786,-6.6786,-6.6786,-6.6786,-6.6786,-6.6786,-6.6786,-6.6786,-6.6786,-6.6786,-6.6786,-6.6786,-6.6786,-6.6786,-6.6786,-6.6786,-6.6786,-6.6786,-6.6786,-6.6786,-6.6786,-6.6786,-6.6786,-6.6786,-6.6786,-6.6786,-6.6786,-6.6786,-6.6786,-6.6786,-6.6786,-6.6786,-6.6786,-6.6786,-6.6786,-6.6424,-6.5156,-6.4903,-6.4649,-6.3816,-6.3418,-6.3019,-6.2585,-6.2223,-6.1978,-6.1978,-6.1978,-6.1978,-6.1978,-6.1748,-6.1458,-6.1198,-6.0529,-5.9995,-5.9706,-5.9347,-5.8909,-5.8493,-5.8493,-5.8281,-5.7918,-5.7881,-5.7881,-5.7881,-5.7881,-5.7881,-5.7881,-5.7881,-5.7881,-2.9023,-2.8987,-2.8987,0.0,0.0,0.0,-3.1654,-3.4945,-3.9276,-4.4672,0.0,0.0,0.0,0.0,0.0,0.0,0.0,0.0,0.0,0.0,0.0,0.0,0.0,0.0,-6.278,-6.2679,-6.2578,-6.2423,-6.3102,-6.4101,-6.5374,-6.6315,-6.6786,-6.6786,-6.6786,-6.6786,-6.6786,-6.6786,-6.6786,-6.6786,-6.6786,-6.6786,-6.6786,-6.6786,-6.6786,-6.6786,-6.6786,-6.6786,-6.6786,-6.6786,-6.6786,-6.6786,-6.6786,-6.6786,-6.6786,-6.6786,-6.6786,-6.6786,-6.6786,-6.6786,-6.6786,-6.6786,-6.6786,-6.6786,-6.6786,-6.6786,-6.6786,-6.6786,-6.6786,-6.6786,-6.6786,-6.6786,-6.6786,-6.6786,-6.6786,-6.6786,-6.6786,-6.6786,-6.6605,-6.5881,-6.5736,-6.5482,-6.4649,-6.3925,-6.3418,-6.32,-6.2585,-6.2087,-6.1895,-6.1895,-6.1868,-6.1812,-6.1221,-6.062,-6.003,-5.9313,-5.8633,-5.8063,-5.7954,-5.7881,-5.7881,-5.7881,-5.7881,-5.7881,-5.7881,-5.7881,-5.7881,-5.7881,-5.7881,-5.7881,-5.7881,-5.7881,0.0,-2.8987,0.0,0.0,-2.9133,0.0,-3.4394,-3.355,-3.4357,0.0,0.0,0.0,0.0,0.0,0.0,0.0,0.0,0.0,0.0,0.0,0.0,0.0,0.0,0.0,-6.278,-6.278,-6.2705,-6.2578,-6.3665,-6.4428,-6.4613,-6.6025,-6.6786,-6.6786,-6.6786,-6.6786,-6.6786,-6.6786,-6.6786,-6.6786,-6.6786,-6.6786,-6.6786,-6.6786,-6.6786,-6.6786,-6.6786,-6.6786,-6.6786,-6.6786,-6.6786,-6.6786,-6.6786,-6.6786,-6.6786,-6.6786,-6.6786,-6.6786,-6.6786,-6.6786,-6.6786,-6.6786,-6.6786,-6.6786,-6.6786,-6.6786,-6.6786,-6.6786,-6.6786,-6.6786,-6.6786,-6.6786,-6.6786,-6.6786,-6.6786,-6.6786,-6.6786,-6.6786,-6.675,-6.6605,-6.6569,-6.6315,-6.5482,-6.5229,-6.4685,-6.3382,-6.3056,-6.2526,-6.1357,-6.1192,-6.0986,-6.0437,-6.0251,-6.0125,-5.9998,-5.9313,-5.8841,-5.8703,-5.8209,-5.7881,-5.7881,-5.7881,-5.7881,-5.7881,-5.7881,-5.7881,-5.7881,-5.7881,-5.7881,-5.7881,-5.7881,-5.7881,0.0,0.0,0.0,-3.021,-3.021,0.0,0.0,-3.2265,-3.2852,-4.0194,0.0,0.0,0.0,0.0,0.0,0.0,0.0,0.0,0.0,0.0,0.0,0.0,0.0,0.0,-6.278,-6.278,-6.2705,-6.25,-6.342,-6.4101,-6.4388,-6.5555,-6.6388,-6.6786,-6.6786,-6.6786,-6.6786,-6.6786,-6.6786,-6.6786,-6.6786,-6.6786,-6.6786,-6.6786,-6.6786,-6.6786,-6.6786,-6.6786,-6.6786,-6.6786,-6.6786,-6.6786,-6.6786,-6.6786,-6.6786,-6.6786,-6.6786,-6.6786,-6.6786,-6.6786,-6.6786,-6.6786,-6.6786,-6.6786,-6.6786,-6.6786,-6.6786,-6.6786,-6.6786,-6.6786,-6.6786,-6.6786,-6.6786,-6.6786,-6.6786,-6.6786,-6.6786,-6.6786,-6.6786,-6.6786,-6.6786,-6.6677,-6.6279,-6.5881,-6.5337,-6.4504,-6.374,-6.2844,-6.1724,-6.1285,-6.0768,-6.01,-5.9676,-5.948,-5.948,-5.8806,-5.8388,-5.8388,-5.8065,-5.7881,-5.7881,-5.7881,-5.7881,-5.7881,-5.7881,-5.7881,-5.7881,-5.7881,-5.7881,-5.7881,-5.7881,-5.7881,0.0,0.0,0.0,0.0,0.0,-3.1568,0.0,0.0,0.0,0.0,0.0,0.0,0.0,0.0,0.0,0.0,0.0,0.0,0.0,0.0,0.0,0.0,0.0,0.0,-6.1569,-6.2365,-6.2679,-6.2397,-6.3056,-6.3721,-6.4388,-6.5156,-6.5953,-6.6786,-6.6786,-6.6786,-6.6786,-6.6786,-6.6786,-6.6786,-6.6786,-6.6786,-6.6786,-6.6786,-6.6786,-6.6786,-6.6786,-6.6786,-6.6786,-6.6786,-6.6786,-6.6786,-6.6786,-6.6786,-6.6786,-6.6786,-6.6786,-6.6786,-6.6786,-6.6786,-6.6786,-6.6786,-6.6786,-6.6786,-6.6786,-6.6786,-6.6786,-6.6786,-6.6786,-6.6786,-6.6786,-6.6786,-6.6786,-6.6786,-6.6786,-6.6786,-6.6786,-6.6786,-6.6786,-6.6786,-6.6786,-6.6786,-6.6786,-6.6279,-6.5772,-6.5627,-6.4537,-6.3398,-6.2363,-6.1584,-6.0782,-5.989,-5.9149,-5.8703,-5.8703,-5.8209,-5.7881,-5.7881,-5.7881,-5.7881,-5.7881,-5.7881,-5.7881,-5.7881,-5.7881,-5.7881,-5.7881,-5.7881,-5.7881,-5.7881,-5.7881,-5.7881,0.0,0.0,0.0,0.0,-3.1935,0.0,0.0,0.0,-3.1764,-3.3023,0.0,0.0,0.0,0.0,0.0,0.0,0.0,0.0,0.0,0.0,0.0,0.0,0.0,0.0,0.0,-6.0713,-6.2679,-6.2397,-6.3136,-6.383,-6.4388,-6.5156,-6.5953,-6.6786,-6.6786,-6.6786,-6.6786,-6.6786,-6.6786,-6.6786,-6.6786,-6.6786,-6.6786,-6.6786,-6.6786,-6.6786,-6.6786,-6.6786,-6.6786,-6.6786,-6.6786,-6.6786,-6.6786,-6.6786,-6.6786,-6.6786,-6.6786,-6.6786,-6.6786,-6.6786,-6.6786,-6.6786,-6.6786,-6.6786,-6.6786,-6.6786,-6.6786,-6.6786,-6.6786,-6.6786,-6.6786,-6.6786,-6.6786,-6.6786,-6.6786,-6.6786,-6.6786,-6.6786,-6.6786,-6.6786,-6.6786,-6.6786,-6.6786,-6.6714,-6.6424,-6.57,-6.5461,-6.4621,-6.2579,-6.1612,-6.0628,-5.9266,-5.8436,-5.8027,-5.8027,-5.7954,-5.7881,-5.7881,-5.7881,-5.7881,-5.7881,-5.7881,-5.7881,-5.7881,-5.7881,-5.7881,-5.7881,-5.7881,-5.7881,-5.7881,-5.7881,-5.7881,0.0,0.0,0.0,0.0,0.0,0.0,-3.3513,0.0,-3.2339,0.0,0.0,0.0,0.0,0.0,0.0,0.0,-3.6399,0.0,0.0,0.0,0.0,0.0,0.0,0.0,0.0,0.0,0.0,-5.8811,-5.926,-5.9863,-6.0873,-6.3454,-6.5482,-6.675,-6.6786,-6.6786,-6.6786,-6.6786,-6.6786,-6.6786,-6.6786,-6.6786,-6.6786,-6.6786,-6.6786,-6.6786,-6.6786,-6.6786,-6.6786,-6.6786,-6.6786,-6.6786,-6.6786,-6.6786,-6.6786,-6.6786,-6.6786,-6.6786,-6.6786,-6.6786,-6.6786,-6.6786,-6.6786,-6.6786,-6.6786,-6.6786,-6.6786,-6.6786,-6.6786,-6.6786,-6.6786,-6.6786,-6.6786,-6.6786,-6.6786,-6.6786,-6.6786,-6.6786,-6.6786,-6.6786,-6.6786,-6.6786,-6.6786,-6.6786,-6.6677,-6.6351,-6.5917,-6.5166,-6.3811,-6.2603,-6.1467,-6.0379,-5.9259,-5.8558,-5.8558,-5.8152,-5.7881,-5.7881,-5.7881,-5.7881,-5.7881,-5.7881,-5.7881,-5.7881,-5.7881,-5.7881,-5.7881,-5.7881,-5.7881,-5.7881,-5.7881,-5.7881,-4.2506,0.0,0.0,0.0,0.0,0.0,0.0,0.0,0.0,0.0,0.0,0.0,0.0,0.0,0.0,0.0,0.0,-3.5936,0.0,0.0,0.0,0.0,0.0,0.0,0.0,0.0,-5.215,-5.4697,-5.4811,-5.5836,-5.8326,-6.1199,-6.3997,-6.6714,-6.6786,-6.6786,-6.6786,-6.6786,-6.6786,-6.6786,-6.6786,-6.6786,-6.6786,-6.6786,-6.6786,-6.6786,-6.6786,-6.6786,-6.6786,-6.6786,-6.6786,-6.6786,-6.6786,-6.6786,-6.6786,-6.6786,-6.6786,-6.6786,-6.6786,-6.6786,-6.6786,-6.6786,-6.6786,-6.6786,-6.6786,-6.6786,-6.6786,-6.6786,-6.6786,-6.6786,-6.6786,-6.6786,-6.6786,-6.6786,-6.6786,-6.6786,-6.6786,-6.6786,-6.6786,-6.6786,-6.6786,-6.6786,-6.6786,-6.6786,-6.6786,-6.6786,-6.6325,-6.5739,-6.501,-6.3616,-6.2402,-6.16,-6.0191,-5.9302,-5.9302,-5.8626,-5.8118,-5.7915,-5.7881,-5.7881,-5.7881,-5.7881,-5.7881,-5.7881,-5.7881,-5.7881,-5.7881,-5.7881,-5.7881,-5.7881,-5.7881,-5.7881,0.0,0.0,0.0,-4.7535,0.0,0.0,0.0,0.0,-3.5188,0.0,0.0,0.0,0.0,0.0,0.0,0.0,0.0,0.0,0.0,0.0,0.0,0.0,0.0,0.0,0.0,-4.926,-5.1642,-5.0837,-5.066,-5.2935,-5.8293,-5.858,-6.11,-6.6641,-6.6786,-6.6786,-6.6786,-6.6786,-6.6786,-6.6786,-6.6786,-6.6786,-6.6786,-6.6786,-6.6786,-6.6786,-6.6786,-6.6786,-6.6786,-6.6786,-6.6786,-6.6786,-6.6786,-6.6786,-6.6786,-6.6786,-6.6786,-6.6786,-6.6786,-6.6786,-6.6786,-6.6786,-6.6786,-6.6786,-6.6786,-6.6786,-6.6786,-6.6786,-6.6786,-6.6786,-6.6786,-6.6786,-6.6786,-6.6786,-6.6786,-6.6786,-6.6786,-6.6786,-6.6786,-6.6786,-6.6786,-6.6786,-6.6786,-6.6786,-6.6786,-6.6786,-6.6757,-6.6512,-6.5756,-6.4402,-6.317,-6.2432,-6.0975,-6.0047,-6.0047,-5.9404,-5.866,-5.7949,-5.7881,-5.7881,-5.7881,-5.7881,-5.7881,-5.7881,-5.7881,-5.7881,-5.7881,-5.7881,-5.7881,-5.7881,-5.7881,-5.7881,0.0,0.0,-5.2894,-5.3739,0.0,0.0,0.0,0.0,0.0,0.0,0.0,0.0,0.0,0.0,0.0,0.0,0.0,0.0,0.0,0.0,0.0,0.0,0.0,0.0,0.0,0.0,0.0,-4.645,-4.6499,-4.8582,-5.3562,-5.6731,-6.0738,-6.5844,-6.6533,-6.6786,-6.6786,-6.6786,-6.6786,-6.6786,-6.6786,-6.6786,-6.6786,-6.6786,-6.6786,-6.6786,-6.6786,-6.6786,-6.6786,-6.6786,-6.6786,-6.6786,-6.6786,-6.6786,-6.6786,-6.6786,-6.6786,-6.6786,-6.6786,-6.6786,-6.6786,-6.6786,-6.6786,-6.6786,-6.6786,-6.6786,-6.6786,-6.6786,-6.6786,-6.6786,-6.6786,-6.6786,-6.6786,-6.6786,-6.6786,-6.6786,-6.6786,-6.6786,-6.6786,-6.6786,-6.6786,-6.6786,-6.6786,-6.6786,-6.6786,-6.6786,-6.6786,-6.6512,-6.5792,-6.4862,-6.3939,-6.319,-6.1794,-6.0892,-6.0892,-6.0182,-5.9404,-5.8693,-5.8626,-5.8423,-5.7915,-5.7881,-5.7881,-5.7881,-5.7881,-5.7881,-5.7881,-5.7881,-5.7881,-5.7881,-5.7881,-5.7881,-5.9281,-5.8988,0.0,-5.9171,-5.528,0.0,-4.8673,0.0,-4.2046,0.0,0.0,0.0,0.0,0.0,0.0,0.0,0.0,0.0,0.0,-3.7052,0.0,0.0,0.0,0.0,0.0,0.0,-4.0492,-4.2768,-4.2537,-4.4964,0.0,-5.4567,-5.917,-6.541,-6.6388,-6.6786,-6.6786,-6.6786,-6.6786,-6.6786,-6.6786,-6.6786,-6.6786,-6.6786,-6.6786,-6.6786,-6.6786,-6.6786,-6.6786,-6.6786,-6.6786,-6.6786,-6.6786,-6.6786,-6.6786,-6.6786,-6.6786,-6.6786,-6.6786,-6.6786,-6.6786,-6.6786,-6.6786,-6.6786,-6.6786,-6.6786,-6.6641,-6.5772,-6.6134,-6.6605,-6.5736,-6.617,-6.6786,-6.6786,-6.6786,-6.6786,-6.6786,-6.6786,-6.6786,-6.6786,-6.6569,-6.6388,-6.6388,-6.6388,-6.646,-6.675,-6.6786,-6.6512,-6.5792,-6.5074,-6.4323,-6.357,-6.2408,-6.1569,-6.1332,-6.0825,-6.0216,-5.9438,-5.9404,-5.9201,-5.8693,-5.8423,-5.8558,-5.9099,-5.8287,-5.8152,-5.866,-5.8152,-5.7881,-5.7881,-5.7881,-5.7881]},{"header":{"parameterUnit":"m.s-1","parameterCategory":1,"la1":30.6,"la2":29.2853,"lo1":-89.7004,"lo2":-87.6739,"dy":0.0162,"dx":0.0183,"nx":112,"ny":82,"refTime":"2023-03-31T06:00:00:Z","depth":0,"parameterNumber":3,"parameterNumberName":"V-component_of_WINDS"},"data":[0.0,0.0,0.0,0.0,0.0,0.0,0.0,0.0,0.0,0.0,0.0,0.0,0.0,0.0,0.0,0.0,0.0,0.0,0.0,0.0,0.0,0.0,0.0,0.0,0.0,0.0,0.0,0.0,0.0,0.0,0.0,0.0,0.0,0.0,0.0,0.0,0.0,0.0,0.0,0.0,0.0,0.0,0.0,0.0,0.0,0.0,0.0,0.0,0.0,0.0,0.0,0.0,0.0,0.0,0.0,0.0,0.0,0.0,0.0,0.0,0.0,0.0,0.0,0.0,0.0,0.0,0.0,0.0,0.0,0.0,0.0,0.0,0.0,0.0,0.0,0.0,0.0,0.0,0.0,0.0,0.0,0.0,0.0,0.0,0.0,0.0,0.0,0.0,0.0,0.0,1.5311,1.5631,1.6032,1.6166,1.5912,1.6602,1.5921,1.3158,0.0,0.0,0.0,0.0,0.0,0.0,0.0,0.0,0.0,0.0,0.0,0.0,0.0,0.0,0.0,0.0,0.0,0.0,0.0,0.0,0.0,0.0,0.0,0.0,0.0,0.0,0.0,0.0,0.0,0.0,0.0,0.0,0.0,0.0,0.0,0.0,0.0,0.0,0.0,0.0,0.0,0.0,0.0,0.0,0.0,0.0,0.0,0.0,0.0,0.0,0.0,0.0,0.0,0.0,0.0,0.0,0.0,0.0,0.0,0.0,0.0,0.0,0.0,0.0,0.0,0.0,0.0,0.0,0.0,0.0,0.0,0.0,0.0,0.0,0.0,0.0,0.0,0.0,0.0,0.0,0.0,0.0,0.0,0.0,0.0,0.0,0.0,0.0,0.0,0.0,0.0,0.0,0.0,0.0,0.0,0.0,0.0,0.0,0.0,0.0,0.0,0.0,0.0,0.0,1.495,1.675,1.6563,1.6308,1.6206,1.6122,1.4994,1.2564,0.0,0.0,0.0,0.0,0.0,0.0,0.0,0.0,0.0,0.0,0.0,0.0,0.0,0.0,0.0,0.0,0.0,0.0,0.0,0.0,0.0,0.0,0.0,0.0,0.0,0.0,0.0,0.0,0.0,0.0,0.0,0.0,0.0,0.0,0.0,0.0,0.0,0.0,0.0,0.0,0.0,0.0,0.0,0.0,0.0,0.0,0.0,0.0,0.0,0.0,0.0,0.0,0.0,0.0,0.0,0.0,0.0,0.0,0.0,0.0,0.0,0.0,0.0,0.0,0.0,0.0,0.0,0.0,0.0,0.0,0.0,0.0,0.0,0.0,0.0,0.0,0.0,0.0,0.0,0.0,0.0,0.0,0.0,0.0,0.0,0.0,0.0,0.0,0.0,0.0,0.0,0.0,0.0,0.0,0.0,0.0,0.0,0.0,0.0,0.0,0.0,0.0,0.0,1.4295,1.5578,1.7045,1.6965,1.667,1.6348,1.667,1.5707,1.2912,1.415,0.0,0.0,0.0,0.0,0.0,0.0,0.0,0.0,0.0,0.0,0.0,0.0,0.0,0.0,0.0,0.0,0.0,0.0,0.0,0.0,0.0,0.0,0.0,0.0,0.0,0.0,0.0,0.0,0.0,0.0,0.0,0.0,0.0,0.0,0.0,0.0,0.0,0.0,0.0,0.0,0.0,0.0,0.0,0.0,0.0,0.0,0.0,0.0,0.0,0.0,0.0,0.0,0.0,0.0,0.0,0.0,0.0,0.0,0.0,0.0,0.0,0.0,0.0,0.0,0.0,0.0,0.0,0.0,0.0,0.0,0.0,0.0,0.0,0.0,0.0,0.0,0.0,0.0,0.0,0.0,0.0,0.0,0.0,0.0,0.0,0.0,0.0,0.0,0.0,0.0,0.0,0.0,0.0,0.0,0.0,0.0,0.0,0.0,0.0,0.0,0.0,0.0,1.5351,1.65,1.7233,1.7246,1.7018,1.6563,1.695,1.6052,1.3383,1.3853,0.0,0.0,0.0,0.0,0.0,0.0,0.0,0.0,0.0,0.0,0.0,0.0,0.0,0.0,0.0,0.0,0.0,0.0,0.0,0.0,0.0,0.0,0.0,0.0,0.0,0.0,0.0,0.0,0.0,0.0,0.0,0.0,0.0,0.0,0.0,0.0,0.0,0.0,0.0,0.0,0.0,0.0,0.0,0.0,0.0,0.0,0.0,0.0,0.0,0.0,0.0,0.0,0.0,0.0,0.0,0.0,0.0,0.0,0.0,0.0,0.0,0.0,0.0,0.0,0.0,0.0,0.0,0.0,0.0,0.0,0.0,0.0,0.0,0.0,0.0,0.0,0.0,0.0,0.0,0.0,0.0,0.0,0.0,0.0,0.0,0.0,0.0,0.0,0.0,0.0,0.0,0.0,0.0,0.0,0.0,0.0,0.0,0.0,0.0,0.0,0.0,0.0,1.6059,1.7488,1.7542,1.7367,1.7179,1.7139,1.6123,1.495,1.3639,1.3269,0.0,0.0,0.0,0.0,0.0,0.0,0.0,0.0,0.0,0.0,0.0,0.0,0.0,0.0,0.0,0.0,0.0,0.0,0.0,0.0,0.0,0.0,0.0,0.0,0.0,0.0,0.0,0.0,0.0,0.0,0.0,0.0,0.0,0.0,0.0,0.0,0.0,0.0,0.0,0.0,0.0,0.0,0.0,0.0,0.0,0.0,0.0,0.0,0.0,0.0,0.0,0.0,0.0,0.0,0.0,0.0,0.0,0.0,0.0,0.0,0.0,0.0,0.0,0.0,0.0,0.0,0.0,0.0,0.0,0.0,0.0,0.0,0.0,0.0,0.0,0.0,0.0,0.0,0.0,0.0,0.0,0.0,0.0,0.0,0.0,0.0,0.0,0.0,0.0,0.0,0.0,0.0,0.0,0.0,0.0,0.0,0.0,0.0,0.0,0.0,0.0,0.0,1.5498,1.6767,0.0,1.7488,1.7393,1.7219,1.6774,1.554,1.324,0.0,0.0,0.0,0.0,0.0,0.0,0.0,0.0,0.0,0.0,0.0,0.0,0.0,0.0,0.0,0.0,0.0,0.0,0.0,0.0,0.0,0.0,0.0,0.0,0.0,0.0,0.0,0.0,0.0,0.0,0.0,0.0,0.0,0.0,0.0,0.0,0.0,0.0,0.0,0.0,0.0,0.0,0.0,0.0,0.0,0.0,0.0,0.0,0.0,0.0,0.0,0.0,0.0,0.0,0.0,0.0,0.0,0.0,0.0,0.0,0.0,0.0,0.0,0.0,0.0,0.0,0.0,0.0,0.0,0.0,0.0,0.0,0.0,0.0,0.0,0.0,0.0,0.0,0.0,0.0,0.0,0.0,0.0,0.0,0.0,0.0,0.0,0.0,0.0,0.0,0.0,0.0,0.0,0.0,0.0,0.0,0.0,0.0,0.0,0.0,0.0,0.0,1.3975,1.5431,1.67,0.0,1.7582,1.7554,1.7353,1.7401,1.6355,1.3803,0.0,0.0,0.0,0.0,0.0,0.0,0.0,0.0,0.0,0.0,0.0,0.0,0.0,0.0,0.0,0.0,0.0,0.0,0.0,0.0,0.0,0.0,0.0,0.0,0.0,0.0,0.0,0.0,0.0,0.0,0.0,0.0,0.0,0.0,0.0,0.0,0.0,0.0,0.0,0.0,0.0,0.0,0.0,0.0,0.0,0.0,0.0,0.0,0.0,0.0,0.0,0.0,0.0,0.0,0.0,0.0,0.0,0.0,0.0,0.0,0.0,0.0,0.0,0.0,0.0,0.0,0.0,0.0,0.0,0.0,0.0,0.0,0.0,0.0,0.0,0.0,0.0,0.0,0.0,0.0,0.0,0.0,0.0,0.0,0.0,0.0,0.0,0.0,0.0,0.0,0.0,0.0,0.0,0.0,0.0,0.0,0.0,0.0,0.0,0.0,0.0,0.0,1.4082,1.6139,1.7582,1.7582,1.7582,1.7582,1.7582,1.7779,1.7177,0.0,0.0,0.0,0.0,0.0,0.0,0.0,0.0,0.0,0.0,0.0,0.0,0.0,0.0,0.0,0.0,0.0,0.0,0.0,0.0,0.0,0.0,0.0,0.0,0.0,0.0,0.0,0.0,0.0,0.0,0.0,0.0,0.0,0.0,0.0,0.0,0.0,0.0,0.0,0.0,0.0,0.0,0.0,0.0,0.0,0.0,0.0,0.0,0.0,0.0,0.0,0.0,0.0,0.0,0.0,0.0,0.0,0.0,0.0,0.0,0.0,0.0,0.0,0.0,0.0,0.0,0.0,0.0,0.0,0.0,0.0,0.0,0.0,0.0,0.0,0.0,0.0,0.0,0.0,0.0,0.0,0.0,0.0,0.0,0.0,0.0,0.0,0.0,0.0,0.0,0.0,0.0,0.0,0.0,0.0,0.0,0.0,0.0,0.0,0.0,0.0,0.0,0.0,1.4082,1.6139,1.7582,1.7582,1.7582,1.7582,1.7582,1.763,1.6647,1.4268,0.0,0.0,0.0,0.0,0.0,0.0,0.0,0.0,0.0,0.0,0.0,0.0,0.0,0.0,0.0,0.0,0.0,0.0,0.0,0.0,0.0,0.0,0.0,0.0,0.0,0.0,0.0,0.0,0.0,0.0,0.0,0.0,0.0,0.0,0.0,0.0,0.0,0.0,0.0,0.0,0.0,0.0,0.0,0.0,0.0,0.0,0.0,0.0,0.0,0.0,0.0,0.0,0.0,0.0,0.0,0.0,0.0,0.0,0.0,0.0,0.0,0.0,0.0,0.0,0.0,0.0,0.0,0.0,0.0,0.0,0.0,0.0,0.0,0.0,0.0,0.0,0.0,0.0,0.0,0.0,0.0,0.0,0.0,0.0,0.0,0.0,0.0,0.0,0.0,0.0,0.0,0.0,0.0,0.0,0.0,0.0,0.0,0.0,0.0,0.0,0.0,0.0,1.4082,1.6139,1.7582,1.7582,1.7582,1.7582,1.7582,1.7989,1.7299,1.5037,0.0,0.0,0.0,0.0,0.0,0.0,0.0,0.0,0.0,0.0,0.0,0.0,0.0,0.0,0.0,0.0,0.0,0.0,0.0,0.0,0.0,0.0,0.0,0.0,0.0,0.0,0.0,0.0,0.0,0.0,0.0,0.0,0.0,0.0,0.0,0.0,0.0,0.0,0.0,0.0,0.0,0.0,0.0,0.0,0.0,0.0,0.0,0.0,0.0,0.0,0.0,0.0,0.0,0.0,0.0,0.0,0.0,0.0,0.0,0.0,0.0,0.0,0.0,0.0,0.0,0.0,0.0,0.0,0.0,0.0,0.0,0.0,0.0,0.0,0.0,0.0,0.0,0.0,0.0,0.0,0.0,0.0,0.0,0.0,0.0,0.0,0.0,0.0,0.0,0.0,0.0,0.0,0.0,0.0,0.0,0.0,0.0,0.0,0.0,0.0,0.0,0.0,1.4082,1.6152,1.7622,1.7622,1.7622,1.7622,1.7622,1.8527,1.8383,1.68,0.0,0.0,0.0,0.0,0.0,0.0,0.0,0.0,0.0,0.0,0.0,0.0,0.0,0.0,0.0,0.0,0.0,0.0,0.0,0.0,0.0,0.0,0.0,0.0,0.0,0.0,0.0,0.0,0.0,0.0,0.0,0.0,0.0,0.0,0.0,0.0,0.0,0.0,0.0,0.0,0.0,0.0,0.0,0.0,0.0,0.0,0.0,0.0,0.0,0.0,0.0,0.0,0.0,0.0,0.0,0.0,0.0,0.0,0.0,0.0,1.5311,0.0,0.0,0.0,0.0,0.0,0.0,0.0,0.0,0.0,0.0,0.0,0.0,0.0,0.0,0.0,0.0,0.0,0.0,0.0,0.0,0.0,0.0,0.0,0.0,0.0,0.0,0.0,0.0,0.0,0.0,0.0,0.0,0.0,0.0,0.0,0.0,0.0,0.0,0.0,0.0,0.0,1.4055,1.6353,1.7889,1.7889,1.7889,1.7889,1.7889,1.7928,1.7381,1.6089,1.7386,0.0,0.0,0.0,0.0,0.0,0.0,0.0,0.0,0.0,0.0,0.0,0.0,0.0,0.0,0.0,0.0,0.0,0.0,0.0,0.0,0.0,0.0,0.0,0.0,0.0,0.0,0.0,0.0,0.0,0.0,0.0,0.0,0.0,0.0,0.0,0.0,0.0,0.0,0.0,0.0,0.0,0.0,0.0,0.0,0.0,0.0,0.0,0.0,0.0,0.0,0.0,0.0,0.0,0.0,0.0,0.0,0.0,0.0,0.0,0.0,1.5244,0.0,0.0,0.0,0.0,0.0,0.0,0.0,0.0,0.0,0.0,0.0,0.0,0.0,0.0,0.0,0.0,0.0,0.0,0.0,0.0,0.0,0.0,0.0,0.0,0.0,0.0,0.0,0.0,0.0,0.0,0.0,0.0,0.0,0.0,0.0,0.0,0.0,0.0,0.0,0.0,1.5242,1.7309,1.8687,1.8687,1.8687,1.8687,1.8687,1.84,1.7948,1.7332,1.7783,0.0,0.0,0.0,0.0,0.0,0.0,0.0,0.0,0.0,0.0,0.0,0.0,0.0,0.0,0.0,0.0,0.0,0.0,0.0,0.0,0.0,0.0,0.0,0.0,0.0,0.0,0.0,0.0,0.0,0.0,0.0,0.0,0.0,0.0,0.0,0.0,0.0,0.0,0.0,0.0,0.0,0.0,0.0,0.0,0.0,0.0,0.0,0.0,0.0,0.0,0.0,0.0,0.0,1.6446,1.6446,1.6446,1.6446,1.6446,1.6433,1.6233,1.6687,1.7435,1.5498,0.0,0.0,0.0,0.0,0.0,0.0,0.0,0.0,0.0,0.0,0.0,0.0,0.0,0.0,0.0,0.0,0.0,0.0,0.0,0.0,0.0,0.0,0.0,0.0,1.6171,1.5952,1.508,0.0,0.0,0.0,0.0,0.0,0.0,0.0,0.0,0.0,0.0,0.0,1.6711,1.8373,1.9485,1.9485,1.9485,1.9485,1.9485,1.915,1.8968,1.8968,1.8511,1.8261,0.0,0.0,0.0,0.0,0.0,0.0,0.0,0.0,0.0,0.0,0.0,0.0,0.0,0.0,0.0,0.0,0.0,0.0,0.0,0.0,0.0,0.0,0.0,0.0,0.0,0.0,0.0,0.0,0.0,0.0,0.0,0.0,1.4039,1.5257,0.0,0.0,0.0,0.0,0.0,0.0,0.0,0.0,0.0,0.0,0.0,0.0,0.0,1.6126,1.7341,1.7355,1.7876,1.8961,1.8961,1.8961,1.8961,1.8961,1.8961,1.8838,1.7809,0.0,1.7555,1.7248,0.0,0.0,0.0,0.0,0.0,0.0,0.0,0.0,0.0,0.0,0.0,0.0,0.0,0.0,0.0,0.0,0.0,0.0,0.0,0.0,0.0,0.0,1.7556,1.7676,1.7702,1.7769,0.0,1.634,1.4764,1.4296,1.4461,0.0,0.0,0.0,0.0,0.0,0.0,0.0,1.745,1.88,1.9752,1.9752,1.9752,1.9752,1.9752,1.9472,1.9345,1.9345,1.9909,2.0254,2.0254,1.9043,0.0,0.0,0.0,0.0,0.0,0.0,0.0,0.0,0.0,0.0,0.0,0.0,0.0,0.0,0.0,0.0,0.0,0.0,0.0,0.0,0.0,0.0,0.0,0.0,0.0,0.0,0.0,0.0,0.0,1.3868,1.507,1.6295,1.5792,1.5244,0.0,0.0,0.0,0.0,0.0,0.0,0.0,0.0,0.0,1.6767,1.682,1.7382,1.8571,1.8584,1.8908,1.943,1.9533,1.9613,1.9613,1.9773,1.9853,1.9813,1.9132,1.8824,1.8758,1.7929,1.7582,1.7475,0.0,0.0,0.0,0.0,1.507,1.5137,1.5658,1.6593,1.7475,1.6834,0.0,0.0,0.0,0.0,0.0,0.0,0.0,1.5271,0.0,0.0,1.7682,1.8144,1.855,1.8878,1.915,1.8593,1.7647,0.0,1.636,1.5969,1.4323,0.0,0.0,0.0,0.0,1.8032,1.8992,1.9986,2.0587,2.0587,2.0587,2.0587,2.0587,2.0299,2.0113,2.0113,2.0248,2.0611,2.1079,1.9686,1.8818,0.0,0.0,0.0,0.0,0.0,0.0,0.0,0.0,0.0,0.0,0.0,0.0,0.0,0.0,0.0,0.0,0.0,0.0,0.0,0.0,0.0,0.0,0.0,0.0,0.0,0.0,0.0,0.0,1.4295,1.5605,1.6831,1.642,1.5979,0.0,0.0,0.0,0.0,0.0,0.0,1.5712,1.5725,1.6406,1.7876,1.7929,1.8384,1.9417,1.943,1.943,1.943,1.9666,1.98,1.9813,2.0094,2.0167,2.0167,2.0,1.9907,1.9813,1.8557,1.8036,1.8009,1.7702,1.7048,1.6273,1.6273,1.6273,1.6326,1.6633,1.7301,1.8036,1.8036,1.8036,1.7983,1.7432,0.0,0.0,0.0,0.0,1.5798,1.6462,1.7168,1.795,1.8588,1.9139,1.9583,1.9845,2.0199,1.9986,0.0,1.8249,1.781,1.6239,0.0,0.0,0.0,0.0,1.9266,2.0397,2.0943,2.1203,2.1203,2.1203,2.1203,2.1203,2.0984,2.0852,2.0852,2.0489,2.0629,2.127,2.0155,1.9575,1.961,0.0,0.0,0.0,0.0,0.0,0.0,0.0,0.0,0.0,0.0,0.0,0.0,0.0,0.0,0.0,0.0,0.0,0.0,0.0,0.0,0.0,0.0,0.0,0.0,0.0,0.0,0.0,0.0,0.0,1.6179,1.7261,0.0,0.0,0.0,0.0,1.5008,1.4981,1.5504,1.658,1.6633,1.7315,1.8811,1.8851,1.9025,1.9417,1.943,1.943,1.943,1.9666,1.98,1.9813,2.0094,2.0167,2.0167,2.0214,2.0153,2.01,1.9533,1.9336,1.9216,1.8023,1.7542,1.7488,1.7488,1.7488,1.7649,1.8798,1.9283,1.9336,1.9336,1.9336,1.9068,1.7911,1.7524,0.0,0.0,1.6565,1.7478,1.7534,1.8418,1.9276,1.9318,1.9556,1.9893,2.0173,2.0472,2.0487,0.0,1.9928,1.9588,1.7817,0.0,1.9682,1.8599,1.9899,2.1101,2.1174,2.1203,2.1203,2.1203,2.1203,2.1203,2.1203,2.1189,2.1189,2.1189,2.0881,2.0691,2.0747,2.0384,2.0708,2.1852,2.0639,0.0,0.0,0.0,0.0,0.0,0.0,0.0,0.0,0.0,0.0,0.0,0.0,0.0,0.0,0.0,0.0,0.0,0.0,0.0,0.0,0.0,0.0,0.0,0.0,0.0,0.0,0.0,0.0,1.6406,1.6767,0.0,1.646,1.6433,1.6179,1.5565,1.6406,1.7208,1.7822,1.8036,1.8464,1.9185,1.9212,1.9265,1.943,1.943,1.943,1.943,1.9666,1.98,1.9813,2.0094,2.0167,2.0167,2.0167,2.0167,2.0214,2.0013,1.992,1.988,1.9452,1.9292,1.9292,1.9292,1.9292,1.9345,1.9773,1.992,1.9893,1.9706,1.9519,1.9296,1.8628,1.8468,1.836,1.7943,1.8243,1.8739,1.8758,1.9382,1.9975,1.9975,2.0344,2.0743,2.0857,2.0944,2.0959,2.0727,2.0785,2.0683,2.0062,2.0424,2.0698,2.0303,2.0781,2.1203,2.1203,2.1203,2.1203,2.1203,2.1203,2.1203,2.1203,2.1203,2.1203,2.1203,2.1101,2.1042,2.1042,2.072,2.0711,2.1138,2.1275,2.0065,0.0,0.0,0.0,0.0,0.0,0.0,0.0,0.0,0.0,0.0,0.0,0.0,0.0,0.0,0.0,0.0,0.0,0.0,0.0,0.0,0.0,0.0,0.0,0.0,0.0,0.0,1.5538,1.6313,1.6687,1.6874,1.6874,1.6967,1.6941,1.674,1.7635,1.829,1.8477,1.8677,1.8918,1.9212,1.9225,1.9265,1.943,1.943,1.943,1.943,1.9666,1.98,1.9813,2.0094,2.0167,2.0167,2.0167,2.0167,2.0167,2.0167,2.0167,2.0167,2.0167,2.0167,2.0167,2.0167,2.0167,2.0167,2.0167,2.0174,2.0054,1.9867,1.9658,1.9492,1.9418,1.9396,1.9386,1.9459,1.9668,1.9836,1.9848,2.0242,2.0585,2.0585,2.0929,2.1203,2.1203,2.1203,2.1203,2.1203,2.1203,2.1101,2.0779,2.072,2.0574,2.0135,2.0164,2.0194,2.0077,2.0442,2.072,2.072,2.1013,2.1203,2.1203,2.0808,2.0735,2.1174,2.0794,2.075,2.1189,2.0472,2.0224,2.0641,2.0684,1.9893,1.819,0.0,0.0,0.0,0.0,0.0,0.0,0.0,0.0,0.0,0.0,0.0,0.0,0.0,0.0,0.0,0.0,0.0,0.0,0.0,0.0,0.0,0.0,0.0,1.4055,1.5137,1.5824,1.5851,1.713,1.8009,1.8009,1.8317,1.849,1.849,1.8504,1.8504,1.8504,1.8517,1.8651,1.8931,1.8945,1.9078,1.943,1.9386,1.9444,1.9457,1.9679,1.9813,1.9826,2.0107,2.0167,2.0167,2.018,2.0254,2.0254,2.0193,2.0254,2.0254,2.0241,2.0167,2.0167,2.0167,2.0167,2.0167,2.0227,2.0054,1.9813,1.98,1.9834,1.9866,2.0199,2.0288,2.0343,2.0608,2.0679,2.0679,2.0679,2.0969,2.1203,2.1203,2.1203,2.1203,2.1203,2.1203,2.1203,2.1203,2.1203,2.0911,2.0028,1.9867,1.9374,1.8116,1.8189,0.0,1.7955,1.9023,1.9852,1.9808,2.0618,2.1189,2.1159,2.0033,1.9872,2.113,2.0033,1.9901,2.1159,1.9696,1.9456,2.0632,1.9053,1.9384,2.1692,0.0,0.0,0.0,0.0,0.0,0.0,0.0,0.0,0.0,0.0,0.0,0.0,0.0,0.0,0.0,0.0,0.0,0.0,0.0,0.0,0.0,0.0,1.5418,1.5351,1.5992,1.6714,1.7303,1.7983,1.837,1.837,1.8437,1.849,1.849,1.8691,1.8811,1.8811,1.9011,1.9158,1.9239,1.9239,1.9386,1.9679,1.9679,1.9786,2.0,2.0067,2.0107,2.012,2.0201,2.0167,2.018,2.0468,2.0548,2.0575,2.0775,2.0869,2.0828,2.0401,2.0167,2.0167,2.0167,2.0167,2.0227,2.047,2.0536,2.0427,2.0447,2.0347,2.0113,2.0004,1.9935,1.9977,2.0314,2.0528,2.0772,2.1015,2.1145,2.1203,2.1203,2.1203,2.1203,2.1203,2.1203,2.1203,2.1203,2.1203,2.113,2.0852,2.0808,2.0691,2.0325,2.0355,0.0,2.0296,2.0589,2.0457,1.9558,2.0486,2.0837,1.9886,2.034,2.0837,2.1189,2.0881,2.0837,2.1189,2.0779,2.1138,2.2314,2.0133,1.9852,0.0,0.0,0.0,0.0,0.0,0.0,0.0,0.0,0.0,0.0,0.0,0.0,0.0,0.0,0.0,0.0,0.0,0.0,0.0,0.0,0.0,0.0,1.5578,1.6567,1.6901,1.7235,1.7649,1.817,1.849,1.8677,1.8677,1.8784,1.8865,1.8865,1.9011,1.9105,1.9105,1.9386,1.9546,1.9546,1.9666,1.9813,1.9987,1.9987,2.0,2.0054,2.0054,1.9987,1.988,2.0,2.0054,2.0067,2.0361,2.0494,2.0508,2.0668,2.0797,0.0,0.0,0.0,0.0,0.0,2.0414,2.0401,2.0449,2.0388,2.0313,2.0315,2.0289,2.0242,2.006,2.0175,2.0401,2.0628,2.0758,2.096,2.1146,2.1203,2.1203,2.1203,2.1203,2.1203,2.1203,2.1203,2.1247,2.1393,2.1408,0.0,2.1598,2.1057,2.0413,1.9872,1.9901,1.9945,1.9798,2.0267,2.0311,1.9617,2.0516,2.0911,2.015,2.0281,0.0,0.0,0.0,2.034,2.0208,2.0194,0.0,0.0,0.0,1.9277,2.1278,1.9862,0.0,0.0,2.0861,1.9782,0.0,0.0,0.0,0.0,0.0,0.0,0.0,0.0,0.0,0.0,0.0,0.0,0.0,0.0,0.0,0.0,1.6152,1.7328,1.8397,1.8571,1.8584,1.8544,1.8798,1.8971,1.8971,1.9239,1.947,1.947,1.9452,1.9466,1.9466,0.0,0.0,0.0,0.0,2.0147,2.0127,2.0127,2.0067,1.9853,1.9853,1.972,1.9466,1.9733,1.9853,1.9867,2.012,2.0227,2.0227,2.0227,2.047,2.0766,2.0989,2.1128,2.1101,2.0846,2.0752,2.0711,2.0443,0.0,0.0,2.0091,2.0254,2.0498,2.0498,2.0902,2.132,2.132,2.132,2.132,2.132,2.132,2.132,2.132,2.132,2.132,2.132,2.132,2.1408,2.1701,2.1759,2.1847,2.214,2.104,1.9638,1.8482,1.8555,1.8628,1.8291,1.9272,1.9969,1.9779,0.0,0.0,2.0998,2.0077,1.9989,2.113,2.0135,1.936,1.9081,1.9067,1.8525,1.7416,1.7387,1.8659,2.1203,2.1203,2.2372,2.4421,2.0729,1.9563,0.0,0.0,0.0,0.0,0.0,0.0,0.0,0.0,0.0,0.0,0.0,0.0,0.0,0.0,0.0,1.6027,1.7408,1.8571,1.8811,1.9052,1.9105,1.8865,1.9105,1.9279,1.9279,1.9546,1.972,1.972,1.9933,2.0067,2.0067,1.9893,1.98,1.98,1.9626,1.9653,1.988,1.988,1.9973,2.0147,0.0,0.0,2.0067,2.012,2.0147,2.0147,2.0214,2.0348,2.0591,2.0591,2.0772,2.1087,2.1138,2.118,2.118,2.1124,2.1097,2.1157,2.1329,2.1392,2.141,2.1663,2.1799,2.1815,2.1815,2.1934,0.0,2.1993,2.1993,2.1993,2.1993,2.1993,2.1993,2.1993,2.1993,2.1993,2.1993,2.1993,2.2008,2.2081,2.2096,2.2111,2.2169,2.192,2.1628,2.1379,2.1393,2.132,2.0984,2.1174,2.0823,1.9558,2.0472,2.0779,1.974,2.0384,2.094,2.1189,2.0969,2.0808,2.075,2.0735,2.0618,2.0369,2.0369,2.1108,2.2616,2.2616,2.2871,2.3351,2.3399,2.3128,0.0,0.0,0.0,0.0,0.0,0.0,0.0,0.0,0.0,0.0,0.0,1.4349,0.0,0.0,1.658,1.6874,1.805,1.9025,1.9319,1.9492,1.9533,1.9386,1.9492,1.9639,1.9786,1.9933,1.996,1.9813,1.9933,1.9947,1.9813,1.98,1.98,1.98,1.98,1.9867,2.0013,2.0013,2.0013,2.0013,2.0013,1.9947,1.98,1.9947,2.0013,2.0027,2.0113,2.0288,2.047,2.0832,2.1074,2.1254,2.1569,2.1594,2.1404,2.125,2.1292,2.1465,2.1417,2.1435,2.1495,2.1629,2.1809,2.1929,2.1929,2.2049,2.2184,2.2184,2.2184,2.2184,2.2184,2.2184,2.2184,2.2184,2.2184,2.2184,2.2184,2.2184,2.2228,2.2374,2.2403,2.2462,2.2623,2.2652,2.2535,2.2228,2.2184,2.2125,2.1964,2.1935,2.1628,2.0823,2.1306,2.1437,2.0794,2.1174,2.1379,2.1218,2.1203,2.1203,2.1203,2.1203,2.1203,2.1203,2.1203,2.1489,2.2101,2.2101,2.2101,2.2085,2.2692,2.2636,0.0,0.0,0.0,0.0,0.0,0.0,0.0,0.0,1.4576,1.4816,1.5084,1.5364,1.5651,1.646,1.7315,1.7849,1.8584,1.9279,1.9813,1.988,1.9907,1.996,1.992,1.996,2.0134,2.0201,2.0107,1.9826,1.9853,1.9786,1.9546,1.9706,1.98,1.98,1.9973,2.0067,2.0067,2.012,2.0054,1.988,1.9947,1.988,1.9706,1.9947,2.0054,2.0067,2.0368,2.0435,2.0443,2.1036,2.1208,2.1156,2.1783,2.1807,2.1507,2.1445,2.1605,2.1789,2.1459,2.1375,2.1389,2.1445,2.164,2.1896,2.1953,2.2164,2.2359,2.2359,2.2359,2.2359,2.2359,2.2359,2.2359,2.2359,2.2359,2.2359,2.2359,2.2359,2.2432,2.2667,2.271,2.2798,2.3062,2.3106,2.2945,2.2432,2.2359,2.2345,2.2271,2.2271,2.2242,2.2198,2.2184,2.2184,2.2184,2.195,2.1657,2.132,2.1306,2.1276,2.1218,2.1203,2.1203,2.1203,2.1203,2.1318,2.1546,2.1546,2.1546,2.1546,2.1546,2.1546,1.2625,1.2398,1.2505,1.2505,1.32,1.4202,0.0,0.0,1.6326,1.7329,1.7836,1.8063,1.809,1.841,1.8784,1.9118,1.9466,1.9813,2.0134,2.0187,2.0281,2.0548,2.0347,2.0094,1.9867,2.008,2.0107,1.9826,2.004,2.0113,2.0134,1.992,1.98,1.98,1.9586,1.9466,1.9466,1.972,1.996,2.0187,2.0454,2.0695,2.0922,2.0949,2.0962,2.0962,2.1303,2.1292,2.1047,2.1416,2.1264,2.0774,2.1156,2.1289,2.1331,2.1902,2.2078,2.2168,2.2064,2.2124,2.2108,2.2369,2.2442,2.2562,2.2853,2.2941,2.3003,2.3003,2.3003,2.3003,2.3003,2.3003,2.3003,2.3003,2.3003,2.3003,2.3003,2.3003,2.3018,2.3047,2.3062,2.3062,2.3106,2.3106,2.3091,2.3018,2.3003,2.2901,2.2608,2.2579,2.2476,2.2213,2.2184,2.2184,2.2184,2.2154,2.1993,2.1672,2.1642,2.1511,2.1218,2.1203,2.1203,2.1203,2.1203,2.1702,2.2821,2.2821,2.2821,2.2821,2.2821,2.2821,1.4309,1.3854,1.3667,0.0,1.5364,1.5671,1.6797,1.7355,1.7702,1.821,1.8544,1.8798,1.8971,1.9239,1.9533,0.0,1.9973,2.016,2.0454,2.0347,2.0347,2.0641,2.0414,2.0254,2.0307,2.0267,2.0107,1.9826,1.9907,1.9907,1.9733,1.9613,1.9706,2.004,1.9933,2.004,2.0374,2.0508,2.0615,2.0748,2.0869,2.0989,2.1109,2.1109,2.1109,2.1109,2.1235,2.1357,2.1485,2.1548,2.1706,2.185,2.1972,2.2141,2.2265,2.1992,2.2023,2.2184,2.2184,2.2184,2.2198,2.233,2.2374,2.2389,2.2535,2.2564,2.2564,2.2564,2.2564,2.2564,2.2564,2.2564,2.2564,2.2564,2.2564,2.2564,2.2564,2.2564,2.2564,2.2564,2.2564,2.2564,2.2564,2.2564,2.2564,2.2564,2.2886,2.3062,2.2915,2.2901,2.2857,2.274,2.2725,2.2652,2.2462,2.2432,2.2301,2.1993,2.1979,2.1832,2.1511,2.1496,2.1408,2.1218,2.1203,2.1432,2.193,2.193,2.193,2.193,2.193,2.2312,1.5124,1.4856,0.0,1.682,1.7114,1.7114,1.7969,1.8397,1.8611,1.8611,1.8905,1.9225,1.9452,1.972,2.0013,2.0307,2.0361,2.0454,2.0762,2.0548,2.0441,2.0655,2.0347,2.0201,2.0414,2.0241,2.0,1.9706,1.9679,1.9653,1.9613,1.9599,1.9867,2.0454,2.0468,2.0681,2.1109,2.1189,2.1269,2.1349,2.143,2.151,2.159,2.159,2.1655,2.1719,2.1719,2.1937,2.2176,2.2112,2.2334,2.2686,2.2749,2.2817,2.2908,2.2284,2.2184,2.2286,2.2213,2.2125,2.2067,2.2154,2.2125,2.2067,2.2154,2.2184,2.2184,2.2184,2.2184,2.2184,2.2184,2.2184,2.2184,2.2184,2.2184,2.2184,2.2184,2.2184,2.2184,2.2184,2.2184,2.2184,2.2184,2.2184,2.2184,2.2184,2.2564,2.2857,2.2857,2.2857,2.2857,2.2857,2.2857,2.2784,2.2637,2.2623,2.2535,2.2315,2.2301,2.2169,2.1847,2.1832,2.1672,2.135,2.135,2.1306,2.1203,2.1203,2.1203,2.1203,2.1203,2.166,0.0,0.0,1.487,1.6353,1.7582,1.8437,1.8464,1.8704,1.8905,1.8905,1.9372,1.9773,1.9786,2.0027,2.0321,2.0615,2.0655,2.0762,2.1056,2.0842,2.0668,2.0681,2.016,1.9813,0.0,1.9813,1.9693,1.9399,1.9386,1.9626,2.0174,2.0214,2.0468,2.1069,2.1082,2.1096,2.1109,2.139,2.1748,2.1964,2.2245,2.2525,2.2874,2.2874,2.3011,2.3352,2.3352,2.339,2.3448,2.3448,2.3098,2.263,2.2936,2.2955,2.2745,2.2952,2.2871,2.2564,2.2286,2.1979,2.1759,2.2081,2.1964,2.1774,2.2081,2.2184,2.2184,2.2184,2.2184,2.2184,2.2184,2.2184,2.2184,2.2184,2.2184,2.2184,2.2184,2.2184,2.2184,2.2184,2.2184,2.2184,2.2184,2.2184,2.2184,2.2184,2.2198,2.2213,2.2213,2.2213,2.2213,2.2213,2.2213,2.233,2.2593,2.2623,2.2623,2.2608,2.2608,2.2476,2.2184,2.2169,2.2023,2.1686,2.1686,2.1525,2.1203,2.1203,2.1203,2.1203,2.1203,2.1203,0.0,0.0,1.6273,1.7569,1.833,1.8784,1.8784,1.9158,1.9506,1.9506,1.9038,1.8691,1.8891,1.8196,1.8023,1.9305,1.9519,1.9826,2.0695,2.0575,2.0307,2.012,1.9746,0.0,0.0,0.0,0.0,1.9653,1.9826,2.0107,2.0508,2.0708,2.1082,2.167,2.1697,2.1884,2.2271,2.2432,2.2539,2.2565,2.2672,2.2766,2.2928,2.2928,2.2928,2.3065,2.3065,2.3215,2.3459,2.3459,2.3605,2.389,2.3956,2.4165,2.4247,2.4159,2.4013,2.3808,2.3062,2.2725,2.2623,2.2506,2.2403,2.2301,2.2213,2.2184,2.2184,2.2184,2.2184,2.2184,2.2184,2.2184,2.2184,2.2184,2.2184,2.2184,2.2184,2.2184,2.2184,2.2184,2.2184,2.2111,2.1906,2.1862,2.1789,2.1569,2.1906,2.2184,2.2184,2.2184,2.2184,2.2184,2.2184,2.2228,2.233,2.233,2.233,2.233,2.252,2.2491,2.2198,2.2374,2.233,2.2023,2.1803,2.1642,2.1525,2.132,2.1203,2.1203,2.1203,2.1203,0.0,1.6777,1.7181,1.8477,1.8945,1.9105,1.9212,1.9533,1.9679,1.9252,1.8557,1.7876,1.7595,1.6847,1.682,1.849,1.8851,1.9332,2.0508,2.0414,2.016,1.9973,1.9693,1.9757,0.0,0.0,0.0,2.0274,2.0341,2.0615,2.1122,2.1323,2.1697,2.2285,2.2298,2.2485,2.2928,2.2928,2.2928,2.2928,2.2928,2.2928,2.2928,2.2928,2.2996,2.3065,2.3065,2.327,2.3611,2.3611,2.3884,2.4292,2.4292,2.451,2.4684,2.4616,2.4544,2.448,2.3685,2.3384,2.3252,2.3047,2.2886,2.2754,2.2579,2.2432,2.2345,2.2345,2.2257,2.2184,2.2184,2.2184,2.2184,2.2184,2.2184,2.2184,2.2184,2.2184,2.2184,2.2184,2.2184,2.2125,2.1906,2.1876,2.1803,2.1584,2.192,2.2096,2.1862,2.1832,2.1832,2.1832,2.1832,2.1876,2.1993,2.2008,2.2052,2.2169,2.2359,2.2374,2.2198,2.2374,2.2374,2.2184,2.1979,2.1876,2.1876,2.154,2.1379,2.1379,2.1262,2.1203,1.6509,1.7313,1.7675,1.9095,1.9457,1.9479,1.976,1.9773,1.9412,1.8277,1.7916,1.7382,0.0,0.0,1.6647,1.813,1.8691,1.9332,2.0494,2.0428,2.018,0.0,0.0,0.0,0.0,0.0,0.0,2.1259,0.0,2.1109,2.1964,2.2017,2.2285,2.2914,2.2928,2.2928,2.2846,2.2887,2.2819,2.2819,2.2819,2.2819,2.2819,2.2819,2.3024,2.3365,2.3365,2.357,2.3978,2.3992,2.4006,2.4006,2.402,2.4034,2.4088,2.4442,2.4495,2.4477,2.4218,2.3925,2.3662,2.3647,2.3442,2.3179,2.3164,2.2945,2.2696,2.2696,2.2491,2.2271,2.2257,2.2257,2.2257,2.2242,2.2228,2.2228,2.2228,2.2228,2.2228,2.2228,2.2213,2.2213,2.2213,2.2198,2.2184,2.2184,2.2184,2.195,2.132,2.1233,2.1233,2.1203,2.1203,2.1335,2.1642,2.1672,2.1803,2.2111,2.2154,2.2154,2.2154,2.2169,2.2184,2.2184,2.2169,2.2169,2.2184,2.1862,2.1701,2.1715,2.1393,2.1233,1.8023,1.8798,1.9212,1.9599,1.9853,2.0027,2.0107,1.9452,1.8731,1.8437,1.662,1.4977,0.0,0.0,0.0,1.6593,1.8009,0.0,2.0214,2.0468,0.0,1.996,0.0,2.0684,2.1167,2.1339,0.0,0.0,2.1973,2.1844,2.2285,2.2512,2.2712,2.2928,2.2928,2.2752,2.2539,2.2311,2.2205,2.2205,2.2205,2.2205,2.2205,2.2205,2.2404,2.2736,2.2736,2.2935,2.328,2.3785,2.4018,2.4032,2.4612,2.4849,2.4849,2.4916,2.4916,2.497,2.4862,2.4826,2.4709,2.4393,2.4262,2.4145,2.391,2.3779,2.3706,2.3706,2.3662,2.3545,2.3296,2.3237,2.3179,2.293,2.2871,2.2871,2.2871,2.2871,2.2871,2.2871,2.2681,2.2506,2.2506,2.233,2.2184,2.2184,2.2184,2.2037,2.1628,2.1569,2.1481,2.1233,2.1203,2.1247,2.132,2.1335,2.1364,2.1452,2.1686,2.1818,2.1818,2.2052,2.2184,2.2184,2.195,2.1935,2.2184,2.1862,2.1818,2.2052,2.173,2.1569,1.8945,1.9639,1.9987,1.9987,2.0107,2.0094,1.9586,1.8865,1.7969,1.6794,1.503,0.0,1.3868,0.0,0.0,0.0,0.0,0.0,2.0007,2.0374,2.0454,0.0,2.0668,0.0,2.1713,2.1894,2.2137,0.0,2.2405,2.2298,2.2592,2.2766,2.2806,2.2672,2.2672,2.2525,2.2231,2.2071,2.1991,2.1991,2.1991,2.1991,2.1991,2.2175,2.2306,2.2504,0.0,2.2831,2.3042,2.3422,2.3558,2.3573,2.4023,2.4161,2.4242,2.452,2.4631,2.466,2.5008,2.5119,2.509,2.4914,2.4855,2.4744,2.4635,2.4408,2.4291,2.4291,2.4188,2.4042,2.3852,2.3808,2.3764,2.3574,2.3427,2.3325,2.3325,2.3208,2.3106,2.3106,2.2959,2.2842,2.2842,2.2696,2.2593,2.2593,2.2593,2.2476,2.214,2.1993,2.1832,2.1657,2.1511,2.1423,2.1423,2.1291,2.1203,2.1203,2.1379,2.1481,2.1481,2.1657,2.1818,2.1964,2.1789,2.1862,2.2184,2.1862,2.1862,2.2169,2.1847,2.1774,1.9506,2.0067,2.0294,2.0294,2.0321,2.0027,1.8771,1.8143,1.7036,1.4549,0.0,1.3053,1.3467,1.3373,1.4266,1.7423,0.0,1.8595,1.998,2.0294,2.0535,2.1042,2.1239,2.1507,2.2057,2.2445,2.2606,2.2539,2.2539,2.266,2.2914,2.2887,2.2672,2.2378,2.2325,2.2178,2.1937,2.1884,2.1884,2.1924,2.1924,2.1951,2.1991,2.2372,2.2504,2.2569,2.2897,2.3093,2.3159,2.3201,2.3201,2.3159,2.3201,2.3201,2.3187,2.3799,2.4032,2.4142,2.4809,2.5061,2.5061,2.5119,2.5119,2.5119,2.5119,2.4929,2.4709,2.4709,2.4437,2.4203,2.4159,2.4145,2.413,2.4101,2.3866,2.3662,2.3662,2.3398,2.3179,2.3179,2.3135,2.3106,2.3106,2.3106,2.3106,2.3106,2.3106,2.3003,2.2725,2.2432,2.2228,2.2184,2.1935,2.1759,2.1759,2.1467,2.1276,2.1276,2.1233,2.1203,2.1203,2.1203,2.135,2.1628,2.1628,2.1789,2.2125,2.1832,2.1862,2.2169,2.1847,2.1876,2.0094,2.0374,2.0601,2.0601,2.0775,2.0521,1.8865,1.7502,0.0,0.0,1.2465,1.177,1.3053,1.34,1.4426,1.7221,0.0,0.0,0.0,0.0,2.0989,0.0,0.0,0.0,0.0,0.0,0.0,0.0,0.0,2.3147,2.2928,2.2632,2.2365,2.2071,2.183,2.1748,2.1695,2.139,2.139,2.1695,2.1695,2.1815,2.1991,2.2372,2.2635,2.2962,2.3355,0.0,2.3905,2.4247,2.4189,2.392,2.4181,2.4123,2.3891,2.4014,2.4094,2.4138,2.454,2.4723,2.4701,2.5031,2.5119,2.5119,2.5119,2.509,2.5031,2.5031,2.5002,2.4899,2.4621,2.4481,2.4423,2.4145,2.4042,2.3998,2.3998,2.3735,2.3515,2.3515,2.3296,2.3106,2.3106,2.3106,2.3106,2.3106,2.3106,2.3091,2.3032,2.274,2.2462,2.2213,2.214,2.2096,2.2096,2.1803,2.1613,2.1613,2.1364,2.1203,2.1203,2.1203,2.1233,2.1291,2.1291,2.1452,2.1789,2.173,2.1862,2.2169,2.1847,2.1876,1.972,2.0214,2.0895,2.0895,2.1002,2.0481,1.8103,0.0,0.0,0.0,1.157,1.1296,1.2906,1.3186,0.0,1.6286,0.0,0.0,0.0,0.0,0.0,0.0,0.0,0.0,0.0,0.0,0.0,0.0,0.0,2.2835,2.2632,2.2205,2.1897,2.1829,2.1483,2.1403,2.1614,2.1416,2.1612,2.2103,2.2103,2.225,2.2583,2.2897,2.3173,2.3355,2.3695,2.3956,2.4101,2.4247,2.4232,2.4101,2.4247,2.4218,2.4101,2.4276,2.4232,2.413,2.4452,2.4466,2.4349,2.4496,2.4855,2.5119,2.5119,2.5119,2.5119,2.5119,2.5119,2.509,2.4929,2.4885,2.4855,2.4627,2.4466,2.4291,2.4115,2.3954,2.3852,2.3852,2.3588,2.3354,2.3354,2.3223,2.3106,2.3106,2.3106,2.3106,2.3106,2.2974,2.2828,2.2681,2.2506,2.2418,2.2418,2.2125,2.195,2.195,2.1642,2.1467,2.1467,2.1306,2.1203,2.1203,2.1203,2.1291,2.1452,2.1452,2.1613,2.1935,2.1774,2.1876,1.9573,2.0227,2.1109,2.1109,2.1109,2.0307,1.7221,1.6166,0.0,0.0,1.0875,1.1122,1.2799,1.2744,1.3132,0.0,1.6313,0.0,0.0,0.0,0.0,0.0,0.0,0.0,0.0,0.0,0.0,0.0,0.0,0.0,2.2231,2.1804,2.1614,2.1679,2.1387,2.1413,2.1903,2.1905,2.2212,2.2827,2.2896,2.3098,2.35,2.3766,2.3899,2.3899,2.4231,2.4363,2.4363,2.4423,2.4349,2.4291,2.4218,2.4145,2.4115,2.4379,2.4305,2.413,2.4452,2.4408,2.4188,2.4188,2.454,2.5017,2.5017,2.5061,2.5119,2.5119,2.5119,2.5119,2.5119,2.5119,2.5119,2.5119,2.4929,2.4598,2.4349,2.4232,2.4188,2.4188,2.3925,2.3706,2.3706,2.3427,2.3208,2.3208,2.3149,2.3106,2.3106,2.3106,2.3106,2.3106,2.2871,2.2725,2.2725,2.2447,2.2286,2.2286,2.1979,2.1803,2.1803,2.1481,2.132,2.132,2.1247,2.1203,2.1203,2.1203,2.1335,2.1584,2.1584,2.1759,2.0655,2.1002,2.1109,2.1109,2.1109,2.0201,1.67,0.0,0.0,1.139,1.0626,1.1055,1.2556,1.1926,1.2011,1.466,0.0,1.5271,0.0,0.0,0.0,0.0,0.0,0.0,0.0,0.0,0.0,0.0,0.0,0.0,2.1695,2.1641,2.1744,2.2066,2.1717,2.2046,2.2935,2.2882,2.3225,2.3882,2.4162,2.4442,2.4708,2.4778,2.4778,2.4778,2.5128,2.5268,0.0,2.5382,2.5227,2.5002,2.4642,2.4349,2.4086,2.4115,2.4101,2.413,2.4452,2.4554,2.4525,2.4525,2.4635,2.4679,2.4679,2.4885,2.5119,2.5119,2.5119,2.5119,2.5119,2.5119,2.5119,2.5119,2.5105,2.5075,2.5046,2.4797,2.4525,2.4525,2.4262,2.4042,2.4042,2.3764,2.3545,2.3545,2.3296,2.3106,2.3106,2.3106,2.3106,2.3106,2.3076,2.3062,2.3062,2.2769,2.2579,2.2579,2.2301,2.214,2.214,2.1832,2.1657,2.1657,2.1364,2.1203,2.1203,2.1203,2.1233,2.1262,2.1262,2.1423,1.9011,2.0027,2.1109,2.1109,2.1109,2.0227,1.686,0.0,1.4883,1.1516,1.072,1.0774,1.135,1.1082,1.1176,1.2371,0.0,0.0,1.666,0.0,0.0,0.0,0.0,0.0,0.0,0.0,0.0,0.0,0.0,0.0,2.1872,2.1872,2.1954,2.2065,2.232,2.2832,2.3596,2.3584,2.386,2.4512,2.4708,2.4764,2.4876,2.4876,2.4876,2.4876,2.5003,2.5158,0.0,2.5452,2.5531,2.5608,2.5271,2.5066,2.4935,2.4744,2.454,2.4393,2.4525,2.4437,2.4276,2.4276,2.4408,2.4569,2.4569,2.4657,2.487,2.5061,2.5119,2.5119,2.5119,2.5119,2.5119,2.5119,2.5119,2.5119,2.5119,2.5017,2.4929,2.4929,2.4598,2.4379,2.4379,2.4101,2.3823,2.3618,2.3486,2.3325,2.3135,2.3106,2.3106,2.3106,2.3106,2.3106,2.3106,2.2988,2.2915,2.2915,2.2623,2.2447,2.2447,2.2154,2.1891,2.1701,2.1569,2.1408,2.1203,2.1203,2.1203,2.1203,2.1203,2.1276,1.7916,1.9199,2.0561,2.1002,2.0722,1.9599,0.0,0.0,1.4255,1.145,1.0734,1.0586,1.0586,1.0586,1.0667,1.0868,0.0,1.3213,1.5097,0.0,0.0,0.0,0.0,0.0,0.0,0.0,0.0,0.0,0.0,0.0,2.2189,2.2367,2.2492,2.2578,2.2943,2.3406,2.4191,2.4147,2.4439,2.5016,2.51,2.5142,2.507,2.4999,2.4927,2.4927,2.4927,2.507,0.0,2.5484,2.5725,2.5979,2.5728,2.5622,2.5505,2.5271,2.4993,2.4782,2.4782,2.4554,2.4349,2.4262,2.4379,2.4569,2.4569,2.4642,2.4811,2.4943,2.5046,2.5119,2.5119,2.5119,2.5119,2.5119,2.5119,2.5119,2.5119,2.5119,2.5119,2.5119,2.4943,2.4782,2.4782,2.4437,2.4145,2.3925,2.372,2.3515,2.3281,2.3164,2.3106,2.3106,2.3106,2.3106,2.3106,2.3106,2.3106,2.3106,2.2901,2.2769,2.2769,2.2476,2.2213,2.1979,2.1891,2.1686,2.135,2.135,2.1306,2.1203,2.1203,2.1203,1.8116,1.8931,1.9292,2.0748,1.98,1.805,0.0,0.0,1.2732,1.0961,1.06,1.0586,1.0586,1.0586,1.0586,1.06,1.0854,0.0,1.3026,0.0,0.0,0.0,0.0,0.0,0.0,0.0,0.0,0.0,0.0,0.0,2.249,2.3064,2.3597,2.3952,2.3569,2.3798,2.4791,2.4812,2.4963,2.5324,2.5632,2.5786,2.5786,2.5359,2.5226,2.5226,2.5226,2.5226,0.0,2.5681,2.5913,2.5884,2.5993,2.5813,2.5535,2.552,2.533,2.5119,2.5119,2.5119,2.5061,2.4671,2.4635,2.4569,2.4569,2.4803,2.5046,2.4723,2.4803,2.5119,2.5119,2.5119,2.5119,2.5119,2.5119,2.5119,2.5119,2.5119,2.5119,2.5119,2.5119,2.5119,2.5119,2.4855,2.4554,2.4554,2.4013,2.3588,2.3588,2.331,2.3106,2.3106,2.3106,2.3106,2.3106,2.3106,2.3106,2.3106,2.3106,2.3106,2.3106,2.2798,2.2608,2.2608,2.233,2.2023,2.1686,2.1686,2.1525,2.1203,2.1203,2.1203,1.5311,1.6206,1.6863,1.7382,1.7088,1.6206,1.4442,0.0,1.2705,1.0961,1.0586,1.0586,1.0586,1.0586,1.0586,1.0586,1.0667,0.0,0.0,0.0,0.0,0.0,0.0,0.0,0.0,0.0,0.0,0.0,0.0,0.0,2.3495,2.3653,2.3761,2.3825,2.4123,2.4494,2.5084,2.5107,2.5162,2.5222,2.5318,2.5226,2.4991,2.4857,2.4784,2.4784,2.4784,2.4931,2.5226,2.5629,2.6024,2.6286,2.6328,2.6281,2.6149,2.5696,2.5461,2.5344,2.5125,2.5119,2.5105,2.5002,2.4973,2.4929,2.4642,2.4642,2.4744,2.4943,2.5046,2.5119,2.5119,2.5119,2.5119,2.5119,2.5119,2.5119,2.5119,2.5119,2.5119,2.5119,2.5119,2.5119,2.5119,2.5031,2.4899,2.4598,2.4393,2.4101,2.3647,2.3501,2.3354,2.3135,2.3106,2.3106,2.3106,2.3106,2.3106,2.3106,2.3106,2.3106,2.3106,2.3018,2.2842,2.2623,2.2535,2.233,2.2023,2.2023,2.1862,2.154,2.132,2.1203,0.0,1.4456,1.5092,1.5638,1.5337,0.0,0.0,0.0,1.1891,1.0827,1.0586,1.0586,1.0586,1.0586,1.0586,1.0586,1.068,1.1209,0.0,0.0,0.0,0.0,0.0,0.0,0.0,0.0,0.0,0.0,0.0,0.0,2.39,2.3925,2.4008,2.4088,2.4493,2.4742,2.5005,2.4931,2.4931,2.4931,2.4931,2.4857,2.4636,2.4636,2.4636,2.4636,2.4636,2.471,0.0,2.558,2.5946,2.6225,2.6547,2.6617,2.6442,2.59,2.5637,2.5476,2.5169,2.5119,2.5119,2.5119,2.5119,2.509,2.4885,2.4671,2.4642,2.5031,2.5119,2.5119,2.5119,2.5119,2.5119,2.5119,2.5119,2.5119,2.5119,2.5119,2.5119,2.5119,2.5119,2.5119,2.5119,2.5119,2.5061,2.4855,2.4642,2.4423,2.4013,2.3749,2.3515,2.331,2.3179,2.3106,2.3106,2.3106,2.3106,2.3106,2.3106,2.3106,2.3106,2.3106,2.3018,2.2813,2.2798,2.2652,2.2345,2.2242,2.2081,2.1876,2.154,2.1393,0.0,1.3387,0.0,0.0,0.0,0.0,0.0,0.0,0.0,1.0586,1.0586,1.0586,1.0586,1.0586,1.0586,1.0586,1.0841,0.0,0.0,0.0,0.0,0.0,0.0,0.0,0.0,0.0,0.0,0.0,0.0,0.0,2.3829,2.4031,2.4342,2.4623,2.4636,2.4636,2.4636,2.4636,2.4636,2.4636,2.4636,2.4636,2.4636,2.4636,2.4636,0.0,2.4636,2.471,2.4784,2.5506,2.5873,2.5946,2.6692,2.6808,2.65,2.6164,2.5842,2.552,2.5198,2.5149,2.5119,2.5119,2.5119,2.5119,2.5119,2.4914,2.4671,2.5031,2.5119,2.5119,2.5119,2.5119,2.5119,2.5119,2.5119,2.5119,2.5119,2.5119,2.5119,2.5119,2.5119,2.5119,2.5119,2.5119,2.5119,2.5119,2.4803,2.4665,2.4569,2.4042,2.3647,2.3603,2.3325,2.3135,2.3106,2.3106,2.3106,2.3106,2.3106,2.3106,2.3106,2.3106,2.3106,2.3106,2.3106,2.2959,2.2652,2.2359,2.2213,2.2213,2.1994,2.1847,1.1189,0.0,1.1404,1.1752,1.1524,1.1216,0.0,0.0,0.0,0.0,0.0,0.0,0.0,1.0586,1.0586,1.0586,1.0841,1.1089,0.0,0.0,0.0,0.0,0.0,0.0,0.0,0.0,0.0,0.0,0.0,2.3666,2.4129,2.4224,2.4342,2.4623,2.4636,2.4636,2.4636,2.4636,2.4636,2.4636,2.4636,2.4636,2.4636,2.4931,2.5079,2.5079,2.5359,2.5506,2.558,2.6019,2.6239,2.6312,2.6838,2.6939,2.6837,2.6515,2.6179,2.5857,2.5535,2.5257,2.5119,2.5119,2.5119,2.5119,2.5119,2.5075,2.5031,2.5105,2.5119,2.5119,2.5119,2.5119,2.5119,2.5119,2.5119,2.5119,2.5119,2.5119,2.5119,2.5119,2.5119,2.5119,2.5119,2.5119,2.5119,2.5119,2.5061,2.4914,2.4598,2.4437,2.4145,2.3647,2.353,2.3384,2.3135,2.3106,2.3106,2.3106,2.3106,2.3106,2.3106,2.3106,2.3106,2.3106,2.3106,2.3076,2.2988,2.2681,2.252,2.2506,2.3183,2.356,1.0586,1.0586,1.0586,1.0586,1.0586,1.0586,1.0586,0.0,0.0,0.0,0.0,0.0,0.0,0.0,0.0,0.0,1.177,0.0,0.0,0.0,0.0,0.0,0.0,0.0,0.0,0.0,0.0,0.0,0.0,2.4121,2.4296,2.4661,2.4975,2.5139,2.5005,2.4784,2.4636,2.4636,2.4636,2.4636,2.4784,2.4857,2.4857,2.5299,2.552,2.552,2.5726,2.58,2.58,2.6239,2.6399,2.6473,2.6838,2.6983,2.6954,2.6617,2.6296,2.5974,2.5637,2.5315,2.5119,2.5119,2.5119,2.5119,2.5119,2.5119,2.5119,2.5119,2.5119,2.5119,2.5119,2.5119,2.5119,2.5119,2.5119,2.5119,2.5119,2.5119,2.5119,2.5119,2.5119,2.5119,2.5119,2.5119,2.5119,2.5119,2.5119,2.5061,2.4818,2.4723,2.4437,2.4086,2.3779,2.353,2.3354,2.3193,2.3106,2.3106,2.3106,2.3106,2.3106,2.3106,2.3106,2.3106,2.3106,2.3106,2.3106,2.3533,2.3764,2.3749,2.4778,2.5192,1.064,1.0653,1.064,1.06,1.0626,1.064,1.06,0.0,0.0,0.0,0.0,0.0,0.0,1.1329,0.0,0.0,0.0,0.0,0.0,0.0,0.0,0.0,0.0,0.0,0.0,0.0,0.0,0.0,0.0,2.4664,2.4296,2.5246,2.58,2.58,2.5446,2.5079,2.4784,2.471,2.471,2.471,2.5079,2.5299,2.5299,2.5726,2.5873,2.5873,0.0,0.0,2.6019,2.6326,2.6473,2.6546,2.6838,2.6983,2.6954,2.6676,2.6369,2.6032,2.5652,2.5315,2.5119,2.5119,2.5119,2.5119,2.5119,2.5119,2.5119,2.5119,2.5119,2.5119,2.5119,2.5119,2.5119,2.5119,2.5119,2.5119,2.5119,2.5119,2.5119,2.5119,2.5119,2.5119,2.5119,2.5119,2.5119,2.5119,2.5119,2.5119,2.5119,2.4885,2.4627,2.4635,2.4071,2.3706,2.3603,2.334,2.3164,2.3106,2.3106,2.3106,2.3106,2.3106,2.3106,2.3106,2.3106,2.3106,2.3106,2.4456,2.5071,2.5133,2.632,2.688,1.0894,1.0929,1.0862,1.0653,1.0774,1.0894,1.0653,0.0,0.0,0.0,0.0,0.0,0.0,1.2866,0.0,0.0,0.0,0.0,0.0,0.0,0.0,0.0,0.0,0.0,0.0,0.0,0.0,0.0,0.0,2.438,2.4296,2.5246,2.58,2.58,2.5446,2.5299,2.558,2.5299,2.5079,2.5079,2.552,2.5726,2.5726,2.6093,2.6312,2.6312,0.0,2.6838,2.6838,2.691,2.691,2.691,2.6998,2.6983,2.6983,2.6939,2.6705,2.6339,2.574,2.5315,2.5119,2.5119,2.5119,2.5119,2.5119,2.5119,2.5119,2.5119,2.5119,2.5119,2.5119,2.5119,2.5119,2.5119,2.5119,2.5119,2.5119,2.5119,2.5119,2.5119,2.5119,2.5119,2.5119,2.5119,2.5119,2.5119,2.5119,2.5119,2.5119,2.5075,2.4943,2.4598,2.4481,2.4203,2.3647,2.3545,2.3398,2.312,2.3106,2.3106,2.3106,2.3106,2.3106,2.3106,2.3106,2.3106,2.3106,2.4456,2.5071,2.5133,2.7477,2.8532,1.076,1.0995,1.1356,1.1864,1.161,1.1196,0.0,0.0,0.0,0.0,0.0,0.0,0.0,0.0,0.0,0.0,0.0,0.0,0.0,0.0,0.0,0.0,0.0,0.0,0.0,0.0,0.0,0.0,0.0,0.0,2.4946,2.5897,2.6473,2.6473,2.6034,2.596,2.6093,2.596,2.574,2.552,2.5946,2.6093,2.6166,2.6546,2.6692,2.6765,0.0,2.6983,2.6983,2.6983,2.6983,2.6983,2.6983,2.6983,2.6969,2.6793,2.6515,2.6164,2.5696,2.5315,2.5119,2.5119,2.5119,2.5119,2.5119,2.5119,2.5119,2.5119,2.5119,2.5119,2.5119,2.5119,2.5119,2.5119,2.5119,2.5119,2.5119,2.5119,2.5119,2.5119,2.5119,2.5119,2.5119,2.5119,2.5119,2.5119,2.5119,2.5119,2.5119,2.5119,2.5061,2.4914,2.4738,2.4452,2.4145,2.3954,2.3647,2.3135,2.3106,2.3106,2.3106,2.3106,2.3106,2.3106,2.3106,2.3106,2.3106,2.5117,2.6156,2.6172,2.876,2.9962,1.068,1.0982,1.1522,1.2545,0.0,0.0,0.0,0.0,0.0,0.0,0.0,0.0,0.0,0.0,0.0,0.0,0.0,0.0,0.0,0.0,0.0,0.0,0.0,0.0,0.0,0.0,0.0,0.0,0.0,0.0,2.5455,2.6416,2.6983,2.6983,2.6619,2.6473,2.6546,2.6473,2.6239,2.5946,2.6326,2.6546,2.6546,2.6838,2.6983,2.6983,2.6983,2.6983,2.6983,2.6983,2.6983,2.6983,2.6983,2.6983,2.6969,2.6705,2.6413,2.6091,2.5754,2.5432,2.5154,2.5149,2.5119,2.5119,2.5119,2.5119,2.5119,2.5119,2.5119,2.5119,2.5119,2.5119,2.5119,2.5119,2.5119,2.5119,2.5119,2.5119,2.5119,2.5119,2.5119,2.5119,2.5119,2.5119,2.5119,2.5119,2.5119,2.5119,2.5119,2.5119,2.5119,2.5119,2.4899,2.4723,2.4583,2.4276,2.3837,2.3252,2.3149,2.3106,2.3106,2.3106,2.3106,2.3106,2.3106,2.3106,2.3106,2.5407,2.6702,2.7082,2.9372,3.0587,1.0889,1.0995,1.1102,1.1463,1.2732,0.0,1.5225,1.5465,0.0,1.5465,0.0,0.0,0.0,0.0,0.0,0.0,0.0,0.0,0.0,0.0,0.0,0.0,0.0,0.0,0.0,0.0,0.0,0.0,0.0,0.0,2.5525,2.6416,2.6983,2.6983,2.6619,2.6619,2.691,2.6619,2.6385,2.6385,2.6765,2.6983,2.6983,2.6983,2.6983,2.6983,2.6983,2.6983,2.6983,2.6983,2.6983,2.6983,2.6983,2.6983,2.6983,2.6969,2.6749,2.6427,2.6091,2.5769,2.5447,2.5154,2.5119,2.5119,2.5119,2.5119,2.5119,2.5119,2.5119,2.5119,2.5119,2.5119,2.5119,2.5119,2.5119,2.5119,2.5119,2.5119,2.5119,2.5119,2.5119,2.5119,2.5119,2.5119,2.5119,2.5119,2.5119,2.5119,2.5119,2.5119,2.5119,2.5119,2.5105,2.4973,2.4665,2.4276,2.394,2.3588,2.3281,2.3106,2.3106,2.3106,2.3106,2.3106,2.3106,2.3106,2.3106,2.4517,2.5851,2.7021,2.8385,2.9726,1.072,1.1663,1.2841,1.3866,1.495,0.0,0.0,1.5591,1.638,1.638,1.638,0.0,0.0,0.0,0.0,0.0,0.0,0.0,0.0,0.0,0.0,0.0,0.0,0.0,0.0,0.0,0.0,0.0,0.0,0.0,2.5807,2.656,2.6983,2.6983,2.6619,2.6473,2.6619,2.6473,2.6239,2.6019,2.6399,2.6765,2.6983,2.6765,2.6765,2.6983,2.6983,2.6983,2.6983,2.6983,2.6983,2.6983,2.6983,2.6983,2.6983,2.6983,2.6778,2.6486,2.6354,2.5974,2.5505,2.5388,2.5213,2.5119,2.5119,2.5119,2.5119,2.5119,2.5119,2.5119,2.5119,2.5119,2.5119,2.5119,2.5119,2.5119,2.5119,2.5119,2.5119,2.5119,2.5119,2.5119,2.5119,2.5119,2.5119,2.5119,2.5119,2.5119,2.5119,2.5119,2.5119,2.5119,2.5119,2.5075,2.4943,2.4569,2.4335,2.4203,2.3706,2.3325,2.312,2.3106,2.3106,2.3106,2.3106,2.3106,2.3106,2.4456,2.5378,2.5867,2.7125,2.8385,1.0734,1.2131,1.384,1.4839,0.0,0.0,1.5752,1.6192,1.6981,1.7448,1.7836,0.0,0.0,0.0,0.0,0.0,0.0,0.0,0.0,0.0,0.0,0.0,0.0,0.0,0.0,0.0,0.0,0.0,0.0,2.5736,2.6018,2.6632,2.6983,2.6983,2.6619,2.6399,2.6399,2.6239,2.6093,2.58,2.6093,2.6385,2.6765,2.6546,2.6619,2.6983,2.6983,2.6983,2.6983,2.6983,2.6983,2.6983,2.6983,2.6983,2.6983,2.6983,2.6852,2.6647,2.6544,2.6208,2.5798,2.5593,2.5388,2.5183,2.5163,2.5119,2.5119,2.5119,2.5119,2.5119,2.5119,2.5119,2.5119,2.5119,2.5119,2.5119,2.5119,2.5119,2.5119,2.5119,2.5119,2.5119,2.5119,2.5119,2.5119,2.5119,2.5119,2.5119,2.5119,2.5119,2.5119,2.5119,2.5119,2.5119,2.5119,2.4914,2.4686,2.4583,2.4145,2.3706,2.3281,2.3267,2.3208,2.3106,2.3106,2.3106,2.3106,2.4038,2.4702,2.5133,2.5989,2.7306,1.1009,1.2318,1.3653,0.0,0.0,0.0,1.8504,1.7862,1.7635,1.9095,0.0,2.0655,1.9199,0.0,0.0,0.0,0.0,0.0,0.0,0.0,0.0,0.0,0.0,0.0,0.0,0.0,0.0,0.0,0.0,2.6018,2.6018,2.6632,2.6983,2.6983,2.6619,2.6385,2.6385,2.6019,2.58,2.58,2.58,2.6019,2.6399,2.6399,2.6619,2.6983,2.6983,2.6983,2.6983,2.6983,2.6983,2.6983,2.6983,2.6983,2.6983,2.6983,2.6983,2.6939,2.6617,2.65,2.6398,2.5754,2.5535,2.5476,2.5154,2.5134,2.5119,2.5119,2.5119,2.5119,2.5119,2.5119,2.5119,2.5119,2.5119,2.5119,2.5119,2.5119,2.5119,2.5119,2.5119,2.5119,2.5119,2.5119,2.5119,2.5119,2.5119,2.5119,2.5119,2.5119,2.5119,2.5119,2.5119,2.5119,2.5119,2.5119,2.4987,2.4665,2.4569,2.4276,2.3632,2.3603,2.3442,2.312,2.3106,2.3106,2.3106,2.3106,2.379,2.5071,2.5071,2.6459,1.2559,1.475,0.0,1.7061,0.0,0.0,0.0,1.8744,0.0,0.0,1.9573,2.0722,1.9466,0.0,0.0,0.0,0.0,0.0,0.0,0.0,0.0,0.0,0.0,0.0,0.0,0.0,0.0,0.0,0.0,2.6018,2.6018,2.6632,2.6838,2.6619,2.6166,2.58,2.5593,2.5446,2.5373,2.5373,2.5373,2.574,2.6399,2.6399,2.6619,2.6983,2.6983,2.6983,2.6983,2.6983,2.6983,2.6983,2.6983,2.6983,2.6983,2.6983,2.6983,2.6983,2.6881,2.6691,2.6471,2.6281,2.59,2.552,2.5418,2.5227,2.5119,2.5119,2.5119,2.5119,2.5119,2.5119,2.5119,2.5119,2.5119,2.5119,2.5119,2.5119,2.5119,2.5119,2.5119,2.5119,2.5119,2.5119,2.5119,2.5119,2.5119,2.5119,2.5119,2.5119,2.5119,2.5119,2.5119,2.5119,2.5119,2.5119,2.509,2.4987,2.4973,2.4613,2.3969,2.394,2.3779,2.3457,2.3457,2.334,2.3106,2.3106,2.379,2.5071,2.5071,2.6459,1.3534,1.6059,0.0,1.8664,1.9225,1.9679,1.9279,0.0,0.0,0.0,0.0,2.0895,2.0187,0.0,0.0,0.0,0.0,0.0,0.0,0.0,0.0,0.0,0.0,0.0,0.0,0.0,0.0,0.0,2.5513,2.6018,2.6018,2.6632,2.691,2.6619,2.6093,2.5726,2.5667,2.5373,2.5299,2.5446,2.5593,2.596,2.6385,2.6239,2.6473,2.6983,2.6983,2.6983,2.6983,2.6983,2.6983,2.6983,2.6983,2.6983,2.6983,2.6983,2.6983,2.6983,2.6983,2.6866,2.6676,2.6544,2.6237,2.5871,2.5608,2.5403,2.5213,2.5163,2.5119,2.5119,2.5119,2.5119,2.5119,2.5119,2.5119,2.5119,2.5119,2.5119,2.5119,2.5119,2.5119,2.5119,2.5119,2.5119,2.5119,2.5119,2.5119,2.5119,2.5119,2.5119,2.5119,2.5119,2.5119,2.5119,2.5119,2.5119,2.5119,2.5119,2.5119,2.4943,2.4481,2.4925,2.4944,2.4611,2.5169,2.5313,2.489,2.489,2.5199,2.5867,2.5851,2.6927,1.4148,0.0,0.0,1.9092,2.012,0.0,1.9426,1.9332,1.9511,1.9269,0.0,2.1082,0.0,0.0,0.0,0.0,0.0,0.0,0.0,0.0,0.0,0.0,0.0,0.0,0.0,0.0,0.0,0.0,2.5652,2.6018,2.6018,2.6632,2.6998,2.691,2.6239,2.6019,2.6312,2.5593,2.5446,2.5873,2.6166,2.6399,2.6473,2.6093,2.6312,2.6983,2.6983,2.6983,2.6983,2.6983,2.6983,2.6983,2.6983,2.6983,2.6983,2.6983,2.6983,2.6983,2.6983,2.6983,2.6939,2.6647,2.653,2.6398,2.5798,2.5579,2.5476,2.5183,2.5149,2.5119,2.5119,2.5119,2.5119,2.5119,2.5119,2.5119,2.5119,2.5119,2.5119,2.5119,2.5119,2.5119,2.5119,2.5119,2.5119,2.5119,2.5119,2.5119,2.5119,2.5119,2.5119,2.5119,2.5119,2.5119,2.5119,2.5119,2.5119,2.5255,2.5255,2.5322,2.5457,2.6141,2.6452,2.6232,2.749,2.7997,2.7683,2.7648,2.7459,2.7254,2.7185,2.7889,1.519,1.7315,0.0,0.0,2.0882,2.1029,2.0708,2.0681,2.0147,1.8104,0.0,0.0,0.0,0.0,0.0,0.0,0.0,0.0,0.0,0.0,0.0,0.0,0.0,0.0,0.0,0.0,0.0,0.0,2.5652,2.6018,2.6018,2.6632,2.6838,2.6546,2.6385,2.6166,2.5946,2.5726,2.5873,2.6239,2.6019,2.6239,2.6838,2.6765,2.6838,2.6983,2.6983,2.6983,2.6983,2.6983,2.6983,2.6983,2.6983,2.6983,2.6983,2.6983,2.6983,2.6983,2.6983,2.6983,2.6983,2.691,2.6705,2.6471,2.6339,2.593,2.552,2.5447,2.5242,2.5119,2.5119,2.5119,2.5119,2.5119,2.5119,2.5119,2.5119,2.5119,2.5119,2.5119,2.5119,2.5119,2.5119,2.5119,2.5119,2.5119,2.5119,2.5119,2.5119,2.5119,2.5119,2.5119,2.5119,2.5119,2.5119,2.5119,2.551,2.662,2.6686,2.7153,2.8262,2.6506,2.5774,2.6598,2.6907,2.7435,2.814,2.7768,2.8071,2.9034,2.8649,2.9235,1.5605,0.0,0.0,2.0748,0.0,2.1109,2.1109,2.1109,0.0,0.0,0.0,0.0,0.0,0.0,0.0,0.0,0.0,0.0,0.0,0.0,0.0,0.0,0.0,0.0,0.0,0.0,0.0,0.0,2.5652,2.6018,2.6018,2.6632,2.691,2.6692,2.6473,2.6385,2.6399,2.6166,2.6312,2.6692,2.6473,2.6619,2.6983,2.6983,2.6983,2.6983,2.6983,2.6983,2.6983,2.6983,2.6983,2.6983,2.6983,2.6983,2.6983,2.6983,2.6983,2.6983,2.6983,2.6983,2.6983,2.6983,2.6881,2.6705,2.6559,2.6266,2.593,2.5622,2.5418,2.5242,2.5163,2.5119,2.5119,2.5119,2.5119,2.5119,2.5119,2.5119,2.5119,2.5119,2.5119,2.5119,2.5119,2.5119,2.5119,2.5119,2.5119,2.5119,2.5119,2.5119,2.5119,2.5119,2.5119,2.5119,2.5119,2.5119,2.5644,2.702,2.7086,2.7734,2.9117,2.7816,2.7653,2.8892,2.9538,3.0112,3.0424,3.0222,3.0328,3.0812,3.0395,3.0503,1.5231,0.0,1.8918,2.0668,2.1109,0.0,2.1109,0.0,0.0,0.0,0.0,0.0,0.0,0.0,0.0,0.0,0.0,0.0,0.0,0.0,0.0,0.0,0.0,0.0,0.0,0.0,0.0,0.0,2.5652,2.6018,2.6018,2.6632,2.6983,2.6983,2.6692,2.6692,2.6983,2.6692,2.6692,2.6983,2.6983,2.6983,2.6983,2.6983,2.6983,2.6983,2.6983,2.6983,2.6983,2.6983,2.6983,2.6983,2.6983,2.6983,2.6983,2.6983,2.6983,2.6983,2.6983,2.6983,2.6983,2.6983,2.6983,2.6939,2.6676,2.6544,2.6383,2.5857,2.5652,2.5535,2.5227,2.514,2.5193,2.5134,2.5119,2.5119,2.5119,2.5119,2.5119,2.5119,2.5119,2.5119,2.5119,2.5119,2.5119,2.5119,2.5119,2.5119,2.5119,2.5119,2.5119,2.5119,2.5119,2.5119,2.5119,2.5119,2.5644,2.702,2.7352,2.8065,2.9509,2.977,3.0484,3.1643,3.2575,3.2991,3.291,3.2832,3.2617,3.2266,3.1836,3.1621,0.0,0.0,1.8918,0.0,2.1109,2.1109,0.0,0.0,0.0,0.0,0.0,0.0,0.0,0.0,0.0,0.0,0.0,0.0,0.0,0.0,0.0,0.0,0.0,0.0,0.0,0.0,0.0,0.0,2.5652,2.6018,2.6018,2.6632,2.6983,2.6983,2.691,2.691,2.6983,2.691,2.691,2.6983,2.6983,2.6983,2.6983,2.6983,2.6983,2.6983,2.6983,2.6983,2.6983,2.6983,2.6983,2.6983,2.6983,2.6983,2.6983,2.6983,2.6983,2.6983,2.6983,2.6983,2.6983,2.6983,2.6983,2.6983,2.6939,2.672,2.6486,2.6398,2.6164,2.5871,2.5549,2.5461,2.5403,2.5193,2.5119,2.5119,2.5119,2.5119,2.5119,2.5119,2.5119,2.5119,2.5119,2.5119,2.5119,2.5119,2.5119,2.5119,2.5119,2.5119,2.5119,2.5119,2.5119,2.5119,2.5119,2.5119,2.5644,2.702,2.8262,2.9574,3.0936,3.2174,3.2892,3.3102,3.211,3.2136,3.334,3.2969,3.2773,3.2695,3.2285,3.209,1.296,1.5925,1.8718,0.0,2.0494,0.0,0.0,0.0,0.0,0.0,0.0,0.0,0.0,0.0,0.0,0.0,0.0,0.0,0.0,0.0,0.0,0.0,0.0,0.0,0.0,0.0,0.0,0.0,2.5652,2.6018,2.6018,2.6632,2.6983,2.6983,2.6983,2.6983,2.6983,2.6983,2.6983,2.6983,2.6983,2.6983,2.6983,2.6983,2.6983,2.6983,2.6983,2.6983,2.6983,2.6983,2.6983,2.6983,2.6983,2.6983,2.6983,2.6983,2.6983,2.6983,2.6983,2.6983,2.6983,2.6983,2.6983,2.6983,2.6983,2.6896,2.6735,2.6559,2.6398,2.6208,2.5886,2.5666,2.5491,2.5359,2.5183,2.5119,2.5119,2.5119,2.5119,2.5119,2.5119,2.5119,2.5119,2.5119,2.5119,2.5119,2.5119,2.5119,2.5119,2.5119,2.5119,2.5119,2.5119,2.5119,2.5119,2.5119,2.5644,2.702,2.7668,2.9034,3.1194,3.1899,3.2556,3.3355,3.2765,3.2765,3.3418,3.3242,3.3144,3.3144,3.2715,3.2519,0.0,0.0,1.7422,1.8531,0.0,0.0,0.0,0.0,0.0,0.0,0.0,0.0,0.0,0.0,0.0,0.0,0.0,0.0,0.0,0.0,0.0,0.0,0.0,0.0,0.0,0.0,0.0,0.0,2.5582,2.6018,2.6018,2.6632,2.6983,2.6983,2.6983,2.6983,2.6983,2.6983,2.6983,2.6983,2.6983,2.6983,2.6983,2.6983,2.6983,2.6983,2.6983,2.6983,2.6983,2.6983,2.6983,2.6983,2.6983,2.6983,2.6983,2.6983,2.6983,2.6983,2.6983,2.6983,2.6983,2.6983,2.6983,2.6983,2.6983,2.6983,2.6939,2.6691,2.6632,2.6559,2.6222,2.5959,2.5754,2.5666,2.5403,2.5154,2.5134,2.5119,2.5119,2.5119,2.5119,2.5119,2.5119,2.5119,2.5119,2.5119,2.5119,2.5119,2.5119,2.5119,2.5119,2.5119,2.5119,2.5119,2.5119,2.5119,2.5524,2.6501,2.6886,2.8196,3.066,3.113,3.1963,3.3355,3.3418,3.3418,3.3418,3.3418,3.3418,3.3418,3.3105,3.2949,0.0,1.336,0.0,0.0,0.0,0.0,0.0,0.0,0.0,0.0,0.0,0.0,0.0,0.0,0.0,0.0,0.0,0.0,0.0,0.0,0.0,0.0,0.0,0.0,0.0,0.0,0.0,0.0,2.5444,2.6018,2.6018,2.6632,2.6983,2.6983,2.6983,2.6983,2.6983,2.6983,2.6983,2.6983,2.6983,2.6983,2.6983,2.6983,2.6983,2.6983,2.6983,2.6983,2.6983,2.6983,2.6983,2.6983,2.6983,2.6983,2.6983,2.6983,2.6983,2.6983,2.6983,2.6983,2.6983,2.6983,2.6983,2.6983,2.6983,2.6983,2.6983,2.6969,2.6969,2.6896,2.6559,2.6471,2.6369,2.6061,2.574,2.5418,2.5125,2.5119,2.5119,2.5119,2.5119,2.5119,2.5119,2.5119,2.5119,2.5119,2.5119,2.5119,2.5119,2.5119,2.5119,2.5119,2.5119,2.5119,2.5119,2.5119,2.5119,2.5187,2.6435,2.7734,2.9248,3.0595,3.1963,3.3355,3.3418,3.3418,3.3418,3.3418,3.3418,3.3418,3.3398,3.3379,0.0,0.0,0.0,0.0,0.0,0.0,0.0,0.0,0.0,0.0,0.0,0.0,0.0,0.0,0.0,0.0,0.0,0.0,0.0,0.0,0.0,0.0,0.0,0.0,0.0,0.0,0.0,0.0,2.5444,2.6018,2.6018,2.6632,2.6983,2.6983,2.6983,2.6983,2.6983,2.6983,2.6983,2.6983,2.6983,2.6983,2.6983,2.6983,2.6983,2.6983,2.6983,2.6983,2.6983,2.6983,2.6983,2.6983,2.6983,2.6983,2.6983,2.6983,2.6983,2.6983,2.6983,2.6983,2.6983,2.6983,2.6983,2.6983,2.6983,2.6983,2.6983,2.6983,2.6983,2.6969,2.6852,2.6661,2.6427,2.6091,2.593,2.5813,2.5696,2.5344,2.5119,2.5119,2.5119,2.5119,2.5119,2.5119,2.5119,2.5119,2.5119,2.5119,2.5119,2.5119,2.5119,2.5119,2.5119,2.5119,2.5119,2.5119,2.5119,2.5119,2.5577,2.682,2.9117,2.9705,3.1065,3.3355,3.3418,3.3418,3.3418,3.3418,3.3418,3.3418,3.3418,3.3418,1.0827,0.0,0.0,0.0,0.0,0.0,0.0,0.0,0.0,0.0,0.0,0.0,0.0,0.0,0.0,0.0,0.0,0.0,0.0,0.0,0.0,0.0,0.0,0.0,0.0,0.0,0.0,0.0,2.5374,0.0,2.6018,2.6632,2.6983,2.6983,2.6983,2.6983,2.6983,2.6983,2.6983,2.6983,2.6983,2.6983,2.6983,2.6983,2.6983,2.6983,2.6983,2.6983,2.6983,2.6983,2.6983,2.6983,2.6983,2.6983,2.6983,2.6983,2.6983,2.6983,2.6983,2.6983,2.6983,2.6983,2.6983,2.6983,2.6983,2.6983,2.6983,2.6983,2.6983,2.6983,2.6983,2.6822,2.6588,2.6252,2.6179,2.6149,2.6047,2.5681,2.5344,2.5242,2.5213,2.5183,2.5149,2.5119,2.5119,2.5119,2.5119,2.5119,2.5119,2.5119,2.5119,2.5119,2.5119,2.5255,2.5712,2.5779,2.5981,2.6435,2.6501,2.7485,2.9835,2.99,3.1001,3.3355,3.3418,3.3418,3.3418,3.3418,3.3418,3.3418,3.3418,3.3418,0.0,0.0,0.0,0.0,0.0,0.0,0.0,0.0,0.0,0.0,0.0,0.0,0.0,0.0,0.0,0.0,0.0,0.0,0.0,0.0,0.0,0.0,0.0,0.0,0.0,0.0,0.0,0.0,2.5221,2.6003,2.6018,2.6632,2.6983,2.6983,2.6983,2.6983,2.6983,2.6983,2.6983,2.6983,2.6983,2.6983,2.6983,2.6983,2.6983,2.6983,2.6983,2.6983,2.6983,2.6983,2.6983,2.6983,2.6983,2.6983,2.6983,2.6983,2.6983,2.6983,2.6983,2.6983,2.6983,2.6983,2.6983,2.6983,2.6983,2.6983,2.6983,2.6983,2.6983,2.6983,2.6983,2.6983,2.691,2.6588,2.6515,2.6427,2.612,2.6047,2.5944,2.5608,2.548,2.5447,2.5193,2.5134,2.5134,2.5119,2.5119,2.5119,2.5119,2.5119,2.5119,2.5119,2.5119,2.5644,2.6953,2.7086,2.7668,2.9051,2.9182,2.9835,3.124,3.1322,3.1963,3.3355,3.3418,3.3418,3.3418,3.3418,3.3418,3.3418,3.3418,3.3418,1.0586,0.0,0.0,0.0,0.0,0.0,0.0,0.0,0.0,0.0,0.0,0.0,0.0,0.0,0.0,0.0,0.0,0.0,0.0,0.0,0.0,0.0,0.0,0.0,0.0,0.0,0.0,0.0,2.4813,2.549,2.6003,2.6632,2.6983,2.6983,2.6983,2.6983,2.6983,2.6983,2.6983,2.6983,2.6983,2.6983,2.6983,2.6983,2.6983,2.6983,2.6983,2.6983,2.6983,2.6983,2.6983,2.6983,2.6983,2.6983,2.6983,2.6983,2.6983,2.6983,2.6983,2.6983,2.6983,2.6983,2.6983,2.6983,2.6983,2.6983,2.6983,2.6983,2.6983,2.6983,2.6983,2.6983,2.6969,2.6881,2.6852,2.6837,2.6735,2.672,2.6559,2.5988,2.5886,2.5783,2.5461,2.5403,2.5315,2.5163,2.5119,2.5119,2.5119,2.5119,2.5119,2.5119,2.5119,2.5255,2.5644,2.6568,2.7286,2.7684,2.8657,2.9835,3.124,3.1322,3.1963,3.3355,3.3418,3.3418,3.3418,3.3418,3.3418,3.3418,3.3418,3.3418,1.0586,1.0586,0.0,0.0,0.0,0.0,1.2679,1.3547,1.483,0.0,0.0,0.0,0.0,0.0,0.0,0.0,0.0,0.0,0.0,0.0,0.0,0.0,0.0,0.0,0.0,2.3201,2.3543,2.3952,2.459,2.5377,2.6193,2.6705,2.6983,2.6983,2.6983,2.6983,2.6983,2.6983,2.6983,2.6983,2.6983,2.6983,2.6983,2.6983,2.6983,2.6983,2.6983,2.6983,2.6983,2.6983,2.6983,2.6983,2.6983,2.6983,2.6983,2.6983,2.6983,2.6983,2.6983,2.6983,2.6983,2.6983,2.6983,2.6983,2.6983,2.6983,2.6983,2.6983,2.6983,2.6983,2.6983,2.6983,2.6983,2.6983,2.6983,2.6983,2.6983,2.6983,2.6837,2.6325,2.6222,2.612,2.5783,2.5622,2.5461,2.5286,2.514,2.5119,2.5119,2.5119,2.5119,2.5119,2.5577,2.6167,2.6769,2.8065,2.91,2.9687,3.0484,3.1322,3.2174,3.2174,3.2556,3.3355,3.3418,3.3418,3.3418,3.3418,3.3418,3.3418,3.3418,3.3418,1.06,1.0586,1.0586,0.0,0.0,0.0,1.1482,1.2719,1.4295,1.6259,0.0,0.0,0.0,0.0,0.0,0.0,0.0,0.0,0.0,0.0,0.0,0.0,0.0,0.0,2.2928,2.3201,2.3475,2.3884,2.4618,2.5493,2.6413,2.6793,2.6983,2.6983,2.6983,2.6983,2.6983,2.6983,2.6983,2.6983,2.6983,2.6983,2.6983,2.6983,2.6983,2.6983,2.6983,2.6983,2.6983,2.6983,2.6983,2.6983,2.6983,2.6983,2.6983,2.6983,2.6983,2.6983,2.6983,2.6983,2.6983,2.6983,2.6983,2.6983,2.6983,2.6983,2.6983,2.6983,2.6983,2.6983,2.6983,2.6983,2.6983,2.6983,2.6983,2.6983,2.6983,2.6983,2.691,2.6617,2.6559,2.6457,2.612,2.5827,2.5622,2.5535,2.5286,2.5163,2.5322,2.5322,2.539,2.5524,2.662,2.7866,2.9117,3.0466,3.1835,3.3102,3.3292,3.3418,3.3418,3.3418,3.3418,3.3418,3.3418,3.3418,3.3418,3.3418,3.3418,3.3418,3.3418,3.3418,0.0,1.0586,0.0,0.0,1.064,0.0,1.2518,1.2211,1.2505,0.0,0.0,0.0,0.0,0.0,0.0,0.0,0.0,0.0,0.0,0.0,0.0,0.0,0.0,0.0,2.2928,2.2928,2.3133,2.3475,2.4678,2.5623,2.6105,2.6676,2.6983,2.6983,2.6983,2.6983,2.6983,2.6983,2.6983,2.6983,2.6983,2.6983,2.6983,2.6983,2.6983,2.6983,2.6983,2.6983,2.6983,2.6983,2.6983,2.6983,2.6983,2.6983,2.6983,2.6983,2.6983,2.6983,2.6983,2.6983,2.6983,2.6983,2.6983,2.6983,2.6983,2.6983,2.6983,2.6983,2.6983,2.6983,2.6983,2.6983,2.6983,2.6983,2.6983,2.6983,2.6983,2.6983,2.6969,2.691,2.6896,2.6793,2.6457,2.6354,2.6135,2.5608,2.5476,2.574,2.6599,2.6686,2.7153,2.8262,2.8657,2.892,2.9182,3.0466,3.1451,3.1707,3.2765,3.3418,3.3418,3.3418,3.3418,3.3418,3.3418,3.3418,3.3418,3.3418,3.3418,3.3418,3.3418,3.3418,0.0,0.0,0.0,1.0995,1.0995,0.0,0.0,1.1744,1.1957,1.4629,0.0,0.0,0.0,0.0,0.0,0.0,0.0,0.0,0.0,0.0,0.0,0.0,0.0,0.0,2.2928,2.2928,2.3133,2.3679,2.4663,2.5493,2.5933,2.6486,2.6822,2.6983,2.6983,2.6983,2.6983,2.6983,2.6983,2.6983,2.6983,2.6983,2.6983,2.6983,2.6983,2.6983,2.6983,2.6983,2.6983,2.6983,2.6983,2.6983,2.6983,2.6983,2.6983,2.6983,2.6983,2.6983,2.6983,2.6983,2.6983,2.6983,2.6983,2.6983,2.6983,2.6983,2.6983,2.6983,2.6983,2.6983,2.6983,2.6983,2.6983,2.6983,2.6983,2.6983,2.6983,2.6983,2.6983,2.6983,2.6983,2.6939,2.6778,2.6617,2.6398,2.6061,2.6484,2.7,2.732,2.801,2.866,2.9151,2.9835,3.0225,3.0225,3.1515,3.2365,3.2365,3.3019,3.3418,3.3418,3.3418,3.3418,3.3418,3.3418,3.3418,3.3418,3.3418,3.3418,3.3418,3.3418,3.3418,0.0,0.0,0.0,0.0,0.0,1.149,0.0,0.0,0.0,0.0,0.0,0.0,0.0,0.0,0.0,0.0,0.0,0.0,0.0,0.0,0.0,0.0,0.0,0.0,2.2485,2.2699,2.3201,2.3952,2.4521,2.5181,2.5933,2.6325,2.6647,2.6983,2.6983,2.6983,2.6983,2.6983,2.6983,2.6983,2.6983,2.6983,2.6983,2.6983,2.6983,2.6983,2.6983,2.6983,2.6983,2.6983,2.6983,2.6983,2.6983,2.6983,2.6983,2.6983,2.6983,2.6983,2.6983,2.6983,2.6983,2.6983,2.6983,2.6983,2.6983,2.6983,2.6983,2.6983,2.6983,2.6983,2.6983,2.6983,2.6983,2.6983,2.6983,2.6983,2.6983,2.6983,2.6983,2.6983,2.6983,2.6983,2.6983,2.6778,2.6574,2.6515,2.7311,2.7978,2.8092,2.9127,2.9892,3.0105,3.112,3.1707,3.1707,3.2765,3.3418,3.3418,3.3418,3.3418,3.3418,3.3418,3.3418,3.3418,3.3418,3.3418,3.3418,3.3418,3.3418,3.3418,3.3418,3.3418,0.0,0.0,0.0,0.0,1.1623,0.0,0.0,0.0,1.1522,1.206,0.0,0.0,0.0,0.0,0.0,0.0,0.0,0.0,0.0,0.0,0.0,0.0,0.0,0.0,0.0,2.2098,2.3201,2.3952,2.4315,2.4902,2.5933,2.6325,2.6647,2.6983,2.6983,2.6983,2.6983,2.6983,2.6983,2.6983,2.6983,2.6983,2.6983,2.6983,2.6983,2.6983,2.6983,2.6983,2.6983,2.6983,2.6983,2.6983,2.6983,2.6983,2.6983,2.6983,2.6983,2.6983,2.6983,2.6983,2.6983,2.6983,2.6983,2.6983,2.6983,2.6983,2.6983,2.6983,2.6983,2.6983,2.6983,2.6983,2.6983,2.6983,2.6983,2.6983,2.6983,2.6983,2.6983,2.6983,2.6983,2.6983,2.6983,2.6954,2.6837,2.6544,2.6614,2.7513,2.9765,2.9884,3.0725,3.3276,3.3315,3.3165,3.3165,3.3292,3.3418,3.3418,3.3418,3.3418,3.3418,3.3418,3.3418,3.3418,3.3418,3.3418,3.3418,3.3418,3.3418,3.3418,3.3418,3.3418,0.0,0.0,0.0,0.0,0.0,0.0,1.2198,0.0,1.177,0.0,0.0,0.0,0.0,0.0,0.0,0.0,1.3293,0.0,0.0,0.0,0.0,0.0,0.0,0.0,0.0,0.0,0.0,2.2502,2.2748,2.3355,2.4517,2.5637,2.6457,2.6969,2.6983,2.6983,2.6983,2.6983,2.6983,2.6983,2.6983,2.6983,2.6983,2.6983,2.6983,2.6983,2.6983,2.6983,2.6983,2.6983,2.6983,2.6983,2.6983,2.6983,2.6983,2.6983,2.6983,2.6983,2.6983,2.6983,2.6983,2.6983,2.6983,2.6983,2.6983,2.6983,2.6983,2.6983,2.6983,2.6983,2.6983,2.6983,2.6983,2.6983,2.6983,2.6983,2.6983,2.6983,2.6983,2.6983,2.6983,2.6983,2.6983,2.6983,2.6939,2.6808,2.7557,2.842,2.9249,3.0703,3.2083,3.304,3.3527,3.3809,3.3809,3.3574,3.3418,3.3418,3.3418,3.3418,3.3418,3.3418,3.3418,3.3418,3.3418,3.3418,3.3418,3.3418,3.3418,3.3418,3.3418,3.3418,1.5471,0.0,0.0,0.0,0.0,0.0,0.0,0.0,0.0,0.0,0.0,0.0,0.0,0.0,0.0,0.0,0.0,1.308,0.0,0.0,0.0,0.0,0.0,0.0,0.0,0.0,1.9239,2.0791,2.104,2.1854,2.3417,2.4648,2.5857,2.6954,2.6983,2.6983,2.6983,2.6983,2.6983,2.6983,2.6983,2.6983,2.6983,2.6983,2.6983,2.6983,2.6983,2.6983,2.6983,2.6983,2.6983,2.6983,2.6983,2.6983,2.6983,2.6983,2.6983,2.6983,2.6983,2.6983,2.6983,2.6983,2.6983,2.6983,2.6983,2.6983,2.6983,2.6983,2.6983,2.6983,2.6983,2.6983,2.6983,2.6983,2.6983,2.6983,2.6983,2.6983,2.6983,2.6983,2.6983,2.6983,2.6983,2.6983,2.6983,2.6983,2.7897,2.8669,2.8775,3.0942,3.2571,3.2667,3.3622,3.4238,3.4238,3.3848,3.3555,3.3437,3.3418,3.3418,3.3418,3.3418,3.3418,3.3418,3.3418,3.3418,3.3418,3.3418,3.3418,3.3418,3.3418,3.3418,0.0,0.0,0.0,1.7301,0.0,0.0,0.0,0.0,1.2851,0.0,0.0,0.0,0.0,0.0,0.0,0.0,0.0,0.0,0.0,0.0,0.0,0.0,0.0,0.0,0.0,1.7929,1.8924,1.9071,1.932,2.0585,2.3183,2.3519,2.4686,2.6925,2.6983,2.6983,2.6983,2.6983,2.6983,2.6983,2.6983,2.6983,2.6983,2.6983,2.6983,2.6983,2.6983,2.6983,2.6983,2.6983,2.6983,2.6983,2.6983,2.6983,2.6983,2.6983,2.6983,2.6983,2.6983,2.6983,2.6983,2.6983,2.6983,2.6983,2.6983,2.6983,2.6983,2.6983,2.6983,2.6983,2.6983,2.6983,2.6983,2.6983,2.6983,2.6983,2.6983,2.6983,2.6983,2.6983,2.6983,2.6983,2.6983,2.6983,2.6983,2.6983,2.7056,2.755,2.9019,3.0203,3.1495,3.2934,3.4061,3.4668,3.4668,3.4297,3.3867,3.3457,3.3418,3.3418,3.3418,3.3418,3.3418,3.3418,3.3418,3.3418,3.3418,3.3418,3.3418,3.3418,3.3418,3.3418,0.0,0.0,1.9252,1.9559,0.0,0.0,0.0,0.0,0.0,0.0,0.0,0.0,0.0,0.0,0.0,0.0,0.0,0.0,0.0,0.0,0.0,0.0,0.0,0.0,0.0,0.0,0.0,1.7309,1.7733,1.8954,2.1234,2.2777,2.454,2.6603,2.6881,2.6983,2.6983,2.6983,2.6983,2.6983,2.6983,2.6983,2.6983,2.6983,2.6983,2.6983,2.6983,2.6983,2.6983,2.6983,2.6983,2.6983,2.6983,2.6983,2.6983,2.6983,2.6983,2.6983,2.6983,2.6983,2.6983,2.6983,2.6983,2.6983,2.6983,2.6983,2.6983,2.6983,2.6983,2.6983,2.6983,2.6983,2.6983,2.6983,2.6983,2.6983,2.6983,2.6983,2.6983,2.6983,2.6983,2.6983,2.6983,2.6983,2.6983,2.6983,2.6983,2.755,2.9035,3.0418,3.1879,3.3422,3.4518,3.5156,3.5156,3.4746,3.4297,3.3887,3.3848,3.373,3.3437,3.3418,3.3418,3.3418,3.3418,3.3418,3.3418,3.3418,3.3418,3.3418,3.3418,3.3418,2.1577,2.147,0.0,2.1537,2.012,0.0,1.7716,0.0,1.5251,0.0,0.0,0.0,0.0,0.0,0.0,0.0,0.0,0.0,0.0,1.344,0.0,0.0,0.0,0.0,0.0,0.0,1.4838,1.5778,1.6063,1.7373,0.0,2.177,2.3831,2.6427,2.6822,2.6983,2.6983,2.6983,2.6983,2.6983,2.6983,2.6983,2.6983,2.6983,2.6983,2.6983,2.6983,2.6983,2.6983,2.6983,2.6983,2.6983,2.6983,2.6983,2.6983,2.6983,2.6983,2.6983,2.6983,2.6983,2.6983,2.6983,2.6983,2.6983,2.6983,2.6983,2.6925,2.6574,2.672,2.691,2.6559,2.6735,2.6983,2.6983,2.6983,2.6983,2.6983,2.6983,2.6983,2.6983,2.6896,2.6822,2.6822,2.6822,2.6852,2.6969,2.6983,2.755,2.9035,3.0518,3.207,3.3623,3.4861,3.5547,3.541,3.5117,3.4766,3.4316,3.4297,3.418,3.3887,3.373,3.3809,3.4121,3.3652,3.3574,3.3867,3.3574,3.3418,3.3418,3.3418,3.3418]}]]